[[{"header":{"parameterUnit":"m.s-1","parameterCategory":1,"la1":30.6,"la2":28.766,"lo1":-90.7593,"lo2":-88.6598,"dy":0.0162,"dx":0.0183,"nx":116,"ny":114,"refTime":"2023-05-18T12:00:00:Z","depth":0,"parameterNumber":2,"parameterNumberName":"U-component_of_WINDS"},"data":[0.0,0.0,0.0,0.0,0.0,0.0,0.0,0.0,0.0,0.0,0.0,0.0,0.0,0.0,0.0,0.0,0.0,0.0,0.0,0.0,0.0,0.0,0.0,0.0,0.0,0.0,0.0,0.0,0.0,0.0,0.0,0.0,0.0,0.0,0.0,0.0,0.0,0.0,0.0,0.0,0.0,0.0,0.0,0.0,0.0,0.0,0.0,0.0,0.0,0.0,0.0,0.0,0.0,0.0,0.0,0.0,0.0,0.0,0.0,0.0,0.0,0.0,0.0,0.0,0.0,0.0,0.0,0.0,0.0,0.0,0.0,0.0,0.0,0.0,0.0,0.0,0.0,0.0,0.0,0.0,0.0,0.0,0.0,0.0,0.0,0.0,0.0,0.0,0.0,0.0,0.0,0.0,0.0,0.0,0.0,0.0,0.0,0.0,0.0,0.0,0.0,0.0,0.0,0.0,0.0,0.0,0.0,0.0,0.0,0.0,0.0,0.0,0.0,0.0,0.0,0.0,0.0,0.0,0.0,0.0,0.0,0.0,0.0,0.0,0.0,0.0,0.0,0.0,0.0,0.0,0.0,0.0,0.0,0.0,0.0,0.0,0.0,0.0,0.0,0.0,0.0,0.0,0.0,0.0,0.0,0.0,0.0,0.0,0.0,0.0,0.0,0.0,0.0,0.0,0.0,0.0,0.0,0.0,0.0,0.0,0.0,0.0,0.0,0.0,0.0,0.0,0.0,0.0,0.0,0.0,0.0,0.0,0.0,0.0,0.0,0.0,0.0,0.0,0.0,0.0,0.0,0.0,0.0,0.0,0.0,0.0,0.0,0.0,0.0,0.0,0.0,0.0,0.0,0.0,0.0,0.0,0.0,0.0,0.0,0.0,0.0,0.0,0.0,0.0,0.0,0.0,0.0,0.0,0.0,0.0,0.0,0.0,0.0,0.0,0.0,0.0,0.0,0.0,0.0,0.0,0.0,0.0,0.0,0.0,0.0,0.0,0.0,0.0,0.0,0.0,0.0,0.0,0.0,0.0,0.0,0.0,0.0,0.0,0.0,0.0,0.0,0.0,0.0,0.0,0.0,0.0,0.0,0.0,0.0,0.0,0.0,0.0,0.0,0.0,0.0,0.0,0.0,0.0,0.0,0.0,0.0,0.0,0.0,0.0,0.0,0.0,0.0,0.0,0.0,0.0,0.0,0.0,0.0,0.0,0.0,0.0,0.0,0.0,0.0,0.0,0.0,0.0,0.0,0.0,0.0,0.0,0.0,0.0,0.0,0.0,0.0,0.0,0.0,0.0,0.0,0.0,0.0,0.0,0.0,0.0,0.0,0.0,0.0,0.0,0.0,0.0,0.0,0.0,0.0,0.0,0.0,0.0,0.0,0.0,0.0,0.0,0.0,0.0,0.0,0.0,0.0,0.0,0.0,0.0,0.0,0.0,0.0,0.0,0.0,0.0,0.0,0.0,0.0,0.0,0.0,0.0,0.0,0.0,0.0,0.0,0.0,0.0,0.0,0.0,0.0,0.0,0.0,0.0,0.0,0.0,0.0,0.0,0.0,0.0,0.0,0.0,0.0,0.0,0.0,0.0,0.0,0.0,0.0,0.0,0.0,0.0,0.0,0.0,0.0,0.0,0.0,0.0,0.0,0.0,0.0,0.0,0.0,0.0,0.0,0.0,0.0,0.0,0.0,0.0,0.0,0.0,0.0,0.0,0.0,0.0,0.0,0.0,0.0,0.0,0.0,0.0,0.0,0.0,0.0,0.0,0.0,0.0,0.0,0.0,0.0,0.0,0.0,0.0,0.0,0.0,0.0,0.0,0.0,0.0,0.0,0.0,0.0,0.0,0.0,0.0,0.0,0.0,0.0,0.0,0.0,0.0,0.0,0.0,0.0,0.0,0.0,0.0,0.0,0.0,0.0,0.0,0.0,0.0,0.0,0.0,0.0,0.0,0.0,0.0,0.0,0.0,0.0,0.0,0.0,0.0,0.0,0.0,0.0,0.0,0.0,0.0,0.0,0.0,0.0,0.0,0.0,0.0,0.0,0.0,0.0,0.0,0.0,0.0,0.0,0.0,0.0,0.0,0.0,0.0,0.0,0.0,0.0,0.0,0.0,0.0,0.0,0.0,0.0,0.0,0.0,0.0,0.0,0.0,0.0,0.0,0.0,0.0,0.0,0.0,0.0,0.0,0.0,0.0,0.0,0.0,0.0,0.0,0.0,0.0,0.0,0.0,0.0,0.0,0.0,0.0,0.0,0.0,0.0,0.0,0.0,0.0,0.0,0.0,0.0,0.0,0.0,0.0,0.0,0.0,0.0,0.0,0.0,0.0,0.0,0.0,0.0,0.0,0.0,0.0,0.0,0.0,0.0,0.0,0.0,0.0,0.0,0.0,0.0,0.0,0.0,0.0,0.0,0.0,0.0,0.0,0.0,0.0,0.0,0.0,0.0,0.0,0.0,0.0,0.0,0.0,0.0,0.0,0.0,0.0,0.0,0.0,0.0,0.0,0.0,0.0,0.0,0.0,0.0,0.0,0.0,0.0,0.0,0.0,0.0,0.0,0.0,0.0,0.0,0.0,0.0,0.0,0.0,0.0,0.0,0.0,0.0,0.0,0.0,0.0,0.0,0.0,0.0,0.0,0.0,0.0,0.0,0.0,0.0,0.0,0.0,0.0,0.0,0.0,0.0,0.0,0.0,0.0,0.0,0.0,0.0,0.0,0.0,0.0,0.0,0.0,0.0,0.0,0.0,0.0,0.0,0.0,0.0,0.0,0.0,0.0,0.0,0.0,0.0,0.0,0.0,0.0,0.0,0.0,0.0,0.0,0.0,0.0,0.0,0.0,0.0,0.0,0.0,0.0,0.0,0.0,0.0,0.0,0.0,0.0,0.0,0.0,0.0,0.0,0.0,0.0,0.0,0.0,0.0,0.0,0.0,0.0,0.0,0.0,0.0,0.0,0.0,0.0,0.0,0.0,0.0,0.0,0.0,0.0,0.0,0.0,0.0,0.0,0.0,0.0,0.0,0.0,0.0,0.0,0.0,0.0,0.0,0.0,0.0,0.0,0.0,0.0,0.0,0.0,0.0,0.0,0.0,0.0,0.0,0.0,0.0,0.0,0.0,0.0,0.0,0.0,0.0,0.0,0.0,0.0,0.0,0.0,0.0,0.0,0.0,0.0,0.0,0.0,0.0,0.0,0.0,0.0,0.0,0.0,0.0,0.0,0.0,0.0,0.0,0.0,0.0,0.0,0.0,0.0,0.0,0.0,0.0,0.0,0.0,0.0,0.0,0.0,0.0,0.0,0.0,0.0,0.0,0.0,0.0,0.0,0.0,0.0,0.0,0.0,0.0,0.0,0.0,0.0,0.0,0.0,0.0,0.0,0.0,0.0,0.0,0.0,0.0,0.0,0.0,0.0,0.0,0.0,0.0,0.0,0.0,0.0,0.0,0.0,0.0,0.0,0.0,0.0,0.0,0.0,0.0,0.0,0.0,0.0,0.0,0.0,0.0,0.0,0.0,0.0,0.0,0.0,0.0,0.0,0.0,0.0,0.0,0.0,0.0,0.0,0.0,0.0,0.0,0.0,0.0,0.0,0.0,0.0,0.0,0.0,0.0,0.0,0.0,0.0,0.0,0.0,0.0,0.0,0.0,0.0,0.0,0.0,0.0,0.0,0.0,0.0,0.0,0.0,0.0,0.0,0.0,0.0,0.0,0.0,0.0,0.0,0.0,0.0,0.0,0.0,0.0,0.0,0.0,0.0,0.0,0.0,0.0,0.0,0.0,0.0,0.0,0.0,0.0,0.0,0.0,0.0,0.0,0.0,0.0,0.0,0.0,0.0,0.0,0.0,0.0,0.0,0.0,0.0,0.0,0.0,0.0,0.0,0.0,0.0,0.0,0.0,0.0,0.0,0.0,0.0,0.0,0.0,0.0,0.0,0.0,0.0,0.0,0.0,0.0,0.0,0.0,0.0,0.0,0.0,0.0,0.0,0.0,0.0,0.0,0.0,0.0,0.0,0.0,0.0,0.0,0.0,0.0,0.0,0.0,0.0,0.0,0.0,0.0,0.0,0.0,0.0,0.0,0.0,0.0,0.0,0.0,0.0,0.0,0.0,0.0,0.0,0.0,0.0,0.0,0.0,0.0,0.0,0.0,0.0,0.0,0.0,0.0,0.0,0.0,0.0,0.0,0.0,0.0,0.0,0.0,0.0,0.0,0.0,0.0,0.0,0.0,0.0,0.0,0.0,0.0,0.0,0.0,0.0,0.0,0.0,0.0,0.0,0.0,0.0,0.0,0.0,0.0,0.0,0.0,0.0,0.0,0.0,0.0,0.0,0.0,0.0,0.0,0.0,0.0,0.0,0.0,0.0,0.0,0.0,0.0,0.0,0.0,0.0,0.0,0.0,0.0,0.0,0.0,0.0,0.0,0.0,0.0,0.0,0.0,0.0,0.0,0.0,0.0,0.0,0.0,0.0,0.0,0.0,0.0,0.0,0.0,0.0,0.0,0.0,0.0,0.0,0.0,0.0,0.0,0.0,0.0,0.0,0.0,0.0,0.0,0.0,0.0,0.0,0.0,0.0,0.0,0.0,0.0,0.0,0.0,0.0,0.0,0.0,0.0,0.0,0.0,0.0,0.0,0.0,0.0,0.0,0.0,0.0,0.0,0.0,0.0,0.0,0.0,0.0,0.0,0.0,0.0,0.0,0.0,0.0,0.0,0.0,0.0,0.0,0.0,0.0,0.0,0.0,0.0,0.0,0.0,0.0,0.0,0.0,0.0,0.0,0.0,0.0,0.0,0.0,0.0,0.0,0.0,0.0,0.0,0.0,0.0,0.0,0.0,0.0,0.0,0.0,0.0,0.0,0.0,0.0,0.0,0.0,0.0,0.0,0.0,0.0,0.0,0.0,0.0,0.0,0.0,0.0,0.0,0.0,0.0,0.0,0.0,0.0,0.0,0.0,0.0,0.0,0.0,0.0,0.0,0.0,0.0,0.0,0.0,0.0,0.0,0.0,0.0,0.0,0.0,0.0,0.0,0.0,0.0,0.0,0.0,0.0,0.0,0.0,0.0,0.0,0.0,0.0,0.0,0.0,0.0,0.0,0.0,0.0,0.0,0.0,0.0,0.0,0.0,0.0,0.0,0.0,0.0,0.0,0.0,0.0,0.0,0.0,0.0,0.0,0.0,0.0,0.0,0.0,0.0,0.0,0.0,0.0,0.0,0.0,0.0,0.0,0.0,0.0,0.0,0.0,0.0,0.0,0.0,0.0,0.0,0.0,0.0,0.0,0.0,0.0,0.0,0.0,0.0,0.0,0.0,0.0,0.0,0.0,0.0,0.0,0.0,0.0,0.0,0.0,0.0,0.0,0.0,0.0,0.0,0.0,0.0,0.0,0.0,0.0,0.0,0.0,0.0,0.0,0.0,0.0,0.0,0.0,0.0,0.0,0.0,0.0,0.0,0.0,0.0,0.0,0.0,0.0,0.0,0.0,0.0,0.0,0.0,0.0,0.0,0.0,0.0,0.0,0.0,0.0,0.0,0.0,0.0,0.0,0.0,0.0,0.0,0.0,0.0,0.0,0.0,0.0,0.0,0.0,0.0,0.0,0.0,0.0,0.0,0.0,0.0,0.0,0.0,0.0,0.0,0.0,0.0,0.0,0.0,0.0,0.0,0.0,0.0,0.0,0.0,0.0,0.0,0.0,0.0,0.0,0.0,0.0,0.0,0.0,0.0,0.0,0.0,0.0,0.0,0.0,0.0,0.0,0.0,0.0,0.0,0.0,0.0,0.0,0.0,0.0,0.0,0.0,0.0,0.0,0.0,0.0,0.0,0.0,0.0,0.0,0.0,0.0,0.0,0.0,0.0,0.0,0.0,0.0,0.0,0.0,0.0,0.0,0.0,0.0,0.0,0.0,0.0,0.0,0.0,0.0,0.0,0.0,0.0,0.0,0.0,0.0,0.0,0.0,0.0,0.0,0.0,0.0,0.0,0.0,0.0,0.0,0.0,0.0,0.0,0.0,0.0,0.0,0.0,0.0,0.0,0.0,0.0,0.0,0.0,0.0,0.0,0.0,0.0,0.0,0.0,0.0,-0.5689,-0.5992,0.0,0.0,0.0,0.0,0.0,0.0,0.0,0.0,0.0,0.0,0.0,0.0,0.0,0.0,0.0,0.0,0.0,0.0,0.0,0.0,0.0,0.0,0.0,0.0,0.0,0.0,0.0,0.0,0.0,0.0,0.0,0.0,0.0,0.0,0.0,0.0,0.0,0.0,-0.8061,-0.8719,-0.9157,-0.8675,-0.8719,-0.9157,0.0,0.0,0.0,0.0,0.0,0.0,0.0,0.0,0.0,0.0,0.0,0.0,0.0,0.0,0.0,0.0,0.0,0.0,0.0,0.0,0.0,0.0,0.0,0.0,0.0,0.0,0.0,0.0,0.0,0.0,0.0,0.0,0.0,0.0,0.0,0.0,0.0,0.0,0.0,0.0,0.0,0.0,0.0,0.0,0.0,0.0,0.0,0.0,0.0,0.0,0.0,0.0,0.0,0.0,0.0,0.0,0.0,0.0,0.0,0.0,0.0,0.0,0.0,0.0,0.0,0.0,0.0,0.0,0.0,0.0,-0.5441,-0.5591,0.0,0.0,0.0,0.0,0.0,0.0,0.0,0.0,0.0,0.0,0.0,0.0,0.0,0.0,0.0,0.0,0.0,0.0,0.0,0.0,0.0,0.0,0.0,0.0,0.0,0.0,0.0,0.0,0.0,0.0,0.0,0.0,0.0,0.0,0.0,-0.6877,-0.7404,-0.758,-0.8544,-0.9375,-1.012,-1.012,-1.012,-1.012,-0.999,0.0,0.0,0.0,0.0,0.0,0.0,0.0,0.0,0.0,0.0,0.0,0.0,0.0,0.0,0.0,0.0,0.0,0.0,0.0,0.0,0.0,0.0,0.0,0.0,0.0,0.0,0.0,0.0,0.0,0.0,0.0,0.0,0.0,0.0,0.0,0.0,0.0,0.0,0.0,0.0,0.0,0.0,0.0,0.0,0.0,0.0,0.0,0.0,0.0,0.0,0.0,0.0,0.0,0.0,0.0,0.0,0.0,0.0,0.0,0.0,0.0,0.0,0.0,-0.5486,-0.5486,-0.5486,-0.5486,-0.5336,-0.514,-0.514,-0.514,-0.519,-0.519,0.0,0.0,0.0,0.0,0.0,0.0,0.0,0.0,0.0,0.0,0.0,0.0,0.0,0.0,0.0,0.0,0.0,0.0,0.0,0.0,0.0,0.0,-0.5733,-0.5688,-0.5688,-0.5688,0.0,0.0,0.0,0.0,0.0,0.0,0.0,-0.7841,-0.8719,-0.955,-1.0472,-1.1003,-1.1132,-1.1132,-1.1132,-1.1089,-1.025,-0.9903,-0.9859,0.0,0.0,0.0,0.0,0.0,0.0,0.0,0.0,0.0,0.0,0.0,0.0,0.0,0.0,0.0,0.0,0.0,0.0,0.0,0.0,0.0,0.0,0.0,0.0,0.0,0.0,0.0,0.0,0.0,0.0,0.0,0.0,0.0,0.0,0.0,0.0,0.0,0.0,0.0,0.0,0.0,-0.529,-0.519,0.0,0.0,0.0,0.0,0.0,0.0,0.0,0.0,0.0,0.0,0.0,0.0,0.0,-0.5536,-0.5536,-0.5338,-0.524,-0.524,-0.5037,-0.4885,-0.4885,-0.4885,-0.4885,-0.4834,-0.4834,0.0,-0.519,-0.519,0.0,0.0,0.0,0.0,0.0,0.0,0.0,0.0,0.0,0.0,0.0,0.0,0.0,0.0,0.0,0.0,0.0,0.0,0.0,0.0,0.0,-0.5688,-0.5688,-0.5688,-0.5688,-0.5688,-0.5688,0.0,0.0,0.0,0.0,-0.67,-0.7095,-0.8544,-0.9724,-1.0694,-1.1089,-1.1305,-1.1305,-1.1305,-1.1305,-1.1262,-1.0868,-1.0694,-1.0651,-1.0255,0.0,0.0,0.0,0.0,0.0,0.0,0.0,0.0,0.0,0.0,0.0,0.0,0.0,0.0,0.0,0.0,0.0,0.0,0.0,0.0,0.0,0.0,0.0,0.0,0.0,0.0,0.0,0.0,0.0,0.0,0.0,0.0,0.0,0.0,0.0,0.0,0.0,0.0,0.0,-0.5486,-0.5338,-0.4987,-0.5188,-0.5338,0.0,0.0,0.0,0.0,0.0,0.0,0.0,0.0,0.0,-0.5135,-0.5135,-0.5135,-0.5135,-0.5037,-0.4987,-0.4987,-0.4834,-0.4784,-0.4784,-0.4784,-0.4784,-0.4784,-0.4784,-0.4885,-0.4987,-0.4987,-0.5138,-0.5388,0.0,0.0,0.0,0.0,-0.5586,-0.5586,0.0,0.0,0.0,0.0,0.0,0.0,0.0,0.0,0.0,0.0,0.0,0.0,-0.5688,-0.5688,-0.5688,-0.5688,-0.5688,-0.5822,-0.6041,0.0,0.0,0.0,0.0,-0.7577,-0.7797,-0.9419,-1.0603,-1.1305,-1.1305,-1.1305,-1.1305,-1.1176,-1.1127,-1.1127,-1.0997,-1.1089,-1.1305,-1.1305,-1.1305,-1.1305,0.0,0.0,0.0,0.0,0.0,0.0,0.0,0.0,0.0,0.0,0.0,0.0,0.0,0.0,0.0,0.0,0.0,0.0,0.0,0.0,0.0,0.0,0.0,0.0,0.0,0.0,0.0,0.0,0.0,0.0,0.0,0.0,0.0,0.0,0.0,0.0,0.0,-0.5586,-0.5336,-0.4935,-0.5037,-0.5037,0.0,0.0,0.0,0.0,0.0,0.0,-0.509,-0.4887,-0.4784,-0.4784,-0.4784,-0.4784,-0.4784,-0.4784,-0.4784,-0.4784,-0.4784,-0.4784,-0.4786,-0.4859,-0.4869,-0.4871,-0.4843,-0.4855,-0.4849,-0.4802,-0.4937,-0.509,-0.509,-0.5238,-0.5386,-0.5386,-0.5402,-0.5425,0.0,0.0,0.0,0.0,0.0,0.0,0.0,0.0,0.0,0.0,0.0,-0.5688,-0.5688,-0.5688,-0.5688,-0.5688,-0.5688,-0.6086,-0.6966,-0.701,-0.7448,-0.8324,-0.8412,-0.8851,-0.9724,-1.0738,-1.1262,-1.1305,-1.1305,-1.1305,-1.1305,-1.0862,-1.0636,-1.0636,-1.0255,-1.0521,-1.1305,-1.1305,-1.1305,-1.1305,-1.1305,0.0,0.0,0.0,0.0,0.0,0.0,0.0,0.0,0.0,0.0,0.0,0.0,0.0,0.0,0.0,0.0,0.0,0.0,0.0,0.0,0.0,0.0,0.0,0.0,0.0,0.0,0.0,0.0,0.0,0.0,0.0,0.0,0.0,0.0,0.0,0.0,0.0,0.0,-0.519,-0.4987,0.0,0.0,0.0,0.0,-0.519,-0.4987,-0.4834,-0.4834,-0.4784,-0.4784,-0.4784,-0.4784,-0.4784,-0.4784,-0.4784,-0.4784,-0.4784,-0.4784,-0.4784,-0.4788,-0.4924,-0.4965,-0.4969,-0.5057,-0.5094,-0.5081,-0.4855,-0.4784,-0.4834,-0.4834,-0.4834,-0.4834,-0.4834,-0.494,-0.5017,0.0,0.0,0.0,0.0,0.0,0.0,0.0,0.0,0.0,-0.5688,-0.5688,-0.5688,-0.5688,-0.5688,-0.5688,-0.5688,-0.5688,-0.6086,-0.7051,-0.6523,-0.6877,-0.8456,-0.85,-0.92,-1.0781,-1.1132,-1.1305,-1.1305,-1.1305,-1.1305,-1.1305,-1.0814,-1.0593,-1.0593,-1.0164,-1.0168,-1.0472,-1.0472,-1.0472,-1.0472,-1.0472,-1.0603,0.0,0.0,0.0,0.0,0.0,0.0,0.0,0.0,0.0,0.0,0.0,0.0,0.0,0.0,0.0,0.0,0.0,0.0,0.0,0.0,0.0,0.0,0.0,0.0,0.0,0.0,0.0,0.0,0.0,0.0,0.0,0.0,0.0,0.0,0.0,0.0,0.0,-0.4987,-0.4834,0.0,-0.4937,-0.4834,-0.4834,-0.4937,-0.4834,-0.4784,-0.4784,-0.4784,-0.4861,-0.492,-0.4922,-0.4951,-0.501,-0.501,-0.501,-0.501,-0.501,-0.501,-0.5012,-0.5045,-0.5059,-0.5061,-0.5094,-0.5108,-0.5102,-0.5037,-0.501,-0.501,-0.501,-0.501,-0.501,-0.501,-0.503,-0.5059,0.0,0.0,0.0,0.0,0.0,0.0,0.0,0.0,0.0,-0.5688,-0.5688,-0.5688,-0.5688,-0.5688,-0.5688,-0.5688,-0.5997,-0.6567,-0.7489,-0.7272,-0.7797,-0.9375,-0.9462,-1.0033,-1.1267,-1.1305,-1.1305,-1.1305,-1.1305,-1.1305,-1.1305,-1.0684,-1.0381,-1.0381,-0.9777,-0.9519,-0.9519,-0.9519,-0.9689,-0.9994,-0.9994,-1.0168,-1.0404,0.0,0.0,0.0,0.0,0.0,0.0,0.0,0.0,0.0,0.0,0.0,0.0,0.0,0.0,0.0,0.0,0.0,0.0,0.0,0.0,0.0,0.0,0.0,0.0,0.0,0.0,0.0,0.0,0.0,0.0,0.0,0.0,0.0,0.0,-0.5388,-0.5153,-0.5031,-0.4932,-0.4892,-0.4924,-0.4875,-0.4875,-0.4875,-0.4875,-0.4875,-0.4875,-0.4875,-0.4955,-0.5016,-0.5018,-0.5047,-0.5106,-0.5108,-0.5108,-0.5108,-0.5108,-0.5108,-0.5108,-0.5139,-0.5155,-0.5155,-0.5188,-0.52,-0.52,-0.52,-0.52,-0.5194,-0.5132,-0.5108,-0.5108,-0.5108,-0.5128,-0.5159,0.0,0.0,0.0,0.0,0.0,0.0,0.0,0.0,-0.5688,-0.5688,-0.5688,-0.5688,-0.5688,-0.5688,-0.5688,-0.5688,-0.6523,-0.7445,-0.8412,-0.9288,-1.0212,-1.1176,-1.1219,-1.1267,-1.1305,-1.1305,-1.1305,-1.1305,-1.1305,-1.1305,-1.1262,-1.0391,-0.9994,-0.9951,-0.8999,-0.8612,-0.8612,-0.8612,-0.913,-0.9951,-0.9951,-0.9951,-1.0038,0.0,0.0,0.0,0.0,0.0,0.0,0.0,0.0,0.0,0.0,0.0,0.0,0.0,0.0,0.0,0.0,0.0,0.0,0.0,0.0,0.0,0.0,0.0,0.0,0.0,0.0,0.0,0.0,0.0,0.0,0.0,0.0,0.0,-0.5541,-0.5343,-0.5231,-0.5382,-0.5184,-0.501,-0.51,-0.5108,-0.5108,-0.5108,-0.5108,-0.5108,-0.5108,-0.5108,-0.5108,-0.5112,-0.5112,-0.5114,-0.5116,-0.5116,-0.5116,-0.5116,-0.5116,-0.5116,-0.5065,-0.5154,-0.5194,-0.5144,-0.5343,-0.5382,-0.5382,-0.5382,-0.5382,-0.5363,-0.5186,-0.5116,-0.5116,-0.5116,-0.5173,-0.5207,0.0,0.0,0.0,0.0,0.0,0.0,0.0,-0.5688,-0.5688,-0.5688,-0.5688,-0.5688,-0.5688,-0.5688,-0.5688,-0.5688,-0.5952,-0.6482,-0.7404,-0.7095,-0.758,-0.92,-0.9903,-1.0603,-1.1305,-1.1305,-1.1305,-1.1305,-1.1305,-1.1305,-1.1262,-1.0391,-0.9994,-0.9951,-0.8999,-0.8612,-0.8612,-0.8612,-0.874,-0.9003,-0.9003,-0.9174,-0.9519,0.0,0.0,0.0,0.0,0.0,0.0,0.0,0.0,0.0,0.0,0.0,0.0,0.0,0.0,0.0,0.0,0.0,0.0,0.0,0.0,0.0,0.0,0.0,0.0,0.0,0.0,0.0,0.0,0.0,0.0,0.0,-0.5652,-0.56,-0.5449,-0.5244,-0.5072,-0.5166,-0.5124,-0.5081,-0.5106,-0.5108,-0.5108,-0.5108,-0.5108,-0.5108,-0.5108,-0.5108,-0.5139,-0.515,-0.5152,-0.5239,-0.5306,-0.5306,-0.5306,-0.5306,-0.5306,-0.4862,-0.4029,-0.4941,-0.4895,-0.4114,-0.4977,-0.5382,-0.5382,-0.5382,-0.5382,-0.5375,-0.5326,-0.5306,-0.5306,-0.5306,-0.5322,-0.5347,0.0,0.0,0.0,0.0,0.0,0.0,0.0,-0.5688,-0.5688,-0.5688,-0.5688,-0.5688,-0.5688,-0.5688,-0.5688,-0.5688,-0.6041,-0.6523,-0.7051,-0.6962,-0.736,-0.8456,-0.9419,-1.0168,-1.0694,-1.1089,-1.1305,-1.1305,-1.1305,-1.1305,-1.1262,-1.0391,-0.9994,-0.9951,-0.8999,-0.8432,-0.816,-0.816,-0.794,-0.7676,-0.7676,-0.8025,-0.8552,-0.8412,-0.8277,-0.8181,-0.8352,-0.8173,-0.7815,-0.7815,0.0,0.0,0.0,0.0,0.0,0.0,0.0,0.0,0.0,0.0,0.0,0.0,0.0,0.0,0.0,0.0,0.0,0.0,0.0,0.0,0.0,0.0,0.0,0.0,-0.5807,-0.5775,-0.5709,-0.5317,-0.5063,-0.5155,-0.5165,-0.5179,-0.5218,-0.5222,-0.5222,-0.5222,-0.5222,-0.5222,-0.5222,-0.5222,-0.5247,-0.53,-0.5302,-0.5328,-0.5382,-0.5382,-0.5382,-0.5382,-0.4873,-0.4255,-0.358,-0.3807,-0.3527,-0.291,-0.4142,-0.4648,-0.4704,-0.5212,-0.5382,0.0,0.0,0.0,0.0,0.0,-0.5382,-0.5382,0.0,0.0,0.0,0.0,0.0,0.0,0.0,-0.5644,-0.5688,-0.5688,-0.5688,-0.5688,-0.5688,-0.5688,-0.5688,-0.5688,-0.6482,-0.6962,-0.6962,-0.7709,-0.8237,-0.8324,-0.9157,-0.9641,-0.9724,-1.0559,-1.0997,-1.0997,-1.0997,-1.0954,-1.0911,-1.0081,-0.9685,-0.9641,-0.8732,-0.7984,-0.7356,-0.7356,-0.7003,-0.6384,-0.6299,-0.6738,-0.7353,-0.7126,-0.6993,-0.6946,-0.7379,-0.7464,-0.742,-0.742,0.0,0.0,0.0,0.0,0.0,0.0,0.0,0.0,0.0,0.0,0.0,0.0,0.0,0.0,0.0,0.0,0.0,0.0,0.0,0.0,0.0,0.0,0.0,0.0,-0.6024,-0.5948,-0.6089,-0.556,-0.5223,-0.5249,-0.5259,-0.5292,-0.5373,-0.5382,-0.5382,-0.5382,-0.5382,-0.5382,-0.5382,-0.5382,0.0,0.0,0.0,-0.5437,-0.5437,-0.5437,-0.5326,-0.5212,-0.4142,-0.3469,-0.3188,-0.2239,-0.1735,-0.1679,-0.2854,-0.3469,-0.3692,-0.4761,-0.5268,-0.5382,-0.5382,-0.5382,-0.5382,-0.5382,-0.5382,-0.5382,0.0,0.0,0.0,0.0,0.0,0.0,0.0,-0.5193,-0.5688,-0.5688,-0.5688,-0.5688,-0.5688,-0.5688,-0.5688,-0.5688,-0.5863,-0.5952,-0.5952,-0.613,-0.6567,-0.736,-0.7533,-0.8017,-0.8763,-0.8938,-0.9026,-0.9026,-0.9026,-0.8978,-0.8794,-0.8233,-0.7878,-0.7654,-0.7088,-0.6741,-0.6605,-0.6605,-0.6517,-0.6343,-0.5813,-0.5988,-0.6605,-0.6561,-0.6207,-0.5722,-0.5855,-0.5497,-0.4959,-0.4959,-0.4872,-0.4741,-0.483,-0.472,0.0,0.0,0.0,0.0,0.0,0.0,0.0,0.0,0.0,0.0,0.0,0.0,0.0,0.0,0.0,0.0,0.0,0.0,0.0,-0.621,-0.6308,-0.6278,-0.6108,-0.5838,-0.5662,-0.5682,-0.552,-0.5361,-0.538,-0.5382,-0.5382,-0.5382,-0.5382,-0.5382,-0.5382,-0.5382,-0.5382,-0.5382,-0.5382,-0.5491,-0.5712,-0.5491,-0.5043,-0.4255,0.0,0.0,-0.0728,-0.1456,-0.1288,-0.0392,-0.1623,-0.2686,-0.3636,-0.3861,-0.4536,-0.5382,-0.5382,-0.5382,-0.5382,-0.5382,-0.5382,-0.5382,0.0,0.0,0.0,0.0,0.0,0.0,0.0,-0.5104,-0.5688,-0.5688,-0.5688,-0.5688,-0.5688,-0.5688,-0.5688,-0.5688,-0.5688,-0.5688,-0.5688,-0.5688,-0.5911,-0.6393,-0.6833,-0.7316,-0.7797,-0.8281,-0.85,-0.85,-0.8408,-0.8317,-0.8177,-0.757,-0.7214,-0.7082,-0.6602,-0.621,-0.5902,-0.5902,-0.5769,-0.5502,-0.5193,-0.5238,-0.5547,-0.5411,-0.5144,-0.4835,-0.4835,-0.4612,-0.43,-0.43,-0.43,-0.4308,-0.4353,-0.443,-0.4616,0.0,0.0,0.0,0.0,0.0,0.0,0.0,0.0,0.0,0.0,0.0,0.0,0.0,0.0,-0.6476,-0.6476,0.0,-0.6678,-0.6637,-0.669,-0.6728,-0.6675,-0.6292,-0.5991,-0.5822,-0.5547,-0.5382,-0.5382,-0.5382,-0.5382,-0.5382,-0.5382,-0.5382,-0.5382,-0.5382,-0.5382,-0.5382,-0.5547,-0.5656,-0.5822,-0.5826,-0.5322,-0.4254,-0.3356,-0.1958,-0.0168,-0.0056,0.0336,0.0841,-0.0392,-0.1232,-0.1903,-0.3078,-0.4311,-0.5382,-0.5382,-0.5382,-0.5382,-0.5382,-0.5382,-0.5382,0.0,0.0,0.0,0.0,0.0,0.0,0.0,0.0,0.0,-0.5151,-0.5151,-0.5151,-0.5151,-0.5329,-0.5508,-0.5688,-0.5688,-0.5688,-0.5688,-0.5688,-0.5688,-0.5688,-0.6438,-0.6833,-0.6833,-0.7577,-0.7929,-0.7885,-0.7746,-0.761,-0.7522,-0.6905,-0.6596,-0.6549,-0.616,-0.5677,-0.5193,-0.5238,-0.506,-0.4705,-0.4525,-0.448,-0.4433,-0.3985,-0.403,-0.4253,-0.4074,-0.403,-0.3985,-0.3805,-0.3724,-0.3794,-0.4043,-0.4227,-0.4466,-0.5269,-0.5558,0.0,0.0,0.0,0.0,0.0,0.0,0.0,0.0,-0.6403,-0.6422,-0.6422,-0.657,-0.6654,-0.6654,-0.6755,-0.6869,-0.697,-0.7005,-0.7051,-0.7196,-0.6715,-0.6272,-0.5935,-0.5603,-0.5382,-0.5382,-0.5382,-0.5382,-0.5382,-0.5437,-0.5491,-0.5491,-0.5549,-0.5549,-0.5549,-0.577,-0.5933,-0.5989,-0.5938,-0.5375,-0.4198,-0.2685,-0.1287,-0.0056,0.1177,0.1739,0.1739,0.0505,-0.0112,-0.0504,-0.2686,-0.4311,-0.5382,-0.5382,-0.5382,-0.5382,-0.5382,-0.5382,-0.5382,0.0,0.0,0.0,0.0,0.0,0.0,0.0,0.0,0.0,-0.3226,-0.3226,-0.3226,-0.3226,-0.3941,-0.479,-0.5644,-0.5688,-0.5688,-0.5688,-0.5688,-0.5688,-0.5688,-0.5822,-0.5866,-0.5866,-0.5952,-0.5905,-0.5769,-0.5725,-0.5502,-0.5102,-0.5015,-0.4835,-0.4607,-0.4565,-0.4476,-0.4433,-0.4659,-0.475,-0.4661,-0.3983,-0.3714,-0.3624,-0.2506,-0.2998,-0.421,-0.336,-0.3047,-0.2911,-0.2013,-0.1722,-0.1887,-0.2863,-0.3223,-0.3564,-0.5043,-0.5558,-0.5737,-0.6237,-0.6387,-0.6387,-0.6387,-0.6387,-0.6387,0.0,-0.647,-0.6597,-0.6597,-0.6698,-0.6782,-0.6782,-0.6883,-0.697,-0.6983,-0.7125,-0.7196,-0.721,-0.6879,-0.6548,-0.6272,-0.5772,-0.5382,-0.5382,-0.5382,-0.5382,-0.5382,-0.5601,-0.5766,-0.5766,-0.6049,-0.6219,-0.6219,-0.6219,-0.6383,-0.6601,-0.5318,-0.4198,-0.3244,-0.1736,-0.028,0.1121,0.129,0.1514,0.1739,0.0505,-0.0616,-0.168,-0.3022,-0.4311,-0.5382,-0.5382,-0.5382,-0.5382,-0.5382,-0.5382,-0.5382,0.0,0.0,0.0,0.0,0.0,0.0,0.0,0.0,0.0,0.0,-0.2911,-0.2911,-0.2911,-0.3269,-0.3628,-0.403,-0.4074,-0.4074,-0.4074,-0.4567,-0.4882,-0.4882,-0.5419,-0.5688,-0.5688,-0.5688,-0.5599,-0.5416,-0.5235,-0.5013,-0.4705,-0.4525,-0.4389,-0.43,-0.43,-0.3985,-0.3494,-0.3719,-0.3583,-0.3178,-0.2999,-0.2955,-0.2908,-0.2417,-0.2551,-0.2999,-0.2462,-0.2238,0.0,-0.179,-0.1588,-0.1619,-0.2014,-0.2252,-0.2552,-0.3423,-0.3802,-0.4176,-0.5183,-0.5486,-0.5636,-0.6237,-0.6438,-0.6492,-0.6492,-0.6638,-0.6725,-0.6725,-0.6823,-0.691,-0.691,-0.7005,-0.7139,-0.7139,-0.718,-0.721,-0.721,-0.6935,-0.6659,-0.655,-0.6161,-0.5826,-0.5656,-0.5491,-0.5549,-0.5884,-0.5824,-0.588,-0.6105,-0.6219,-0.6274,-0.6274,-0.6439,-0.6267,-0.5648,-0.526,-0.414,-0.235,-0.1512,-0.0336,0.1065,0.1234,0.1458,0.1795,0.129,0.0336,-0.0784,-0.1288,-0.2239,-0.336,-0.4088,-0.4367,-0.4423,-0.5156,-0.5382,-0.5382,0.0,0.0,0.0,0.0,0.0,0.0,0.0,0.0,0.0,0.0,0.0,0.0,0.0,-0.2465,-0.2598,-0.2867,-0.2911,-0.2911,-0.2911,-0.3537,-0.3896,-0.3896,-0.4567,-0.4879,-0.4832,-0.4832,-0.4699,-0.4385,-0.4204,-0.4026,-0.3807,-0.3582,-0.3491,-0.3491,-0.3491,-0.3178,-0.2597,-0.2822,-0.2643,-0.2193,-0.2194,-0.2195,-0.2151,-0.1836,-0.1612,-0.1478,-0.1478,-0.1483,-0.1445,-0.1219,-0.1057,-0.1036,-0.129,-0.1459,-0.1733,-0.2307,-0.2718,-0.3122,-0.4079,-0.4347,-0.4566,-0.5324,-0.5858,-0.6147,-0.6147,-0.65,-0.6853,-0.6853,-0.6948,-0.7032,-0.7032,-0.7155,-0.721,-0.721,-0.721,-0.721,-0.721,-0.699,-0.6824,-0.6715,-0.655,-0.6328,-0.6044,-0.5826,-0.5828,-0.6274,-0.6158,-0.6158,-0.6383,-0.6495,-0.655,-0.655,-0.6434,-0.5929,-0.5033,-0.4643,-0.3525,-0.1791,-0.1232,-0.0336,0.0785,0.1121,0.1458,0.1683,0.1739,0.1121,0.0,0.0,-0.0728,-0.1903,-0.2742,-0.3078,-0.3245,-0.448,-0.5098,-0.5382,0.0,0.0,0.0,0.0,0.0,0.0,0.0,0.0,0.0,0.0,0.0,0.0,0.0,-0.1436,-0.1838,-0.2823,-0.2911,-0.2911,-0.2911,-0.2913,-0.2957,-0.2957,-0.2957,-0.2864,-0.2591,-0.2591,-0.2369,-0.1924,-0.1879,-0.1745,-0.1522,-0.1477,-0.1477,-0.1477,-0.1477,-0.1611,-0.1835,-0.2059,-0.2283,-0.2418,-0.1704,-0.1436,-0.13,-0.0134,0.0314,0.0224,-0.0493,-0.0727,-0.0601,0.0323,0.0664,0.0539,-0.0587,-0.0893,-0.1108,-0.2416,-0.2971,-0.3173,-0.3224,-0.3266,-0.326,-0.3311,-0.4191,-0.5041,-0.5041,-0.608,-0.698,-0.698,-0.7125,-0.7204,-0.7204,-0.7207,-0.721,-0.721,-0.721,-0.721,-0.721,-0.721,-0.7046,-0.6712,-0.6715,-0.6659,-0.6657,-0.6439,-0.6274,-0.6274,-0.655,-0.6657,-0.6715,-0.699,-0.7154,-0.7154,-0.604,-0.5427,-0.5371,-0.3078,-0.1847,-0.1791,-0.0616,0.0112,0.0449,0.1009,0.129,0.1346,0.1683,0.1121,0.0,0.0,-0.0728,-0.1791,-0.1847,-0.1847,-0.2015,-0.3189,-0.4367,-0.5382,0.0,0.0,0.0,0.0,0.0,0.0,0.0,0.0,0.0,0.0,0.0,0.0,0.0,0.0,0.0,0.0,0.0358,-0.0045,-0.0045,-0.121,-0.1883,-0.1883,-0.2553,-0.2774,-0.2502,-0.2502,-0.228,-0.179,-0.179,-0.1656,-0.1387,-0.1387,-0.1387,-0.1387,-0.1566,-0.1387,-0.0896,-0.1255,-0.1121,-0.0582,-0.0494,-0.0449,-0.0449,0.0,0.0135,0.009,0.0,-0.0136,0.0093,0.0416,0.0523,0.0491,0.0294,0.0099,-0.0152,-0.0768,-0.1019,-0.1217,-0.1922,-0.2134,-0.2286,-0.3045,-0.3574,-0.3945,-0.3945,-0.4382,-0.477,-0.477,-0.479,-0.5033,-0.5871,-0.5984,-0.6262,-0.7043,-0.721,-0.721,-0.721,-0.721,-0.7154,-0.7043,-0.7043,-0.7043,-0.7043,-0.6604,-0.6439,-0.6879,-0.6771,-0.6824,-0.7046,-0.7154,-0.721,-0.721,-0.604,-0.5035,-0.4196,-0.263,-0.14,-0.0616,0.0,0.0336,0.0393,0.0841,0.1009,0.1065,0.1177,0.0953,0.0617,0.0785,0.0617,0.0224,-0.0392,-0.0616,-0.0728,-0.1959,-0.2687,-0.3248,0.0,0.0,0.0,0.0,0.0,0.0,0.0,0.0,0.0,0.0,0.0,0.0,0.0,0.0,0.0,0.0,0.0,0.1928,0.1928,0.0806,0.0134,0.0134,-0.0806,-0.1253,-0.0983,-0.1207,-0.1163,-0.0761,-0.0672,-0.0582,-0.0403,-0.0403,-0.0403,-0.0403,-0.0672,-0.0493,-0.0045,-0.0403,-0.0224,0.0269,0.0449,0.0494,0.0539,0.0898,0.1032,0.0,0.1085,0.0919,0.0701,0.0374,0.024,0.0298,0.0446,0.04,0.0202,0.0051,0.0,-0.0154,-0.0839,-0.1004,-0.1219,-0.1873,-0.2446,-0.2807,-0.2807,-0.3219,-0.358,-0.358,-0.358,-0.386,-0.4587,-0.5091,-0.565,-0.6429,-0.6932,-0.721,-0.721,-0.721,-0.721,-0.721,-0.721,-0.721,-0.721,-0.6826,-0.6771,-0.7154,-0.699,-0.699,-0.721,-0.721,-0.6988,-0.6596,-0.5369,-0.4196,-0.2966,-0.1735,-0.0784,0.0,0.0168,0.028,0.028,0.0561,0.0729,0.0729,0.0841,0.0897,0.0897,0.1065,0.1177,0.1121,0.0673,0.0449,0.0336,-0.0728,-0.1176,-0.1456,0.0,0.0,0.0,0.0,0.0,0.0,0.0,0.0,0.0,0.0,0.0,0.0,0.0,0.0,0.0,0.0,0.0,0.0,0.2956,0.2913,0.2911,0.2911,0.2017,0.1613,0.1879,0.121,0.0986,0.1256,0.1435,0.1524,0.1524,0.1524,0.1524,0.1524,0.13,0.1076,0.0807,0.0628,0.0359,0.0225,0.1122,0.148,0.1569,0.2553,0.2911,0.292,0.2976,0.2337,0.1332,0.0382,0.0049,0.0,0.0,0.0,0.0,0.0,0.0,0.0,0.0,0.0,0.0,0.0,-0.0887,-0.1736,-0.1736,-0.2574,-0.3413,-0.3413,-0.3413,-0.3413,-0.3469,-0.4475,-0.5316,-0.5371,-0.6429,-0.721,-0.721,-0.721,-0.721,-0.721,-0.721,-0.721,-0.721,-0.721,-0.721,-0.721,-0.721,-0.721,-0.721,-0.7154,-0.6596,-0.5427,-0.4196,-0.2966,-0.1791,-0.0616,0.0,0.0,0.0,0.0,0.0,0.028,0.0393,0.0393,0.0729,0.0841,0.0841,0.0841,0.0897,0.0897,0.1177,0.129,0.1177,0.0393,0.0056,-0.0112,0.0,0.0,0.0,0.0,0.0,0.0,0.0,0.0,0.0,0.0,0.0,0.0,0.0,0.0,0.0,0.0,0.0,0.0,0.3941,0.3269,0.2911,0.2911,0.282,0.2862,0.3132,0.2953,0.2953,0.3178,0.3089,0.3133,0.3267,0.3267,0.3267,0.3267,0.3042,0.2819,0.255,0.2329,0.224,0.2196,0.2419,0.251,0.2553,0.2823,0.2911,0.292,0.2976,0.2804,0.2429,0.15,0.0643,0.0,0.0,0.0,0.0,0.0,0.0,0.0,0.0,0.0,0.0,0.0,-0.0224,-0.0448,-0.0448,-0.0672,-0.0896,-0.0896,-0.0896,-0.1176,-0.2071,-0.3245,-0.4364,-0.526,-0.6429,-0.721,-0.721,-0.721,-0.721,-0.721,-0.721,-0.721,-0.721,-0.721,-0.721,-0.721,-0.721,-0.721,-0.721,-0.6374,-0.5706,-0.5427,-0.3357,-0.2127,-0.1791,-0.0616,0.0,0.0,0.0,0.0,0.0,0.0056,0.0112,0.0112,0.0168,0.0224,0.0224,0.0449,0.0505,0.0561,0.0897,0.1009,0.1009,0.0953,0.0953,0.0953,0.0,0.0,0.0,0.0,0.0,0.0,0.0,0.0,0.0,0.0,0.0,0.0,0.0,0.0,0.0,0.0,0.0,0.0,0.0,0.4433,0.4119,0.4119,0.3848,0.3803,0.4069,0.3757,0.3712,0.389,0.389,0.389,0.3894,0.3894,0.3848,0.3758,0.3534,0.3353,0.3173,0.2999,0.2911,0.0,0.0,0.3494,0.3539,0.3985,0.4119,0.4135,0.4302,0.4095,0.3566,0.2075,0.09,0.0,0.0,0.0,0.0,0.0,0.0,0.0,0.0,0.0,0.0,0.0,0.0,0.0,0.0,0.0,0.0,0.0,0.0,-0.0224,-0.0896,-0.2015,-0.3022,-0.3692,-0.4808,-0.5646,-0.5646,-0.5646,-0.5646,-0.5646,-0.5646,-0.5646,-0.5646,-0.5646,-0.5646,-0.5646,-0.6594,-0.6988,-0.6429,-0.5761,-0.4923,-0.386,-0.2519,-0.1567,-0.1008,-0.0336,0.0,0.0,0.0,0.0,0.0,0.0,0.0,0.0,0.0,0.0,0.0,0.0168,0.0224,0.028,0.0561,0.0673,0.0729,0.1009,0.1177,0.1346,0.0,0.0,0.0,0.0,0.0,0.0,0.0,0.0,0.0,0.0,0.0,0.0,0.0,0.0,0.0,0.0,0.0,0.0,0.0,0.0,0.0,0.5688,0.4971,0.4654,0.4872,0.4247,0.4022,0.4241,0.4421,0.4469,0.4295,0.4295,0.4204,0.4024,0.3755,0.3621,0.3576,0.3358,0.3269,0.336,0.4164,0.4478,0.4567,0.0,0.0,0.5742,0.6026,0.5569,0.4533,0.267,0.121,0.0202,0.0051,0.0,0.0,0.0,0.0,0.0,0.0,0.0,0.0,0.0,0.0,0.0,0.0,0.0,0.0,0.0,0.0,0.0,0.0,-0.1009,-0.1791,-0.1791,-0.2797,-0.358,-0.358,-0.358,-0.358,-0.358,-0.358,-0.358,-0.358,-0.358,-0.358,-0.358,-0.5534,-0.626,-0.5202,-0.5035,-0.3916,-0.1623,-0.1567,-0.1064,0.0,0.0,0.0,0.0,0.0,0.0,0.0,0.0,0.0,0.0,0.0,0.0,0.0,0.0,0.0,0.0,0.028,0.0336,0.0393,0.0729,0.1009,0.1234,0.0,0.0,0.0,0.0,0.0,0.0,0.0,0.0,0.0,0.0,0.5463,0.5688,0.0,0.0,0.0,0.0,0.0,0.0,0.0,0.0,0.0,0.0,0.5774,0.5813,0.5858,0.5725,0.5766,0.5983,0.5855,0.5947,0.6302,0.6302,0.6257,0.6213,0.5985,0.5764,0.5589,0.5327,0.5193,0.524,0.5374,0.5466,0.5466,0.5644,0.0,0.0,0.6149,0.5635,0.4734,0.4381,0.2922,0.116,0.0303,0.0,0.0,0.0,0.0,0.0,0.0,0.0,0.0,0.0,0.0,0.0,0.0,0.0,0.0,0.0,0.0,0.0,0.0,-0.1009,-0.1791,-0.1791,-0.2797,-0.358,-0.358,-0.358,-0.358,-0.358,-0.358,-0.358,-0.358,-0.358,-0.358,-0.358,-0.3971,-0.4139,-0.3916,-0.2966,-0.1791,-0.0336,-0.0336,-0.0224,0.0,0.0,0.0,0.0,0.0,0.0,0.0,0.0,0.0,0.0,0.0,0.0,0.0,0.0,0.0,0.0,0.0056,0.0056,0.0112,0.0393,0.0673,0.1009,0.0,0.0,0.0,0.0,0.0,0.0,0.0,0.3989,0.4342,0.461,0.5057,0.5416,0.5688,0.5688,0.0,0.0,0.0,0.0,0.0,0.0,0.0,0.0,0.0,0.0,0.6083,0.6083,0.6213,0.6384,0.0,0.6302,0.6438,0.6438,0.6352,0.6219,0.6083,0.5994,0.5863,0.5733,0.5688,0.5688,0.5688,0.5688,0.5688,0.0,0.0,0.0,0.6251,0.5997,0.5536,0.4985,0.413,0.3073,0.2016,0.1735,0.1663,0.1007,0.0863,0.0823,0.0167,0.0,0.0,0.0,0.0,0.0,0.0,0.0,0.0,0.0,0.0,0.0,0.0,-0.0448,-0.084,-0.084,-0.1344,-0.1735,-0.1735,-0.1735,-0.1735,-0.1735,-0.1735,-0.1735,-0.1735,-0.1735,-0.1735,-0.1735,-0.1735,-0.2015,-0.2629,-0.1512,-0.0616,0.0,0.0,0.0,0.0,0.0,0.0,0.0,0.0,0.0,0.0,0.0,0.0,0.0,0.0,0.0,0.0,0.0,0.0,0.0,0.0,0.0,0.0,0.0168,0.0505,0.0897,0.0,0.0,0.0,0.0,0.0,0.0,0.0,0.3542,0.3721,0.4121,0.4565,0.5013,0.5374,0.5599,0.5688,0.0,0.0,0.0,0.0,0.0,0.0,0.0,0.0,0.0,0.5994,0.0,0.0,0.6343,0.6343,0.0,0.0,0.0,0.0,0.0,0.5819,0.5777,0.5777,0.5733,0.5688,0.0,0.0,0.5688,0.5694,0.0,0.0,0.0,0.0,0.6361,0.6287,0.5434,0.5135,0.4987,0.4198,0.3692,0.3235,0.2289,0.2112,0.1926,0.0726,0.0392,0.0336,0.0056,0.0,0.0,0.0,0.0,0.0,0.0,0.0,0.0,0.0,0.0,0.0,0.0,0.0,0.0,0.0,0.0,0.0,0.0,0.0,0.0,0.0,0.0,0.0,0.0,0.0,-0.0392,-0.1344,-0.0504,0.0,0.0,0.0,0.0,0.0,0.0,0.0,0.0,0.0,0.0,0.0,0.0,0.0,0.0,0.0,0.0,0.0,0.0,0.0,0.0,0.0,0.0,0.0,0.0,0.0393,0.0897,0.0,0.0,0.0,0.0,0.0,0.0,0.0,0.332,0.3631,0.3676,0.4076,0.4389,0.4433,0.5196,0.5688,0.0,0.0,0.0,0.0,0.0,0.0,0.0,0.0,0.0,0.0,0.0,0.0,0.6127,0.6127,0.0,0.0,0.0,0.0,0.0,0.0,0.6083,0.6038,0.5819,0.0,0.0,0.0,0.0,0.0,0.0,0.0,0.0,0.0,0.6379,0.6387,0.6284,0.6237,0.6255,0.6261,0.496,0.3402,0.3409,0.3415,0.3182,0.1958,0.1623,0.1344,0.028,0.0,0.0,0.0,0.0,0.0,0.0,0.0,0.0,0.0,0.0,0.0,0.0,0.0,0.0,0.0,0.0,0.0,0.0,0.0,0.0,0.0,0.0,0.0,0.0,0.0,-0.0056,-0.0168,-0.0056,0.0,0.0,0.0,0.0,0.0,0.0,0.0,0.0,0.0,0.0,0.0,0.0,0.0,0.0,0.0,0.0,0.0,0.0,0.0,0.0,0.0,0.0,0.0,0.0,0.0393,0.0897,0.0,0.0,0.0,0.0,0.0,0.0,0.291,0.3053,0.3187,0.3187,0.3587,0.39,0.39,0.448,0.4968,0.0,0.0,0.0,0.0,0.0,0.0,0.0,0.0,0.0,0.0,0.0,0.5733,0.5863,0.5863,0.0,0.0,0.0,0.0,0.0,0.0,0.5863,0.5863,0.5733,0.0,0.0,0.0,0.0,0.0,0.0,0.0,0.0,0.0,0.0,0.6387,0.6387,0.6387,0.6408,0.6581,0.6071,0.5329,0.4719,0.4636,0.425,0.2351,0.1791,0.1512,0.028,0.0,0.0,0.0,0.0,0.0,0.0,0.0,0.0,0.0,0.0,0.0,0.0,0.0,0.0,0.0,0.0,0.0,0.0,0.0,0.0,0.0,0.0,0.0,0.0,0.0,0.0,0.0,0.0,0.0,0.0,0.0,0.0,0.0,0.0,0.0,0.0,0.0,0.0,0.0,0.0,0.0,0.0,0.0,0.0,0.0,0.0,0.0,0.0,0.0,0.0,0.0,0.0,0.0393,0.0897,0.0,0.0,0.0,0.0,0.0,0.274,0.2862,0.292,0.292,0.292,0.3187,0.3409,0.3409,0.381,0.421,0.4565,0.0,0.0,0.0,0.0,0.0,0.0,0.0,0.0,0.0,0.0,0.5688,0.5688,0.5688,0.5688,0.0,0.0,0.5688,0.5688,0.0,0.0,0.0,0.0,0.0,0.0,0.0,0.0,0.0,0.0,0.0,0.0,0.0,0.0,0.0,0.0,0.0,0.6408,0.6581,0.6679,0.6619,0.5906,0.585,0.5423,0.2965,0.2351,0.1959,0.0392,0.0,0.0,0.0,0.0,0.0,0.0,0.0,0.0,0.0,0.0,0.0,0.0,0.0,0.0,0.0,0.0,0.0,0.0,0.0,0.0,0.0,0.0,0.0,0.0,0.0,0.0,0.0,0.0,0.0,0.0,0.0,0.0,0.0,0.0,0.0,0.0,0.0,0.0,0.0,0.0,0.0,0.0,0.0,0.0,0.0,0.0,0.0,0.0,0.0,0.0,0.0,0.0,0.0393,0.0897,0.0,0.0,0.0,0.0,0.0,0.0,0.2856,0.292,0.292,0.292,0.292,0.292,0.292,0.332,0.3587,0.3631,0.0,0.0,0.0,0.0,0.0,0.0,0.0,0.0,0.0,0.0,0.5688,0.5688,0.5688,0.5688,0.5688,0.5688,0.5688,0.5688,0.0,0.0,0.0,0.0,0.0,0.0,0.0,0.0,0.0,0.0,0.0,0.0,0.0,0.0,0.0,0.0,0.0,0.0,0.0,0.6622,0.6668,0.6912,0.7065,0.6652,0.425,0.358,0.3021,0.0616,0.0,0.0,0.0,0.0,0.0,0.0,0.0,0.0,0.0,0.0,0.0,0.0,0.0,0.0,0.0,0.0,0.0,0.0,0.0,0.0,0.0,0.0,0.0,0.0,0.0,0.0,0.0,0.0,0.0,0.0,0.0,0.0,0.0,0.0,0.0,0.0,0.0,0.0,0.0,0.0,0.0,0.0,0.0,0.0,0.0,0.0,0.0,0.0,0.0,0.0,0.0,0.0,0.0393,0.0897,0.0,0.0,0.0,0.0,0.0,0.0,0.0,0.292,0.292,0.292,0.292,0.292,0.292,0.3053,0.3142,0.3142,0.0,0.0,0.0,0.0,0.0,0.0,0.0,0.0,0.0,0.0,0.5688,0.5688,0.5688,0.5688,0.5688,0.5688,0.5688,0.5688,0.5688,0.5688,0.0,0.0,0.0,0.0,0.0,0.0,0.5809,0.0,0.0,0.0,0.0,0.0,0.0,0.0,0.0,0.0,0.0,0.0,0.0,0.6711,0.688,0.6725,0.5242,0.4252,0.3245,0.1623,0.0616,0.0,0.0,0.0,0.0,0.0,0.0,0.0,0.0,0.0,0.0,0.0,0.0,0.0,0.0,0.0,0.0,0.0,0.0,0.0,0.0,0.0,0.0,0.0,0.0,0.0,0.0,0.0,0.0,0.0,0.0,0.0,0.0,0.0,0.0,0.0,0.0,0.0,0.0,0.0,0.0,0.0,0.0,0.0,0.0,0.0,0.0,0.0,0.0,0.0,0.0,0.0,0.0393,0.0897,0.0,0.0,0.0,0.0,0.0,0.0,0.0,0.2649,0.2649,0.2739,0.2739,0.2784,0.2875,0.292,0.292,0.292,0.0,0.0,0.0,0.0,0.0,0.0,0.0,0.0,0.0,0.5599,0.5688,0.5688,0.5688,0.5688,0.5688,0.5688,0.5688,0.5688,0.5688,0.5688,0.0,0.0,0.0,0.0,0.0,0.0,0.5817,0.0,0.0,0.0,0.0,0.0,0.0,0.0,0.0,0.0,0.0,0.0,0.0,0.0,0.6728,0.6615,0.5617,0.4788,0.386,0.2239,0.1232,0.056,0.0112,0.0,0.0,0.0,0.0,0.0,0.0,0.0,0.0,0.0,0.0,0.0,0.0,0.0,0.0,0.0,0.0,0.0,0.0,0.0,0.0,0.0,0.0,0.0,0.0,0.0,0.0,0.0,0.0,0.0,0.0,0.0,0.0,0.0,0.0,0.0,0.0,0.0,0.0,0.0,0.0,0.0,0.0,0.0,0.0,0.0,0.0,0.0,0.0,0.0112,0.0449,0.0897,0.0,0.0,0.0,0.0,0.0,0.0,0.0,0.0,0.2289,0.2469,0.2469,0.2558,0.2829,0.2873,0.2873,0.2873,0.0,0.0,0.0,0.0,0.0,0.0,0.0,0.0,0.0,0.5416,0.5688,0.5688,0.5688,0.5688,0.5688,0.5688,0.5688,0.5688,0.5688,0.5688,0.0,0.0,0.0,0.0,0.0,0.0,0.0,0.0,0.0,0.0,0.0,0.0,0.0,0.0,0.0,0.0,0.0,0.0,0.0,0.0,0.0,0.0,0.0,0.5347,0.4803,0.2518,0.1847,0.1512,0.028,0.0,0.0,0.0,0.0,0.0,0.0,0.0,0.0,0.0,0.0,0.0,0.0,0.0,0.0,0.0,0.0,0.0,0.0,0.0,0.0,0.0,0.0,0.0,0.0,0.0,0.0,0.0,0.0,0.0,0.0,0.0,0.0,0.0,0.0,0.0,0.0,0.0,0.0,0.0,0.0,0.0,0.0,0.0,0.0,0.0,0.0,0.0056,0.0056,0.0336,0.0617,0.0953,0.0,0.0,0.0,0.0,0.0,0.0,0.0,0.0,0.0,0.0,0.2289,0.2289,0.2379,0.2513,0.2604,0.0,0.0,0.0,0.0,0.0,0.0,0.0,0.0,0.0,0.0,0.5099,0.5327,0.5688,0.5688,0.5688,0.5688,0.5688,0.5688,0.5688,0.5688,0.5688,0.0,0.0,0.0,0.0,0.0,0.0,0.0,0.0,0.0,0.0,0.6361,0.6387,0.0,0.0,0.0,0.0,0.0,0.0,0.0,0.0,0.6495,0.6548,0.6431,0.0,0.4898,0.3513,0.2463,0.1512,0.0,0.0,0.0,0.0,0.0,0.0,0.0,0.0,0.0,0.0,0.0,0.0,0.0,0.0,0.0,0.0,0.0,0.0,0.0,0.0,0.0,0.0,0.0,0.0,0.0,0.0,0.0,0.0,0.0,0.0,0.0,0.0,0.0,0.0,0.0,0.0,0.0,0.0,0.0,0.0,0.0,0.0,0.0,0.0,0.0,0.0,0.0224,0.028,0.0336,0.0673,0.0953,0.1234,0.0,0.0,0.0,0.0,0.0,0.0,0.0,0.0,0.0,0.0,0.0,0.0,0.0,0.0,0.0,0.0,0.0,0.0,0.0,0.0,0.0,0.0,0.0,0.0,0.4342,0.4565,0.479,0.506,0.5282,0.5371,0.5371,0.5599,0.5688,0.5688,0.5688,0.5688,0.0,0.0,0.0,0.0,0.5688,0.0,0.0,0.0,0.0,0.0,0.6293,0.6393,0.0,0.6387,0.6387,0.6387,0.0,0.0,0.0,0.0,0.6433,0.6562,0.6684,0.6366,0.5641,0.401,0.3134,0.2183,0.0392,0.0,0.0,0.0,0.0,0.0,0.0,0.0,0.0,0.0,0.0,0.0,0.0,0.0,0.0,0.0,0.0,0.0,0.0,0.0,0.0,0.0,0.0,0.0,0.0,0.0,0.0,0.0,0.0,0.0,0.0,0.0,0.0,0.0,0.0,0.0,0.0,0.0,0.0,0.0,0.0,0.0,0.0,0.0112,0.0168,0.0224,0.0505,0.0617,0.0673,0.0953,0.1177,0.1402,0.0,0.0,0.0,0.0,0.0,0.0,0.0,0.0,0.0,0.0,0.0,0.0,0.0,0.0,0.0,0.0,0.0,0.0,0.0,0.0,0.0,0.0,0.0,0.3542,0.3587,0.3987,0.421,0.43,0.4699,0.4877,0.4921,0.5285,0.5466,0.5466,0.5466,0.5466,0.0,0.0,0.0,0.0,0.5597,0.0,0.0,0.0,0.0,0.0,0.0,0.0,0.0,0.6387,0.6387,0.6387,0.6387,0.0,0.0,0.0,0.0,0.0,0.6328,0.6413,0.6002,0.405,0.3462,0.2742,0.0504,0.0,0.0,0.0,0.0,0.0,0.0,0.0,0.0,0.0,0.0,0.0,0.0,0.0,0.0,0.0,0.0,0.0,0.0,0.0,0.0,0.0,0.0,0.0,0.0,0.0,0.0,0.0,0.0,0.0,0.0,0.0,0.0,0.0,0.0,0.0,0.0,0.0,0.0,0.0,0.0056,0.0,0.0056,0.0336,0.0449,0.0505,0.0841,0.0953,0.1009,0.1458,0.1626,0.1849,0.0,0.0,0.0,0.0,0.0,0.0,0.0,0.0,0.0,0.0,0.0,0.0,0.0,0.0,0.0,0.0,0.0,0.0,0.0,0.0,0.0,0.0,0.2829,0.3187,0.3587,0.3676,0.39,0.43,0.4389,0.4387,0.4387,0.4478,0.4523,0.4523,0.4523,0.4523,0.4523,0.0,0.0,0.0,0.5099,0.0,0.0,0.0,0.0,0.0,0.0,0.0,0.0,0.6387,0.6387,0.6387,0.6387,0.0,0.0,0.0,0.0,0.0,0.5195,0.4618,0.3856,0.3542,0.2768,0.1735,0.0336,0.0,0.0,0.0,0.0,0.0,0.0,0.0,0.0,0.0,0.0,0.0,0.0,0.0,0.0,0.0,0.0,0.0,0.0,0.0,0.0,0.0,0.0,0.0,0.0,0.0,0.0,0.0,0.0,0.0,0.0,0.0,0.0,0.0,0.0,0.0,0.0,0.0,0.0,0.0,0.0,0.0336,0.0336,0.0673,0.0841,0.0841,0.1121,0.1234,0.1402,0.2743,0.3245,0.3413,0.0,0.0,0.0,0.0,0.0,0.0,0.0,0.0,0.0,0.0,0.0,0.0,0.0,0.0,0.0,0.0,0.0,0.0,0.0,0.0,0.0,0.2513,0.2604,0.2873,0.323,0.323,0.332,0.3544,0.381,0.3942,0.3942,0.4166,0.43,0.43,0.43,0.43,0.43,0.43,0.4431,0.4654,0.0,0.0,0.0,0.0,0.0,0.0,0.0,0.0,0.0,0.0,0.6387,0.6287,0.5737,0.0,0.0,0.0,0.0,0.0,0.4018,0.3226,0.2451,0.2418,0.2087,0.1512,0.028,0.0,0.0,0.0,0.0,0.0,0.0,0.0,0.0,0.0,0.0,0.0,0.0,0.0,0.0,0.0,0.0,0.0,0.0,0.0,0.0,0.0,0.0,0.0,0.0,0.0,0.0,0.0,0.0,0.0,0.0,0.0,0.0,0.0,0.0168,0.0224,0.0224,0.0393,0.0505,0.0505,0.0,0.0673,0.0673,0.1009,0.1121,0.1234,0.2185,0.252,0.2687,0.4081,0.4973,0.5588,0.0,0.0,0.0,0.0,0.0,0.0,0.0,0.0,0.0,0.0,0.0,0.0,0.0,0.0,0.0,0.0,0.0,0.0,0.0,0.0,0.2199,0.2424,0.2469,0.2604,0.2875,0.292,0.292,0.292,0.3275,0.3454,0.3454,0.381,0.3987,0.3987,0.3987,0.3987,0.3987,0.3987,0.4032,0.4166,0.0,0.0,0.0,0.0,0.0,0.0,0.0,0.0,0.0,0.0,0.0,0.0,0.0,0.0,0.0,0.3425,0.3022,0.2821,0.2821,0.2019,0.1225,0.1225,0.1311,0.112,0.0224,0.0,0.0,0.0,0.0,0.0,0.0,0.0,0.0,0.0,0.0,0.0,0.0,0.0056,0.0056,0.0,0.0112,0.0168,0.0112,0.0168,0.0224,0.0224,0.0224,0.0224,0.0224,0.0224,0.0224,0.0224,0.0224,0.0224,0.0224,0.0224,0.0168,0.0112,0.028,0.0449,0.0505,0.0785,0.0897,0.0897,0.0953,0.1009,0.1065,0.1625,0.1849,0.1961,0.3469,0.4193,0.4529,0.5475,0.6533,0.7543,0.0,0.0,0.0,0.0,0.0,0.0,0.0,0.0,0.0,0.0,0.0,0.0,0.0,0.0,0.0,0.0,0.0,0.0,0.0,0.0,0.193,0.2199,0.2379,0.2604,0.2875,0.292,0.292,0.292,0.292,0.2963,0.2963,0.2963,0.3008,0.3008,0.3008,0.3008,0.3008,0.3008,0.323,0.3631,0.3676,0.0,0.0,0.0,0.0,0.0,0.0,0.0,0.0,0.0,0.0,0.0,0.0,0.0,0.3324,0.3224,0.2519,0.1714,0.1714,0.0933,0.0107,0.0107,0.0109,0.0112,0.0,0.0,0.0,0.0,0.0,0.0,0.0,0.0,0.0,0.0,0.0,0.0,0.0,0.0224,0.028,0.0056,0.0505,0.0729,0.0393,0.0673,0.0841,0.0841,0.0841,0.0841,0.0841,0.0841,0.0841,0.0841,0.0841,0.0841,0.0841,0.0841,0.0673,0.0393,0.0393,0.0561,0.0841,0.0897,0.0897,0.0897,0.1177,0.129,0.1402,0.2855,0.3413,0.358,0.4804,0.5922,0.6874,0.693,0.7709,0.8771,0.0,0.0,0.0,0.0,0.0,0.0,0.0,0.0,0.0,0.0,0.0,0.0,0.0,0.0,0.0,0.0,0.0,0.0,0.0,0.0,0.1749,0.2199,0.2289,0.2513,0.2875,0.292,0.292,0.292,0.292,0.292,0.292,0.292,0.292,0.292,0.292,0.292,0.292,0.292,0.3008,0.3187,0.3499,0.3987,0.0,0.0,0.0,0.0,0.0,0.0,0.0,0.0,0.4338,0.3626,0.2519,0.2217,0.2066,0.1412,0.0908,0.0606,0.0606,0.0311,0.0,0.0,0.0,0.0,0.0,0.0,0.0,0.0,0.0,0.0,0.0,0.0112,0.0168,0.0,0.0336,0.0505,0.028,0.0505,0.0673,0.0561,0.0785,0.0841,0.0729,0.0841,0.0897,0.0897,0.0897,0.0897,0.0897,0.0897,0.0897,0.0897,0.0897,0.0897,0.0897,0.1624,0.2015,0.2071,0.1345,0.1401,0.2295,0.2464,0.2965,0.3689,0.3801,0.3857,0.3913,0.447,0.4693,0.486,0.5977,0.7204,0.8214,0.8214,0.8491,0.8885,0.0,0.0,0.0,0.0,0.0,0.0,0.0,0.0,0.0,0.0,0.0,0.0,0.0,0.0,0.0,0.0,0.0,0.0,0.1391,0.1391,0.166,0.2199,0.2199,0.2424,0.2875,0.292,0.292,0.292,0.292,0.292,0.292,0.292,0.292,0.292,0.292,0.292,0.292,0.292,0.292,0.2963,0.3409,0.39,0.0,0.0,0.0,0.0,0.0,0.0,0.0,0.0,0.3519,0.2519,0.1412,0.111,0.0958,0.0202,0.0,0.0,0.0,0.0,0.0,0.0,0.0,0.0,0.0,0.0,0.0,0.0,0.0,0.0,0.0112,0.028,0.0393,0.028,0.0617,0.0953,0.112,0.1401,0.1569,0.1457,0.196,0.196,0.1121,0.1457,0.1737,0.1737,0.1737,0.1737,0.1737,0.2128,0.2127,0.1737,0.2128,0.2295,0.2295,0.313,0.3632,0.3801,0.2965,0.3022,0.3857,0.4081,0.4637,0.5417,0.5417,0.5417,0.5417,0.5808,0.6142,0.6589,0.7374,0.8156,0.8885,0.8885,0.8885,0.8885,0.0,0.0,0.0,0.0,0.0,0.0,0.0,0.0,0.0,0.0,0.0,0.0,0.0,0.0,0.0,0.0,0.0,0.0,0.139,0.139,0.1659,0.2199,0.2199,0.2424,0.2875,0.292,0.292,0.292,0.292,0.292,0.292,0.292,0.292,0.292,0.292,0.292,0.292,0.292,0.292,0.2963,0.3409,0.39,0.4342,0.0,0.0,0.0,0.0,0.0,0.0,0.0,0.238,0.1412,0.0353,0.0,0.0,0.0,0.0,0.0,0.0,0.0,0.0,0.0,0.0,0.0,0.0,0.0,0.0,0.0,0.0,0.0112,0.0336,0.0393,0.0505,0.0841,0.0897,0.1345,0.2573,0.2964,0.3019,0.2739,0.4301,0.4303,0.1625,0.2743,0.3636,0.3636,0.3636,0.3636,0.3636,0.4749,0.486,0.3636,0.4804,0.5417,0.5417,0.5417,0.5417,0.5417,0.5417,0.5417,0.5417,0.5417,0.5417,0.5417,0.5417,0.5417,0.5528,0.6649,0.7823,0.8885,0.8885,0.8885,0.8885,0.8885,0.8885,0.8885,0.0,0.0,0.0,0.0,0.0,0.0,0.0,0.0,0.0,0.0,0.0,0.0,0.0,0.0,0.0,0.0,0.0,0.0,0.1331,0.1393,0.1623,0.2107,0.2181,0.2424,0.2875,0.292,0.292,0.292,0.292,0.292,0.292,0.292,0.292,0.292,0.292,0.292,0.292,0.292,0.3097,0.3409,0.3544,0.4076,0.4788,0.0,0.0,0.0,0.0,0.0,0.0,0.0,0.0,0.0,0.0101,0.0,0.0,0.0,0.0,0.0,0.0,0.0,0.0,0.0,0.0,0.0,0.0,0.0,0.0056,0.0224,0.028,0.0393,0.0673,0.0897,0.1289,0.207,0.2519,0.3132,0.4132,0.4522,0.4691,0.4636,0.5081,0.5083,0.4247,0.4582,0.486,0.486,0.486,0.486,0.486,0.5194,0.525,0.486,0.5194,0.5417,0.5417,0.62,0.6591,0.6591,0.7482,0.7429,0.6591,0.6591,0.7038,0.7873,0.7873,0.7873,0.7875,0.8211,0.8605,0.8885,0.8885,0.8885,0.8885,0.8885,0.8885,0.8885,0.0,0.0,0.0,0.0,0.0,0.0,0.0,0.0,0.0,0.0,0.0,0.0,0.0,0.0,0.0,0.0,0.0,0.0,0.0,0.1321,0.1593,0.2085,0.2156,0.2403,0.2873,0.292,0.292,0.292,0.292,0.292,0.292,0.292,0.292,0.292,0.292,0.292,0.292,0.3097,0.332,0.3631,0.3987,0.4253,0.4472,0.0,0.0,0.0,0.0,0.0,0.0,0.0,0.0,0.0,0.0,0.0,0.0,0.0,0.0,0.0,0.0,0.0,0.0,0.0,0.0,0.0,0.0112,0.0168,0.0224,0.0393,0.0505,0.0673,0.1009,0.1569,0.224,0.2964,0.3745,0.4637,0.5639,0.5975,0.6089,0.6089,0.6478,0.642,0.5472,0.5808,0.6089,0.6089,0.6089,0.6089,0.6089,0.6533,0.6589,0.6089,0.6533,0.6811,0.6811,0.7485,0.7823,0.7823,0.8549,0.8491,0.7823,0.7823,0.8214,0.8885,0.8885,0.8885,0.8885,0.8885,0.8885,0.8885,0.8885,0.8885,0.8885,0.8885,0.8885,0.8885,0.0,0.0,0.0,0.0,0.0,0.0,0.0,0.0,0.0,0.0,0.0,0.0,0.0,0.0,0.0,0.0,0.0,0.0,0.0,0.0,0.1525,0.2072,0.2126,0.2415,0.2872,0.292,0.292,0.292,0.292,0.292,0.292,0.292,0.292,0.292,0.292,0.292,0.3008,0.332,0.3542,0.3676,0.4429,0.4249,0.358,0.403,0.0,0.0,0.0,0.0,0.0,0.0,0.0,0.0,0.0,0.0,0.0,0.0,0.0,0.0,0.0,0.0,0.0,0.0,0.0,0.0112,0.0393,0.0449,0.0505,0.0505,0.0729,0.1065,0.1458,0.2407,0.3299,0.386,0.486,0.5975,0.7096,0.7263,0.7263,0.7263,0.8211,0.8042,0.5917,0.6647,0.7263,0.7263,0.7263,0.7263,0.7263,0.8325,0.838,0.7321,0.8325,0.8885,0.8885,0.8885,0.8885,0.8885,0.8885,0.8885,0.8885,0.8885,0.8885,0.8885,0.8885,0.8885,0.8885,0.8885,0.8885,0.8885,0.8885,0.8885,0.8885,0.8885,0.8885,0.8885,0.0,0.0,0.0,0.0,0.0,0.0,0.0,0.0,0.0,0.0,0.0,0.0,0.0,0.0,0.0,0.0,0.0,0.0,0.0,0.0,0.1519,0.202,0.2432,0.2723,0.2918,0.292,0.292,0.292,0.292,0.292,0.292,0.292,0.292,0.292,0.292,0.3097,0.3408,0.2781,0.2914,0.3535,0.2998,0.291,0.3045,0.3179,0.2598,0.0,0.0,0.0,0.0,0.0,0.0,0.0,0.0,0.0,0.0,0.0,0.0,0.0,0.0,0.0,0.0,0.0,0.0164,0.0393,0.0729,0.0953,0.1121,0.1121,0.1177,0.1625,0.2855,0.3301,0.4137,0.6035,0.6538,0.7152,0.8325,0.8491,0.8491,0.8491,0.8716,0.8716,0.8211,0.8377,0.8491,0.8491,0.8491,0.8491,0.8491,0.8771,0.8771,0.8546,0.8771,0.8885,0.8885,0.8885,0.8885,0.8885,0.8885,0.8885,0.8885,0.8885,0.8885,0.8885,0.8885,0.8885,0.8885,0.8885,0.8885,0.8885,0.8885,0.8885,0.8885,0.8885,0.8885,0.8885,0.0,0.0,0.0,0.0,0.0,0.0,0.0,0.0,0.0,0.0,0.0,0.0,0.0,0.0,0.0,0.0,0.0,0.0,0.0,0.0,0.0321,0.0933,0.1315,0.1616,0.1899,0.1875,0.1839,0.1839,0.1839,0.2199,0.292,0.292,0.3008,0.323,0.323,0.3229,0.3227,0.3002,0.2865,0.2864,0.2642,0.2374,0.2196,0.2196,0.1569,0.0718,0.0718,0.0,0.0,0.0,0.0,0.0,0.0,0.0,0.0,0.0152,0.0202,0.0202,0.0202,0.0208,0.0214,0.0218,0.0443,0.0729,0.1009,0.1625,0.2184,0.2352,0.2408,0.2631,0.3469,0.4529,0.5699,0.6874,0.7598,0.8156,0.8826,0.8885,0.8885,0.8885,0.8885,0.8885,0.8885,0.8885,0.8885,0.8885,0.8885,0.8885,0.8885,0.8885,0.8885,0.8885,0.8885,0.8885,0.8885,0.8885,0.8885,0.8885,0.8885,0.8885,0.8885,0.8885,0.8885,0.8885,0.8885,0.8885,0.8885,0.8885,0.8885,0.8885,0.8885,0.8885,0.8885,0.8885,0.8885,0.8885,0.0,0.0,0.0,0.0,0.0,0.0,0.0,0.0,0.0,0.0,0.0,0.0,0.0,0.0,0.0,0.0,0.0,0.0,0.0,0.0,0.0,-0.0122,0.0084,0.0389,0.0782,0.0754,0.0718,0.0718,0.0762,0.1391,0.2603,0.2603,0.2827,0.3229,0.3229,0.3048,0.2777,0.2998,0.2685,0.2015,0.2285,0.1883,0.1166,0.1166,0.0673,0.0,0.0,0.0,0.0,0.0,0.0,0.0,0.0,0.0,0.0152,0.0606,0.0606,0.0505,0.0707,0.0623,0.0537,0.0775,0.1063,0.1401,0.1905,0.2798,0.3578,0.3858,0.3916,0.397,0.4195,0.581,0.7152,0.7376,0.8269,0.8885,0.8885,0.8885,0.8885,0.8885,0.8885,0.8885,0.8885,0.8885,0.8885,0.8885,0.8885,0.8885,0.8885,0.8885,0.8885,0.8885,0.8885,0.8885,0.8885,0.8885,0.8885,0.8885,0.8885,0.8885,0.8885,0.8885,0.8885,0.8885,0.8885,0.8885,0.8885,0.8885,0.8885,0.8885,0.8885,0.8885,0.8885,0.8885,0.8885,0.8937,0.0,0.0,0.0,0.0,0.0,0.0,0.0,0.0,0.0,0.0,0.0,0.0,0.0,0.0,0.0,0.0,0.0,0.0,0.0,0.0,0.0,0.0325,0.05,0.0681,0.0781,0.0754,0.0718,0.0718,0.0942,0.1166,0.1345,0.1345,0.148,0.1705,0.1705,0.1927,0.2238,0.1433,0.1255,0.1435,0.0673,0.0314,0.018,0.018,0.009,0.0,0.0,0.0,0.0,0.0,0.0,0.0,0.0,0.0,0.0606,0.1763,0.1462,0.0959,0.1864,0.1502,0.1125,0.2397,0.2766,0.3187,0.4526,0.4972,0.5083,0.5139,0.5139,0.5475,0.6424,0.6874,0.7432,0.8494,0.8771,0.8885,0.8885,0.8885,0.8885,0.8885,0.8885,0.8885,0.8885,0.8885,0.8885,0.8885,0.8885,0.8885,0.8885,0.8885,0.8885,0.8885,0.8885,0.8885,0.8885,0.8885,0.8885,0.8885,0.8885,0.8885,0.8885,0.8885,0.8885,0.8885,0.8885,0.8885,0.8885,0.8885,0.8885,0.8885,0.8885,0.8885,0.8885,0.8885,0.8885,0.9047,0.0,0.0,0.0,0.0,0.0,0.0,0.0,0.0,0.0,0.0,0.0,0.0,0.0,0.0,0.0,0.0,0.0,0.0,0.0,0.0,0.0,-0.0916,-0.0814,-0.0625,-0.0384,-0.0436,-0.0443,-0.0314,-0.0179,0.0,0.0269,0.0269,0.0807,0.1792,0.1792,0.1792,0.1703,0.13,0.0897,0.0584,0.018,0.0,0.0,0.0,0.0,0.0,0.0,0.0,0.0045,0.0188,0.0238,0.0288,0.0549,0.0,0.0,0.0,0.2718,0.2925,0.3411,0.3282,0.3202,0.3853,0.4194,0.458,0.5248,0.5919,0.6366,0.6366,0.6869,0.7315,0.7152,0.7654,0.8269,0.8826,0.8885,0.8885,0.8885,0.8885,0.8885,0.8885,0.8885,0.8885,0.8885,0.8885,0.8885,0.8885,0.8885,0.8885,0.8885,0.8885,0.8885,0.8885,0.8885,0.8885,0.8885,0.8885,0.8885,0.8885,0.8885,0.8885,0.8885,0.8885,0.8885,0.8885,0.8885,0.8885,0.8885,0.8885,0.8885,0.8885,0.8885,0.932,0.9915,0.9915,1.0296,1.095,0.0,0.0,0.0,0.0,0.0,0.0,0.0,0.0,0.0,0.0,0.0,0.0,0.0,0.0,0.0,0.0,0.0,0.0,0.0,0.0,0.0,-0.1765,-0.1765,-0.1603,-0.1305,-0.1376,-0.1317,-0.1121,-0.1031,-0.0807,-0.0403,-0.0314,0.0359,0.1568,0.1568,0.1389,0.1032,0.1032,0.0628,0.0,0.0,0.0,0.0,0.009,0.009,0.009,0.018,0.018,0.0226,0.0421,0.0475,0.0575,0.1141,0.1858,0.0,0.0,0.0,0.4836,0.4598,0.4627,0.4818,0.5171,0.5536,0.5888,0.619,0.6927,0.7543,0.7543,0.8269,0.8605,0.7709,0.8269,0.8885,0.8885,0.8885,0.8885,0.8885,0.8885,0.8885,0.8885,0.8885,0.8885,0.8885,0.8885,0.8885,0.8885,0.8885,0.8885,0.8885,0.8885,0.8885,0.8885,0.8885,0.8885,0.8885,0.8885,0.8885,0.8885,0.8885,0.8885,0.8885,0.8885,0.8885,0.8885,0.8885,0.8885,0.8885,0.8885,0.9103,0.9372,0.9372,1.008,1.1109,1.1109,1.1651,1.2417,0.0,0.0,0.0,0.0,0.0,0.0,0.0,0.0,0.0,0.0,0.0,0.0,0.0,-0.5389,-0.5312,-0.5162,0.0,0.0,0.0,0.0,0.0,-0.1335,-0.1326,0.0,-0.1305,-0.1376,-0.1317,-0.1121,-0.0852,-0.0628,-0.0403,-0.0135,0.0045,0.009,0.009,0.009,0.009,0.009,0.0045,0.0,0.0,0.0,0.0045,0.0269,0.0359,0.0404,0.0583,0.0673,0.0675,0.069,0.0704,0.1004,0.229,0.273,0.3221,0.0,0.0,0.0,0.5031,0.4847,0.5197,0.645,0.6781,0.7173,0.8404,0.8771,0.8826,0.8826,0.8881,0.8881,0.8826,0.8881,0.8885,0.8885,0.8885,0.8885,0.8885,0.8885,0.8885,0.8885,0.8885,0.8885,0.8885,0.8885,0.8885,0.8885,0.8885,0.8885,0.8885,0.8885,0.8885,0.8885,0.8885,0.8885,0.8885,0.8885,0.8885,0.8885,0.8885,0.8885,0.8885,0.8885,0.8885,0.8885,0.8885,0.8885,0.8885,0.8885,0.9588,1.0621,1.0621,1.1328,1.2304,1.2304,1.2358,1.258,0.0,0.0,0.0,0.0,0.0,0.0,0.0,0.0,0.0,0.0,0.0,0.0,0.0,-0.5583,-0.5509,-0.5318,-0.4929,0.0,0.0,0.0,0.0,-0.2896,-0.2921,-0.2947,-0.302,-0.2284,-0.1859,-0.1747,-0.0896,-0.0404,-0.0135,-0.0045,0.0,0.0,0.0,0.0,0.0,0.0,0.0,0.0,0.0,0.009,0.0269,0.0359,0.0493,0.0583,0.0673,0.0718,0.072,0.0919,0.1452,0.2195,0.287,0.4014,0.5429,0.6986,0.7437,0.7338,0.6983,0.6976,0.7192,0.7656,0.7942,0.818,0.8672,0.8814,0.8885,0.8885,0.8885,0.8885,0.8885,0.8885,0.8885,0.8885,0.8885,0.8885,0.8885,0.8885,0.8885,0.8885,0.8885,0.8885,0.8885,0.8885,0.8885,0.8885,0.8885,0.8885,0.8885,0.8885,0.8885,0.8885,0.8885,0.8885,0.8885,0.8885,0.8885,0.8885,0.8885,0.8885,0.8885,0.8885,0.9316,1.0076,1.0076,1.0076,1.0131,1.084,1.1383,1.1814,1.1814,1.2526,1.3565,1.3565,1.3997,1.4696,0.0,0.0,0.0,0.0,0.0,0.0,0.0,0.0,0.0,0.0,0.0,0.0,0.0,0.0,-0.6923,-0.6661,-0.5693,-0.4955,-0.4642,-0.41,-0.3791,-0.3791,-0.3791,-0.3824,-0.3934,-0.3068,-0.2587,-0.2523,-0.1374,-0.0668,-0.0449,-0.0135,0.0,0.0,0.0,0.0,0.0,0.0,0.0,0.0,0.009,0.0224,0.0403,0.0583,0.0718,0.0852,0.0897,0.0942,0.0944,0.1139,0.1955,0.3002,0.3524,0.5174,0.7089,0.7789,0.7988,0.7988,0.7988,0.8113,0.8204,0.8258,0.8418,0.8587,0.8686,0.8791,0.8821,0.8871,0.8885,0.8885,0.8885,0.8885,0.8885,0.8885,0.8885,0.8885,0.8885,0.8885,0.8885,0.8885,0.8885,0.8885,0.8885,0.8885,0.8885,0.8885,0.8885,0.8885,0.8885,0.8885,0.8885,0.8885,0.8885,0.8885,0.8885,0.8885,0.8885,0.8885,0.8885,0.9099,0.9482,0.9482,1.0131,1.1269,1.171,1.1651,1.1324,1.2087,1.2635,1.3019,1.3019,1.3727,1.4761,1.4761,1.5244,1.5891,0.0,0.0,0.0,0.0,0.0,0.0,0.0,0.0,0.0,-1.1749,0.0,0.0,0.0,0.0,0.0,-0.9334,-0.7638,-0.6489,-0.6262,-0.4758,-0.3908,-0.3869,0.0,0.0,-0.3885,-0.3653,-0.3487,-0.3421,-0.2214,-0.1538,-0.1391,-0.0449,-0.0045,0.0,0.0,0.0,0.0,0.0,0.0,0.0045,0.0314,0.0403,0.0448,0.0942,0.1121,0.1121,0.1345,0.1391,0.1391,0.1436,0.2209,0.3324,0.4421,0.6241,0.7985,0.7988,0.7988,0.7988,0.0,0.0,0.0,0.8225,0.832,0.8347,0.8632,0.8699,0.8747,0.8844,0.8875,0.8878,0.8885,0.8885,0.8885,0.8885,0.8885,0.8885,0.8885,0.8885,0.8885,0.8885,0.8885,0.8885,0.8885,0.8885,0.8885,0.8885,0.8885,0.8885,0.8885,0.8885,0.8885,0.8885,0.8885,0.8885,0.8885,0.8885,0.894,0.8937,0.8937,0.9588,1.0726,1.0726,1.1378,1.2526,1.3673,1.3565,1.2521,1.2521,1.3181,1.4277,1.4277,1.4922,1.5891,1.5891,1.5891,1.5891,0.0,0.0,0.0,0.0,0.0,0.0,-1.495,-1.4343,-1.3759,0.0,0.0,0.0,-1.076,-1.0104,-0.9599,-0.9334,-0.8685,-0.7961,-0.7203,-0.6742,-0.6202,-0.5631,-0.5592,-0.5653,-0.5743,-0.4813,-0.4336,-0.4418,-0.3171,-0.2139,-0.1391,-0.1122,-0.0628,0.0,0.0,0.009,0.0269,0.0269,0.0269,0.0314,0.0538,0.0718,0.0942,0.1031,0.1211,0.1345,0.1391,0.1391,0.1524,0.224,0.3188,0.4439,0.6339,0.7369,0.7896,0.7958,0.7988,0.7988,0.7988,0.0,0.0,0.0,0.0,0.0,0.8374,0.8472,0.8587,0.8743,0.8774,0.8808,0.8861,0.8885,0.8885,0.8885,0.8885,0.8885,0.8885,0.8885,0.8885,0.8885,0.8885,0.8885,0.8885,0.8885,0.8885,0.8885,0.8885,0.8885,0.8885,0.8885,0.8885,0.8885,0.8885,0.8885,0.8885,0.8885,0.9316,1.0186,1.0186,1.0785,1.1923,1.1923,1.258,1.3727,1.4056,1.4487,1.4911,1.4911,1.5131,1.5405,1.5405,1.5618,1.5891,1.5891,1.5891,1.5891,0.0,0.0,0.0,0.0,0.0,0.0,-1.6463,-1.593,-1.5394,0.0,0.0,0.0,-1.2561,-1.1951,-1.1483,-1.1267,-1.0484,-0.9701,-0.9064,-0.8389,-0.7787,-0.733,-0.7292,-0.7146,-0.6806,-0.5974,-0.5416,-0.5172,-0.3941,-0.3081,-0.2598,-0.1793,-0.1122,-0.0584,-0.018,0.0135,0.0403,0.0493,0.0538,0.0538,0.0762,0.0942,0.1121,0.1211,0.13,0.1391,0.1391,0.1659,0.2107,0.2688,0.3854,0.5373,0.7168,0.7723,0.7753,0.7899,0.7894,0.7911,0.7971,0.7988,0.7988,0.7988,0.0,0.0,0.8255,0.8385,0.8435,0.8584,0.8615,0.8662,0.8815,0.8845,0.8811,0.8871,0.8885,0.8885,0.8885,0.8885,0.8885,0.8885,0.8885,0.8885,0.8885,0.8885,0.8885,0.8885,0.8885,0.8885,0.8885,0.8885,0.8885,0.8885,0.8885,0.8885,0.8885,0.9372,1.0021,1.0726,1.1164,1.2032,1.3127,1.3127,1.3776,1.4922,1.4922,1.5298,1.5891,1.5891,1.5891,1.5891,1.5891,1.5891,1.5891,1.5891,1.5891,1.5891,0.0,0.0,0.0,-2.1887,-2.0905,-1.9803,-1.8566,-1.7682,-1.6886,0.0,-1.5384,-1.4807,-1.4744,-1.4474,-1.423,-1.4006,-1.2565,-1.1527,-1.1118,-0.9744,-0.8889,-0.8703,-0.8703,-0.8237,-0.7242,-0.6992,-0.6529,-0.5707,-0.4624,-0.4171,-0.4253,-0.2419,-0.1524,-0.1345,-0.0404,0.018,0.0448,0.0673,0.0762,0.0807,0.1031,0.1121,0.1166,0.1345,0.1391,0.1436,0.1524,0.2152,0.2913,0.3135,0.4478,0.6213,0.7243,0.7577,0.7604,0.7746,0.7787,0.7821,0.7924,0.7965,0.7968,0.7985,0.7988,0.0,0.8214,0.8245,0.8286,0.8428,0.8459,0.8506,0.8659,0.8699,0.8754,0.8838,0.8871,0.8885,0.8885,0.8885,0.8885,0.8885,0.8885,0.8885,0.8885,0.8885,0.8885,0.8885,0.8885,0.8885,0.8885,0.8885,0.8885,0.8885,0.9047,0.9099,0.9099,1.0296,1.0945,1.1109,1.2146,1.3236,1.4379,1.4379,1.4976,1.5945,1.5945,1.5945,1.5998,1.5998,1.5945,1.5945,1.5945,1.5945,1.5998,1.5998,1.5998,1.5998,0.0,0.0,-2.305,-2.198,-2.1608,-2.1012,-1.9694,-1.9323,-1.9025,-1.8455,-1.7195,-1.6149,-1.557,-1.4788,-1.423,-1.4006,-1.3608,-1.2718,-1.1193,-1.082,-1.004,-0.8737,-0.8703,-0.8237,-0.7242,-0.7058,-0.6549,-0.5707,-0.5339,-0.4891,-0.4253,-0.3135,-0.2196,-0.1345,-0.0179,0.0448,0.0673,0.0897,0.1121,0.1256,0.13,0.1345,0.1345,0.1391,0.1391,0.1524,0.2331,0.2732,0.3135,0.465,0.5911,0.6939,0.7321,0.746,0.7444,0.7597,0.7641,0.7672,0.7818,0.7855,0.7885,0.7958,0.7988,0.0,0.8025,0.8085,0.813,0.8282,0.8364,0.8357,0.8499,0.8628,0.872,0.875,0.8804,0.8885,0.8885,0.8885,0.8885,0.8885,0.8885,0.8885,0.8885,0.8885,0.8885,0.8885,0.8885,0.8885,0.8885,0.8885,0.8885,0.8885,0.986,1.0347,1.0347,1.1492,1.258,1.3511,1.3727,1.4433,1.5565,1.5565,1.5838,1.6217,1.6217,1.6318,1.6518,1.6518,1.6418,1.6217,1.6217,1.6371,1.6518,1.6518,1.6518,1.6518,-2.5536,-2.4724,-2.3787,-2.2947,-2.2701,-2.2182,-2.0896,-2.0461,-2.0085,-1.9475,-1.8536,-1.758,-1.681,-1.6184,-1.5631,-1.5081,-1.4545,-1.3665,-1.2382,-1.1909,-1.1174,-0.9943,-0.9906,-0.9183,-0.7698,-0.7592,-0.6857,-0.5445,-0.5443,-0.5263,-0.4893,-0.4011,-0.2999,-0.1879,-0.0806,0.0134,0.0897,0.1031,0.1211,0.1391,0.1391,0.1391,0.1391,0.1391,0.1704,0.2196,0.2732,0.3492,0.4516,0.5941,0.6697,0.7109,0.7231,0.7255,0.7285,0.7441,0.7485,0.7516,0.7665,0.7706,0.774,0.7889,0.7877,0.0,0.0,0.8775,0.8996,0.963,0.9746,0.9799,0.9926,0.9979,1.0072,1.0152,0.9842,0.9577,0.9577,0.9216,0.8885,0.8885,0.8885,0.8885,0.8885,0.8885,0.8885,0.8885,0.8885,0.8885,0.8885,0.9482,0.9805,0.9805,1.095,1.1542,1.1542,1.2689,1.3619,1.4223,1.4761,1.541,1.6105,1.6105,1.6264,1.6477,1.6477,1.6577,1.6677,1.6677,1.6736,1.6749,1.6583,1.6577,1.6677,1.6677,1.6677,1.6677,-2.5947,-2.5133,-2.4366,-2.393,-2.3675,-2.3198,-2.212,-2.1581,-2.1046,-2.0311,-1.9574,-1.88,-1.8003,-1.7457,-1.6872,-1.6167,-1.5338,-1.4502,-1.3745,-1.2952,-1.2187,-1.1372,-1.1186,-1.0239,-0.8385,-0.8194,-0.7204,-0.5428,-0.5391,-0.5431,-0.5467,-0.4698,-0.3669,-0.2547,-0.1476,-0.0269,0.1031,0.1121,0.1256,0.1391,0.1391,0.1391,0.1391,0.1391,0.2017,0.2956,0.3314,0.4516,0.6074,0.683,0.7095,0.7095,0.7095,0.7095,0.7122,0.7288,0.7326,0.736,0.7512,0.774,0.7912,0.8016,0.8265,0.875,0.0,0.0,0.0,1.1023,1.1219,1.1227,1.1347,1.1363,1.1438,1.1546,1.0967,1.058,1.0617,1.0,0.9449,0.9261,0.9047,0.8992,0.921,0.9265,0.9154,0.894,0.9099,0.9265,0.9265,1.0186,1.0781,1.0996,1.2146,1.2743,1.2743,1.3943,1.4546,1.46,1.5512,1.6105,1.6377,1.6377,1.653,1.6789,1.6789,1.6842,1.6889,1.6889,1.7054,1.7226,1.6895,1.6836,1.6889,1.6889,1.6889,1.6889,-2.6106,-2.5189,-2.4408,-2.4128,0.0,0.0,-2.3271,-2.3138,-2.2763,-2.1784,-2.0353,-1.9257,-1.8723,-1.7217,-1.6202,-1.6096,-1.5823,-1.5319,-1.4537,-1.3781,-1.2989,-1.2187,-1.1484,-1.0507,-0.9183,-0.8461,-0.748,-0.6268,-0.5679,-0.5431,-0.5467,-0.4698,-0.3762,-0.2777,-0.1387,-0.0179,0.0762,0.1211,0.1391,0.1391,0.1391,0.1391,0.1391,0.1391,0.2017,0.3135,0.4783,0.6074,0.6962,0.7051,0.7095,0.7095,0.7095,0.7095,0.7098,0.7119,0.7122,0.7156,0.7356,0.8159,0.8918,0.887,0.9965,1.0991,1.0748,0.0,1.1321,1.1219,0.0,1.1179,1.1203,0.0,0.0,1.1419,1.1434,1.1524,1.1764,1.1709,1.1357,1.0601,0.9533,0.9316,1.0402,1.0511,1.0076,0.8992,0.9915,1.0511,1.0511,1.0617,1.116,1.2195,1.3349,1.4002,1.4002,1.5137,1.5838,1.6057,1.6164,1.6371,1.6624,1.6624,1.6842,1.712,1.712,1.7272,1.7477,1.7477,1.7529,1.7536,1.7279,1.7272,1.7477,1.7477,1.7477,1.7477,-2.6455,-2.5783,-2.5133,-2.4692,0.0,0.0,0.0,-2.3582,-2.3047,-2.2032,-2.1121,-2.0225,-1.9199,-1.7959,-1.6985,-1.6438,-1.6035,-1.5461,-1.4637,-1.3926,-1.3135,-1.2342,-1.1521,-1.0545,-0.9334,-0.8499,-0.7504,-0.63,-0.5606,-0.5325,-0.5447,-0.5135,-0.4156,-0.2638,-0.1877,-0.0581,0.0942,0.1256,0.1391,0.1391,0.1391,0.1391,0.1391,0.1391,0.2373,0.3979,0.5849,0.6786,0.7095,0.7095,0.7095,0.7095,0.7095,0.7187,0.7323,0.7323,0.7801,0.8336,0.8412,0.8778,0.9309,0.9908,1.0204,1.0607,1.166,1.2078,1.2427,1.3097,0.0,0.0,0.0,0.0,0.0,0.0,1.2733,1.2461,1.2557,1.2105,1.1728,1.167,1.1219,1.0895,1.0726,1.0726,1.0511,0.997,1.1059,1.171,1.171,1.2363,1.2965,1.3452,1.4595,1.519,1.519,1.5838,1.6164,1.6324,1.6477,1.6683,1.7008,1.7008,1.7166,1.743,1.743,1.7483,1.7582,1.7582,1.7582,1.7582,1.7483,1.7483,1.7582,1.7582,1.7582,1.7582,-2.6945,-2.6336,-2.5687,-2.53,-2.5118,-2.4806,-2.42,-2.373,-2.3078,-2.2094,-2.1491,-2.0655,-1.9299,-1.8375,-1.7501,-1.6673,-1.6132,-1.5532,-1.4824,-1.3861,-1.3069,-1.2415,-1.1521,-1.0545,-0.9566,-0.8537,-0.754,-0.6546,-0.564,-0.5233,-0.5364,-0.5435,-0.4457,-0.2527,-0.2227,-0.0939,0.0987,0.13,0.1391,0.1391,0.1391,0.1569,0.1838,0.2105,0.3221,0.4912,0.6517,0.7095,0.7095,0.7095,0.7095,0.0,0.7095,0.7279,0.7507,0.7507,0.8157,0.889,0.9148,0.9449,0.9917,1.0906,1.0998,1.1225,1.2665,1.3176,1.3567,1.4492,1.459,0.0,0.0,0.0,1.4544,1.4544,0.0,1.3622,1.3684,1.3082,1.2683,1.2763,1.2866,1.2417,1.1269,1.1487,1.1546,1.1214,1.2254,1.2906,1.2906,1.3727,1.4331,1.4654,1.5458,1.5945,1.5998,1.6217,1.6377,1.6537,1.6743,1.7008,1.7331,1.7331,1.743,1.7582,1.7582,1.7582,1.7582,1.7582,1.7582,1.7582,1.7582,1.7582,1.7582,1.7582,1.7582,1.7582,-2.7575,-2.6628,-2.5783,-2.5797,-2.5342,-2.4806,-2.42,-2.3806,-2.3245,-2.2237,-2.1181,-2.0073,-1.8924,-1.7978,-1.7201,-1.6638,-1.6219,-1.5762,-1.524,-1.376,-1.282,-1.2599,-1.1446,-1.0625,-1.018,-0.8604,-0.7689,-0.7464,-0.5954,-0.5186,-0.5197,-0.5397,-0.451,-0.2694,-0.2258,-0.1073,0.0762,0.1211,0.1391,0.1391,0.1391,0.1973,0.2956,0.3844,0.4825,0.5764,0.6741,0.7095,0.7095,0.7095,0.7095,0.0,0.0,0.0,0.7507,0.7507,0.7724,0.8113,0.8973,0.0,1.109,1.1806,1.317,1.4254,1.383,1.4385,1.4876,1.467,1.4845,1.5083,1.5083,1.5083,1.5083,1.5083,1.5041,0.0,0.0,1.5398,1.4952,1.3906,1.3965,1.3673,1.2472,1.3403,1.3619,1.2413,1.3452,1.4164,1.4164,1.4164,1.4708,1.5838,1.5891,1.5998,1.6271,1.6324,1.659,1.7179,1.7179,1.7331,1.7582,1.7582,1.7582,1.7582,1.7582,1.7582,1.7582,1.7582,1.7582,1.7582,1.7582,1.7582,1.7582,1.7582,1.7582,1.7582,-2.76,-2.7265,-2.6878,-2.6484,-2.5851,-2.5021,-2.3953,-2.3658,-2.3215,-2.2125,-2.1447,-2.0655,-1.9452,-1.7969,-1.701,-1.6802,-1.5727,-1.4991,-1.4812,-1.4086,-1.3324,-1.2636,-1.1966,-1.1149,-1.0218,-0.8604,-0.7685,-0.7502,-0.5866,-0.5113,-0.5186,-0.5271,-0.4382,-0.269,-0.2226,-0.1016,0.0718,0.1211,0.1391,0.1391,0.1391,0.2373,0.3844,0.42,0.487,0.5808,0.6741,0.7095,0.0,0.7323,0.7234,0.7139,0.7323,0.7547,0.7768,0.7768,0.8464,0.0,0.0,0.0,1.1531,1.3003,0.0,0.0,1.3897,1.4222,1.4514,1.4805,1.482,1.4907,1.5276,1.522,1.5083,1.5083,1.5083,1.5115,0.0,1.5382,1.5363,1.4988,1.4671,1.4239,1.3593,1.411,1.4207,1.3619,1.4648,1.5405,1.5571,1.541,1.5672,1.6418,1.6264,1.6264,1.6577,1.6796,1.702,1.7179,1.7378,1.7529,1.7582,1.7582,1.7582,1.7582,1.7582,1.7582,1.7582,1.7582,1.7582,1.7582,1.7582,1.7582,1.7582,1.7582,1.7582,1.7582,-2.76,-2.76,-2.7473,-2.7037,-2.6122,-2.5035,-2.3793,-2.3305,-2.2738,-2.1846,-2.125,-2.042,-1.9054,-1.7867,-1.6966,-1.6446,-1.5365,-1.4633,-1.4418,-1.3716,-1.2989,-1.2298,-1.1706,-1.0962,-1.0105,-0.8528,-0.7613,-0.7502,-0.5822,-0.5056,-0.5127,-0.5167,-0.428,-0.2628,-0.2195,-0.1005,0.071,0.1207,0.1391,0.1391,0.1391,0.2551,0.4289,0.4289,0.5092,0.6296,0.0,0.7095,0.7143,0.7415,0.737,0.7279,0.7547,0.7812,0.8028,0.8028,0.8899,1.0115,1.1063,1.1542,0.0,1.3695,1.3652,0.0,1.3972,0.0,1.4353,1.4727,1.4878,1.4993,1.5403,1.5386,1.5363,1.5363,1.5363,1.5363,0.0,1.5518,1.5586,1.5586,1.5274,1.4924,1.4602,1.489,1.494,1.4686,1.5518,1.6111,1.6271,1.6211,1.6365,1.6677,1.6524,1.6583,1.6849,1.7067,1.7232,1.7331,1.7536,1.7582,1.7582,1.7582,1.7582,1.7582,1.7582,1.7582,1.7582,1.7582,1.7582,1.7582,1.7582,1.7582,1.7582,1.7582,1.7582,1.7635,-2.7575,-2.7534,-2.7473,-2.731,-2.6122,-2.4794,-2.3734,-2.2738,-2.1928,-2.1451,-2.0613,-1.9497,-1.7876,-1.7672,-1.7044,-1.5604,-1.5081,-1.4589,-1.4057,-1.2776,-1.1929,-1.1669,-1.0775,-1.0143,-0.9922,-0.8304,-0.7502,-0.7502,-0.5822,-0.5018,-0.5021,-0.5127,-0.4208,-0.2477,-0.2123,-0.0997,0.0741,0.1201,0.1391,0.1391,0.1391,0.2551,0.4289,0.4289,0.5447,0.7095,0.7095,0.7095,0.7143,0.7415,0.7507,0.7551,0.7812,0.8028,0.8201,0.8201,0.8986,1.0115,1.1063,1.1972,1.2924,1.387,0.0,0.0,0.0,0.0,1.4502,0.0,1.4963,1.5364,1.5391,1.5625,1.5764,1.5778,1.5784,1.5784,1.5784,1.5784,1.5784,1.5784,1.5885,1.5821,1.5525,1.5735,1.5805,1.5551,1.5998,1.6311,1.6324,1.6577,1.673,1.673,1.673,1.6895,1.7232,1.7232,1.7331,1.7582,1.7582,1.7582,1.7582,1.7582,1.7582,1.7582,1.7582,1.7582,1.7582,1.7582,1.7635,1.7687,1.7687,1.7687,1.774,1.7635,1.7687,1.7891,-2.7295,-2.6852,-2.6336,-2.5837,-2.5063,-2.4234,-2.3365,-2.2586,-2.1896,-2.125,-2.0549,-1.9497,-1.7876,-1.7079,-1.6237,-1.5152,-1.4302,-1.3622,-1.3039,-1.2915,-1.2321,-1.1074,-1.1074,-1.07,-0.9916,-0.8304,-0.7502,-0.7502,-0.5822,-0.5018,-0.5018,-0.5048,-0.4148,-0.2475,-0.2046,-0.0897,0.0741,0.1201,0.1391,0.1391,0.1391,0.2551,0.4289,0.0,0.5447,0.7095,0.7095,0.7095,0.7183,0.7632,0.768,0.7595,0.7984,0.8157,0.8201,0.8201,0.8986,1.0115,1.1063,1.1972,1.2924,1.387,1.4088,1.4088,0.0,0.0,0.0,0.0,0.0,0.0,0.0,0.0,1.5578,1.5792,1.5784,1.5784,1.5784,1.5784,1.5784,1.5784,1.5822,1.5807,1.5783,1.5859,1.5851,1.5799,1.5937,1.6166,1.6564,1.6677,1.6889,1.7371,1.7166,1.7219,1.7483,1.7483,1.7529,1.7582,1.7582,1.7582,1.7582,1.7582,1.7582,1.7582,1.7582,1.7582,1.7582,1.7582,1.8094,1.8767,1.8767,1.9287,1.9849,1.8199,1.8617,1.9952,-2.7207,-2.6404,-2.5508,-2.4894,-2.4221,-2.3619,-2.3168,-2.2279,-2.1522,-2.1155,-2.0258,-1.9011,-1.7285,-1.662,-1.5745,-1.441,-1.3811,-1.3236,-1.2636,-1.2556,-1.2027,-1.085,-1.0775,-1.0325,-0.9387,-0.8152,-0.731,-0.6927,-0.5631,-0.5018,-0.5018,-0.5018,-0.4101,-0.2477,-0.2003,-0.088,0.0731,0.1196,0.1391,0.1391,0.1391,0.2329,0.0,0.4156,0.5223,0.6564,0.6962,0.7095,0.7183,0.772,0.7812,0.7768,0.8204,0.838,0.838,0.838,0.9379,1.0636,1.1154,1.2272,1.344,1.3962,1.4088,1.4088,1.4088,1.4088,1.4135,0.0,1.4436,1.4623,0.0,0.0,1.5491,1.5785,1.5784,1.5784,1.5784,1.5784,1.5784,1.5784,1.5784,1.5803,1.5831,1.5763,1.5745,1.5752,1.5939,1.6237,1.6703,1.693,1.7265,1.7582,1.743,1.743,1.7582,1.7582,1.7582,1.7582,1.7582,1.7582,1.7582,1.7582,1.7582,1.7582,1.7582,1.7582,1.7635,1.8101,1.8662,1.9228,1.9746,2.0621,2.1395,1.9642,1.9849,2.0885,-2.7052,-2.596,-2.4908,-2.4379,-2.3531,-2.2944,-2.2944,-2.1877,-2.106,-2.0933,-1.9846,-1.8341,-1.6472,-1.6263,-1.5534,-1.3674,-1.3492,-1.32,-1.2526,-1.2003,-1.1409,-1.07,-1.018,-0.9539,-0.8703,-0.7927,-0.708,-0.6202,-0.5401,-0.5018,-0.5018,-0.5018,-0.4112,-0.2427,-0.2004,-0.0823,0.0805,0.1232,0.1387,0.1391,0.1391,0.2017,0.3001,0.3933,0.487,0.5808,0.6786,0.7139,0.7183,0.772,0.79,0.7988,0.8432,0.8612,0.8612,0.8612,0.9864,1.1284,1.1284,1.2662,1.4088,1.4088,1.4088,1.4088,1.4088,1.4088,1.4088,1.4088,1.4289,1.4476,0.0,0.0,1.5438,1.5678,1.5772,1.5738,1.5778,1.5784,1.5784,1.5784,1.5784,0.0,1.5784,1.5631,1.5501,1.5545,1.6024,1.6439,1.6691,0.0,1.7582,1.7582,1.7582,1.7582,1.7582,1.7582,1.7582,1.7582,1.7582,1.7687,1.7786,1.7786,1.7891,1.8048,1.8048,1.8048,1.8094,1.9027,1.9487,1.9746,2.0877,2.1903,2.2627,2.17,2.1344,2.1446,-2.6218,-2.5147,-2.4263,-2.4147,-2.301,-2.2094,-2.2094,-2.1534,-2.0837,-2.0128,-1.9353,-1.8138,-1.6254,-1.6044,-1.5349,-1.3637,-1.3492,-1.3046,-1.1929,-1.1744,-1.1223,-1.0105,-0.9954,-0.9539,-0.8703,-0.7927,-0.708,-0.6202,-0.5401,-0.5018,-0.5018,-0.5018,-0.4031,-0.2232,-0.1924,-0.0664,0.1297,0.135,0.1412,0.1391,0.1391,0.2017,0.3001,0.3933,0.487,0.5852,0.7013,0.7279,0.7183,0.772,0.79,0.7988,0.8432,0.8612,0.8612,0.8612,0.9864,1.1284,1.1284,1.2662,1.4088,1.4088,1.4088,1.4088,1.4088,1.4088,1.4088,1.4088,1.4128,1.4235,1.4476,0.0,0.0,1.5424,1.5471,1.5558,1.5751,1.5784,1.5784,1.5784,1.5784,1.5784,1.5784,1.564,1.5579,1.5826,1.6101,1.6444,1.6684,0.0,1.7582,0.0,1.7582,0.0,0.0,0.0,1.7582,1.7582,1.7582,1.8048,1.8916,1.8916,1.9435,2.0321,2.0321,2.0321,2.0321,2.0526,2.1132,2.2064,2.3179,2.3746,2.3895,2.3687,2.3637,2.3488,-2.4823,-2.425,-2.3738,-2.3437,-2.2476,-2.1628,-2.127,-2.0698,-2.0182,-1.9759,-1.8734,-1.7541,-1.614,-1.5658,-1.4895,-1.3601,-1.3492,-1.2973,-1.1781,-1.1706,-1.1149,-0.9954,-0.9501,-0.8889,-0.808,-0.7238,-0.643,-0.5592,-0.521,-0.5018,-0.5018,-0.5018,-0.3992,-0.2152,-0.0883,0.0288,0.1346,0.1377,0.0,0.1413,0.1384,0.1704,0.2285,0.3755,0.4601,0.5181,0.6877,0.7323,0.7183,0.7848,0.7984,0.7988,0.8432,0.8612,0.8696,0.9126,1.025,1.1413,1.1886,1.3045,1.4088,1.4088,1.4088,1.4088,1.4088,1.4088,1.4088,1.4088,1.4088,1.4175,1.4469,1.4636,0.0,0.0,0.0,1.5277,1.5565,1.5605,1.5658,1.5764,1.5784,1.5784,1.5784,1.573,1.5701,1.5846,1.5977,1.6264,1.6704,0.0,1.7481,0.0,0.0,0.0,1.7582,0.0,1.7582,1.7635,1.8146,1.8715,1.9228,1.9797,2.0364,2.0885,2.0885,2.0885,2.0936,2.1497,2.2367,2.3438,2.4003,2.4202,2.4202,2.4202,2.4202,2.4102,-2.3682,-2.3488,-2.3203,-2.2574,-2.1827,-2.1101,-2.043,-1.9726,-1.9276,-1.9309,-1.8152,-1.6991,-1.6044,-1.5278,-1.4402,-1.3419,-1.3309,-1.2783,-1.1595,-1.1521,-1.0962,-0.969,-0.9046,-0.8237,-0.7234,-0.6546,-0.5822,-0.5018,-0.5018,-0.5018,-0.4979,-0.4779,-0.3638,-0.1722,0.02,0.1134,0.0,0.0,0.1378,0.1392,0.1416,0.1385,0.1614,0.3576,0.4289,0.4601,0.6789,0.7415,0.7319,0.8025,0.8116,0.7988,0.8432,0.874,0.8999,0.9685,1.0722,1.1757,1.2491,1.3392,1.4088,1.4088,1.4088,1.4088,1.4088,1.4088,1.4088,1.4088,1.4088,1.4155,1.4389,1.4429,0.0,0.0,0.0,1.497,1.5264,1.5357,1.5484,1.5712,1.5792,1.5784,1.5784,1.5784,1.5784,1.5784,1.5906,1.6196,1.6687,0.0,0.0,0.0,0.0,1.7582,1.7582,0.0,1.7687,1.7943,1.8819,1.9435,1.9945,2.0826,2.1344,2.1599,2.1599,2.1599,2.165,2.2518,2.3388,2.4202,2.4202,2.4202,2.4202,2.4202,2.4202,2.4202,-2.3607,-2.3155,-2.2574,-2.1815,-2.1005,-2.0204,-1.9529,-1.8687,-1.8202,-1.8405,-1.7662,-1.6759,-1.5842,-1.5065,-1.4106,-1.2783,-1.2673,-1.215,-1.0962,-1.0887,-1.0244,-0.8889,-0.8742,-0.797,-0.6356,-0.624,-0.5822,-0.5018,-0.5018,-0.5018,-0.4979,-0.3988,-0.2462,-0.0431,0.0,0.0,0.0,0.1309,0.1341,0.1391,0.1393,0.141,0.1614,0.3576,0.4289,0.4601,0.7003,0.768,0.7595,0.83,0.8252,0.7988,0.8432,0.9126,0.9816,0.9859,1.1154,1.2577,1.2662,1.3392,1.4088,1.4088,1.4088,1.4088,1.4088,1.4088,1.4088,1.4088,1.4088,1.4095,1.4122,1.4128,1.4222,0.0,0.0,1.4663,1.5008,1.5231,1.5404,1.5431,1.5671,1.5784,1.5784,1.5784,1.5784,1.5784,1.6106,1.64,1.6693,0.0,0.0,1.7569,1.7582,1.7582,1.7582,1.7582,1.8101,1.9072,1.9176,2.0254,2.2165,2.2325,2.2929,2.3895,2.3895,2.3895,2.3895,2.3994,2.4102,2.4202,2.4202,2.4202,2.4202,2.4202,2.4202,2.4202,-2.2775,-2.2211,-2.1639,-2.1345,-2.0301,-1.9431,-1.9166,-1.8104,-1.7364,-1.7467,-1.6759,-1.5948,-1.5136,-1.4063,-1.3171,-1.2636,-1.2268,-1.1706,-1.085,-1.0812,-1.0175,-0.8775,-0.8237,-0.7429,-0.624,-0.5744,-0.5246,-0.4818,-0.4818,-0.474,-0.4621,-0.3677,-0.219,0.0,0.0,0.1303,0.1317,0.1295,0.1316,0.1341,0.1376,0.1397,0.1542,0.2941,0.3801,0.4512,0.6201,0.7098,0.7595,0.8164,0.8248,0.816,0.8476,0.8828,0.9345,1.0419,1.1284,1.21,1.3222,1.3828,1.4088,1.4088,1.4088,1.4088,1.4088,1.4088,1.4088,1.4088,1.4088,1.4088,1.4088,1.4088,1.4128,1.4242,0.0,0.0,1.4656,1.495,1.5204,1.5378,1.5651,1.5784,1.5784,1.5784,1.5784,1.5784,1.5939,1.6213,1.668,0.0,0.0,1.7569,0.0,1.7891,1.8558,1.8558,1.9124,2.021,2.0877,2.165,2.2526,2.3188,2.3795,2.4202,2.4202,2.4202,2.4202,2.4202,2.4202,2.4202,2.4202,2.4202,2.4202,2.4202,2.4202,2.4202,-2.1925,-2.1431,-2.0901,-2.0505,-1.9377,-1.8489,-1.8331,-1.7267,-1.6402,-1.6263,-1.5737,-1.5171,-1.4673,-1.339,-1.2526,-1.2342,-1.1781,-1.1186,-1.0556,-1.0556,-0.9868,-0.8428,-0.7736,-0.6888,-0.578,-0.5126,-0.474,-0.4621,-0.4621,-0.4543,-0.4384,-0.321,0.0,0.0,0.0982,0.1296,0.1298,0.128,0.1294,0.1306,0.1348,0.1374,0.1522,0.2516,0.3471,0.4465,0.5667,0.6738,0.768,0.8069,0.8245,0.8336,0.852,0.8784,0.9301,1.0852,1.1494,1.2057,1.3652,1.4088,1.4088,1.4088,1.4088,1.4088,1.4088,1.4088,1.4088,1.4088,1.4088,1.4088,1.4088,1.4088,1.4088,1.4088,0.0,0.0,1.4362,1.4649,1.491,1.5117,1.5471,1.5705,1.5705,1.5731,1.5784,1.5784,1.5784,1.6046,0.0,0.0,0.0,0.0,0.0,0.0,1.9176,1.9176,1.9952,2.1395,2.2114,2.2677,2.3038,2.3845,2.4202,2.4202,2.4202,2.4202,2.4202,2.4202,2.4202,2.4202,2.4202,2.4202,2.4202,2.4202,2.4202,2.4202,-2.1262,-2.0985,-2.0462,-1.9056,-1.8055,-1.7239,-1.6698,-1.6,-1.5286,-1.4708,-1.4601,-1.4601,-1.4601,-1.339,-1.2378,-1.1744,-1.1149,-1.055,-0.9954,-0.9922,-0.9188,-0.7579,-0.7314,-0.6433,-0.4737,-0.4501,-0.4423,-0.4423,-0.4423,0.0,-0.4343,0.0,-0.0588,0.1296,0.1296,0.1296,0.1296,0.1297,0.1314,0.1303,0.1303,0.1338,0.152,0.2431,0.3426,0.4465,0.5667,0.6871,0.794,0.8113,0.838,0.8612,0.8612,0.917,1.0072,1.1025,1.1972,1.2875,1.3828,1.4088,1.4088,1.4088,1.4088,1.4088,1.4088,1.4088,1.4088,1.4088,1.4088,1.4088,1.4088,1.4088,1.4088,1.4088,0.0,0.0,1.4088,1.4342,1.4529,1.4529,1.5044,1.5398,1.5398,1.5658,1.5784,1.5784,1.5784,1.5965,0.0,0.0,0.0,1.7199,1.7435,0.0,1.9176,1.9176,2.0305,2.2476,2.2476,2.3088,2.4202,2.4202,2.4202,2.4202,2.4202,2.4202,2.4202,2.4202,2.4202,2.4202,2.4202,2.4202,2.4202,2.4202,2.4202,2.4202,-2.0794,-1.9944,-1.9123,-1.8667,-1.7531,-1.6602,-1.6411,-1.5286,-1.4394,-1.4214,-1.3753,-1.3244,-1.2689,-1.1996,-1.1446,-1.1111,-1.0019,-0.9268,-0.9084,-0.8699,-0.7965,-0.685,-0.6353,-0.5622,-0.4501,-0.4423,-0.4345,-0.4194,0.0,0.0,0.0,-0.1057,0.0157,0.1296,0.1296,0.1296,0.1296,0.1296,0.1303,0.1313,0.1294,0.1313,0.1376,0.1718,0.2828,0.4291,0.4709,0.6157,0.79,0.7984,0.8252,0.8612,0.8612,0.8784,0.9301,1.0852,1.1499,1.21,1.3652,1.4088,1.4088,1.4088,1.4088,1.4088,1.4088,1.4088,1.4088,1.4088,1.4088,1.4088,1.4088,1.4088,1.4088,1.4088,1.4088,0.0,1.4088,1.4335,1.4596,1.4796,1.5164,1.5478,1.5671,1.5724,1.5784,1.5784,1.5784,0.0,0.0,0.0,0.0,0.0,1.7481,0.0,2.0313,2.0364,2.1489,2.3646,2.3646,2.3845,2.4202,2.4202,2.4202,2.4202,2.4202,2.4202,2.4202,2.4202,2.4202,2.4202,2.4202,2.4202,2.4202,2.4202,2.4202,2.4202,-2.0268,-1.9212,-1.822,-1.7653,-1.6507,-1.5596,-1.5384,-1.4286,-1.3506,-1.3579,-1.2922,-1.2224,-1.1632,-1.0807,0.0,-1.0357,-0.9339,-0.8703,-0.8703,-0.8127,-0.7395,-0.6542,-0.5851,-0.5118,-0.4309,-0.4231,0.0,-0.3999,-0.3647,-0.2743,-0.1293,-0.0392,0.047,0.1296,0.1296,0.1296,0.1296,0.1296,0.1296,0.1298,0.1318,0.1292,0.1307,0.1343,0.251,0.4116,0.4249,0.5733,0.7687,0.7834,0.8164,0.8472,0.8564,0.8612,0.8867,1.0337,1.1025,1.1623,1.3179,1.3828,1.4088,1.4088,1.4088,1.4088,1.4088,1.4088,1.4088,1.4088,1.4088,1.4088,1.4088,1.4088,1.4088,1.4088,1.4088,1.4088,1.4088,1.4242,1.4429,1.466,1.499,0.0,0.0,1.5705,1.5784,1.5784,1.5784,0.0,0.0,0.0,0.0,1.7025,1.7368,0.0,2.0885,2.0885,2.2005,2.4202,2.4202,2.4202,2.4202,2.4202,2.4202,2.4202,2.4202,2.4202,2.4202,2.4202,2.4202,2.4202,2.4202,2.4202,2.4202,2.4202,2.4202,2.4202,-1.9617,-1.8747,-1.7668,0.0,-1.5215,0.0,-1.3869,-1.3105,-1.2636,-1.282,-1.2157,-1.1558,-1.1335,-0.99,-0.9112,-0.941,0.0,0.0,-0.8546,-0.7974,-0.728,-0.6426,-0.5616,-0.4846,-0.4079,-0.3882,-0.3763,-0.3724,-0.2823,-0.1999,-0.1175,-0.0313,0.051,0.1296,0.1296,0.1296,0.1296,0.1296,0.1296,0.1296,0.1296,0.1314,0.138,0.1302,0.2469,0.4112,0.4154,0.5521,0.7357,0.7738,0.8009,0.8229,0.8516,0.8612,0.8784,0.9646,1.0549,1.1494,1.2443,1.3392,1.4088,1.4088,1.4088,1.4088,1.4088,1.4088,1.4088,1.4088,1.4088,1.4088,1.4088,1.4088,1.4088,1.4088,1.4088,1.4088,1.4088,1.4088,1.4095,1.4115,0.0,0.0,1.5035,1.5504,1.5784,0.0,1.5784,0.0,0.0,0.0,1.6687,1.6707,1.7358,1.8693,2.0885,2.0987,2.2055,2.4202,2.4202,2.4202,2.4202,2.4202,2.4202,2.4202,2.4202,2.4202,2.4202,2.4202,2.4202,2.4202,2.4202,2.4202,2.4202,2.4202,2.4202,2.4202,0.0,0.0,-1.6915,-1.6009,-1.5144,-1.4358,-1.368,-1.2886,-1.2378,-1.2452,-1.1744,-1.0993,-1.0346,-0.9377,-0.8546,-0.805,-0.7863,-0.7595,-0.7134,-0.6475,-0.5815,-0.5162,-0.4499,-0.4073,-0.3882,-0.3841,-0.3489,-0.2824,-0.1998,-0.1136,-0.0274,0.0588,0.1099,0.1296,0.1296,0.1296,0.1296,0.1296,0.1296,0.1296,0.1296,0.1655,0.2141,0.1536,0.2811,0.4834,0.4274,0.5398,0.7192,0.7564,0.7838,0.8123,0.848,0.8612,0.8784,0.9646,1.0549,1.1494,1.2443,1.3392,1.4088,1.4088,1.4088,1.4088,1.4088,1.4088,1.4088,1.4088,1.4088,1.4088,1.4088,1.4088,1.4088,1.4088,1.4088,1.4088,1.4088,1.4088,1.4168,0.0,1.4743,1.5095,1.5277,1.5618,1.5784,0.0,0.0,1.5784,1.5784,1.6172,1.648,1.67,1.7862,1.9294,2.0885,2.17,2.2828,2.4202,2.4202,2.4202,2.4202,2.4202,2.4202,2.4202,2.4202,2.4202,2.4202,2.4202,2.4202,2.4202,2.4202,2.4202,2.4202,2.4202,2.4202,2.4202,-1.7531,-1.6862,-1.6044,-1.4931,-1.4394,-1.3854,-1.3062,-1.2592,-1.215,-1.1781,-1.1068,-1.0239,-0.9448,-0.8618,-0.7978,-0.7522,-0.7484,-0.7253,-0.6641,-0.5973,-0.5315,-0.4737,-0.4114,-0.3802,-0.3802,-0.3802,-0.3372,-0.2511,-0.1293,-0.047,0.0,0.0903,0.1296,0.1296,0.1296,0.1296,0.1296,0.1296,0.1296,0.1296,0.1296,0.1766,0.2435,0.2031,0.3195,0.5079,0.4666,0.5524,0.6903,0.7355,0.7624,0.7827,0.8299,0.8442,0.8589,0.9144,0.9946,1.0847,1.1703,1.2699,1.3568,1.3997,1.4088,1.4088,1.4088,1.4088,1.4088,1.4088,1.4088,1.4088,1.4088,1.4088,1.4088,1.4088,1.4088,1.4088,1.4088,1.4088,1.4142,1.4302,1.4703,1.5068,1.5184,1.5578,1.5784,1.5784,1.5784,0.0,1.5784,1.5979,1.6266,1.6693,1.8088,1.9466,2.0885,2.2467,2.3596,2.4202,2.4202,2.4202,2.4202,2.4202,2.4202,2.4202,2.4202,2.4202,2.4202,2.4202,2.4202,2.4202,2.4202,2.4202,2.4202,2.4202,2.4202,2.4202,-1.6782,-1.6079,-1.5188,-1.3745,-1.3499,-1.3244,-1.2409,-1.2187,-1.1855,-1.1186,-1.0276,-0.9448,-0.878,-0.7978,-0.7446,-0.7369,-0.7369,-0.7099,-0.6483,-0.5819,-0.5201,-0.4582,-0.4075,-0.3802,-0.3802,-0.3684,-0.3175,-0.2314,-0.0744,0.0078,0.0196,0.0942,0.1296,0.1296,0.1296,0.1296,0.1296,0.1296,0.1296,0.1296,0.1414,0.1962,0.2705,0.2705,0.3717,0.5212,0.5161,0.5719,0.6544,0.7152,0.7372,0.7439,0.8064,0.8247,0.8284,0.8427,0.9039,0.986,1.074,1.1875,1.3009,1.3786,1.3997,1.4004,1.4046,1.4046,1.4039,1.4088,1.4088,1.4088,1.4088,1.4088,1.4088,1.4088,1.4088,1.4088,1.4088,0.0,1.4088,1.4088,1.4646,1.5008,1.5008,1.5491,1.5784,1.5784,1.5784,1.5784,1.5784,1.5784,1.6147,1.6937,1.8289,1.9767,2.1387,2.3279,2.4202,2.4202,2.4202,2.4202,2.4202,2.4202,2.4202,2.4202,2.4202,2.4202,2.4202,2.4202,2.4202,2.4251,2.4251,2.4251,2.4301,2.4301,2.4301,2.4301,-1.6,-1.5321,-1.4494,-1.3637,-1.3499,-1.3244,-1.2409,-1.1706,-1.1223,-1.1111,-0.9793,-0.8851,-0.8703,-0.7978,-0.7292,-0.6791,-0.6756,-0.644,-0.578,-0.5162,-0.4582,-0.3958,-0.3841,-0.3802,-0.3802,-0.3098,-0.2313,-0.1489,-0.047,0.0392,0.1099,0.1218,0.1296,0.1296,0.1296,0.1296,0.1296,0.1296,0.1296,0.1375,0.2041,0.2821,0.3599,0.3599,0.4652,0.5986,0.5299,0.5584,0.6432,0.698,0.7152,0.7262,0.7835,0.8057,0.8052,0.8025,0.8247,0.8914,1.0537,1.21,1.3307,1.3483,1.3525,1.3568,1.3737,1.3779,1.3828,1.4039,1.4088,1.4088,1.4088,1.4088,1.4088,1.4088,1.4088,1.4088,1.4088,0.0,1.4088,1.4088,1.4646,1.5008,1.5008,1.5491,1.5784,1.5784,1.5784,1.5784,1.5784,1.5784,1.6526,1.8114,1.9207,2.1073,2.3687,2.4053,2.4202,2.4202,2.4202,2.4202,2.4202,2.4202,2.4202,2.4202,2.4202,2.4202,2.4202,2.4202,2.4291,2.443,2.443,2.4587,2.4784,2.4784,2.4784,2.4784,-1.4645,-1.425,-1.3745,-1.2989,-1.2842,-1.2586,-1.1781,-1.1335,-1.0775,-0.9906,-0.9155,-0.8399,-0.7672,-0.7249,-0.6753,-0.6131,-0.5744,-0.5434,-0.5124,-0.4854,-0.4426,-0.3841,-0.3802,-0.3567,-0.3096,-0.2273,-0.145,-0.0587,0.0274,0.0903,0.1296,0.1296,0.1296,0.1296,0.1296,0.1296,0.1296,0.1415,0.1415,0.1375,0.2313,0.313,0.383,0.43,0.5201,0.6261,0.5828,0.6022,0.6497,0.6876,0.7058,0.7207,0.7572,0.7664,0.7663,0.7639,0.8195,0.913,1.0605,1.18,1.279,1.3264,1.3398,1.3434,1.3525,1.361,1.3737,1.387,1.4004,1.4088,1.4088,1.4088,1.4088,1.4088,1.4088,0.0,0.0,1.4088,1.4088,1.4088,1.4646,1.5008,1.5008,1.5491,1.5784,1.5784,1.5784,1.5784,1.5784,1.5784,1.6622,1.8361,2.0309,2.2275,2.4202,2.4202,2.4202,2.4202,2.4202,2.4202,2.4202,2.4202,2.4202,2.4202,2.4291,2.4341,2.439,2.4538,2.4637,2.4735,2.4735,2.4784,2.4854,2.4637,2.4694,2.4854,-1.3339,-1.2865,-1.2425,-1.1842,-1.17,-1.1477,-1.0919,-1.0657,-1.0094,-0.8851,-0.8513,-0.7863,-0.6595,-0.6483,-0.617,-0.5312,-0.4929,-0.4623,-0.4504,-0.4504,-0.427,-0.3802,-0.3606,-0.3176,-0.2511,-0.1528,-0.0666,0.0,0.0863,0.1296,0.1296,0.1296,0.1296,0.1296,0.1335,0.1375,0.1375,0.1533,0.161,0.1726,0.2662,0.348,0.4219,0.5079,0.5822,0.6451,0.6451,0.6525,0.6714,0.6907,0.7061,0.7242,0.7368,0.7407,0.7442,0.7463,0.8094,0.906,1.0261,1.1198,1.2008,1.291,1.3178,1.3264,1.3313,1.3434,1.361,1.3695,1.387,1.4046,1.4088,1.4088,1.4088,1.4088,0.0,0.0,0.0,1.4088,1.4115,1.4182,1.4687,1.5035,1.5102,1.5531,1.5784,1.5784,1.5784,1.5784,1.5784,1.5784,1.6711,1.8697,2.1179,2.3038,2.4202,2.4202,2.4202,2.4202,2.4202,2.4202,2.4251,2.4251,2.4301,2.435,2.4538,2.4578,2.4587,2.4833,2.4932,2.4981,2.4981,2.503,2.5041,2.4612,2.466,2.4888,-1.2382,-1.1044,-0.9933,-1.004,-0.9933,-0.9857,-0.997,-0.9339,-0.8851,-0.8703,-0.7906,-0.698,-0.6041,-0.6121,-0.5699,-0.4341,-0.4501,-0.4467,-0.3919,-0.388,-0.3841,-0.3802,-0.302,-0.2549,-0.2511,-0.094,-0.0078,0.0,0.0863,0.1296,0.1296,0.1296,0.1296,0.1296,0.1493,0.1572,0.1572,0.1611,0.2041,0.274,0.3441,0.4297,0.5267,0.617,0.6637,0.6865,0.6865,0.6865,0.6903,0.7103,0.718,0.7223,0.7423,0.7504,0.7541,0.7728,0.7671,0.7812,0.9064,1.028,1.1369,1.2177,1.2566,1.2833,1.3052,1.3137,1.3264,1.361,1.3737,1.3822,1.4039,1.4088,1.4088,1.4088,0.0,0.0,1.4088,1.4088,1.4188,1.4456,1.477,1.5115,1.5337,1.5645,1.5784,1.5784,1.5784,1.5784,1.5784,1.5784,1.7039,1.982,2.1578,2.3038,2.4202,2.4202,2.4202,2.4202,2.4202,2.4291,2.448,2.448,2.4587,2.4833,2.4883,2.4883,2.4883,2.4883,2.5039,2.5284,2.5284,2.544,2.5586,2.5187,2.504,2.506,-1.0565,-1.0002,-0.9631,-0.9707,-0.9744,-0.9593,-0.9064,-0.8723,-0.8275,-0.7668,-0.7249,-0.6553,-0.5306,-0.5428,-0.5046,-0.3606,-0.388,-0.3919,-0.3413,-0.3645,-0.3567,-0.302,-0.2668,-0.1999,-0.0979,-0.0313,0.0274,0.0824,0.1139,0.1375,0.1493,0.1493,0.1572,0.169,0.1768,0.1768,0.1807,0.2433,0.2821,0.3091,0.4533,0.5273,0.558,0.6437,0.6826,0.6903,0.6903,0.698,0.7103,0.718,0.7296,0.7369,0.7334,0.7296,0.7308,0.7254,0.7089,0.7213,0.8691,0.9527,1.0326,1.17,1.2149,1.2216,1.2345,1.2727,1.3096,1.322,1.362,1.3997,1.4088,1.4088,1.4088,1.4088,0.0,1.4088,1.4088,1.4088,1.4195,1.4482,1.4783,1.5122,1.5364,1.5658,1.5784,1.5784,1.5784,1.5784,1.5784,1.7452,1.8893,1.9982,2.2322,2.3746,2.4202,2.4341,2.439,2.439,2.4538,2.4686,2.4735,2.4735,2.4784,2.4883,2.5088,2.5137,2.5137,2.5342,2.544,2.5538,2.5538,2.5586,2.5606,2.4932,2.4834,2.5037,-0.9069,-0.8841,-0.8761,-0.8761,-0.8874,-0.8718,-0.8042,-0.7927,-0.7583,-0.6626,-0.6433,-0.5812,-0.4258,-0.4419,-0.4109,-0.2824,-0.3137,-0.3255,-0.2943,-0.302,-0.294,-0.2511,-0.1999,-0.1175,-0.0039,0.0313,0.0784,0.1375,0.1454,0.1572,0.169,0.169,0.1768,0.1887,0.1964,0.2003,0.2042,0.3018,0.3485,0.3715,0.5196,0.5935,0.6167,0.6749,0.7019,0.7096,0.7096,0.7176,0.7296,0.7296,0.7369,0.7484,0.733,0.7296,0.7257,0.7061,0.7019,0.7361,0.8656,0.9252,0.9846,1.1373,1.182,1.192,1.196,1.2457,1.2943,1.3067,1.3541,1.3997,1.4088,1.4088,1.4088,1.4088,1.4088,1.4088,1.4088,1.4088,1.4229,1.4616,1.4836,1.5162,1.5491,1.5712,1.5784,1.5784,1.5784,1.5784,1.5784,1.8457,2.0031,2.0119,2.2814,2.435,2.4449,2.4489,2.4529,2.4637,2.4833,2.4932,2.5039,2.5039,2.5079,2.5137,2.5342,2.544,2.544,2.5635,2.5693,2.5693,2.5693,2.5606,2.5439,2.4687,2.4521,2.4626,-0.808,-0.7433,-0.6899,-0.6899,-0.6899,-0.6861,-0.6861,-0.6861,-0.6553,-0.5699,-0.5425,-0.4644,-0.2973,-0.2974,-0.2781,-0.1959,-0.2275,-0.2511,-0.2511,-0.1921,-0.1843,-0.2431,-0.0901,0.0,0.0,0.1059,0.1611,0.1611,0.1808,0.1887,0.1887,0.1887,0.1887,0.1926,0.2119,0.2196,0.2273,0.3056,0.3912,0.4763,0.5386,0.6247,0.7223,0.7223,0.7334,0.7484,0.7484,0.7484,0.7484,0.7484,0.7484,0.7484,0.7484,0.7484,0.7446,0.7257,0.7633,0.8232,0.8846,0.9458,1.0165,1.123,1.1682,1.1954,1.2154,1.245,1.2814,1.3231,1.3493,1.3779,1.4039,1.4088,1.4088,1.4088,1.4088,1.4088,1.4088,1.4088,1.4352,1.4941,1.5015,1.5197,1.5772,1.5784,1.5784,1.5784,1.5784,1.5784,1.5784,1.8449,2.0119,2.0385,2.309,2.4627,2.4883,2.4637,2.4637,2.4883,2.4883,2.5039,2.5284,2.5284,2.544,2.5693,2.5693,2.5693,2.5693,2.5693,2.5693,2.5693,2.5693,2.5459,2.5057,2.458,2.415,2.3789,-0.6984,-0.6282,-0.577,-0.577,-0.5422,-0.5112,-0.496,-0.4921,-0.4805,-0.4377,-0.4297,-0.383,-0.2704,-0.2898,-0.2781,-0.1959,-0.2275,-0.2314,-0.1882,-0.0863,-0.0275,-0.0313,0.0157,0.0705,0.1335,0.165,0.1808,0.1808,0.1887,0.1964,0.2119,0.2119,0.2198,0.2315,0.2393,0.2743,0.3365,0.4185,0.5002,0.5812,0.663,0.7134,0.7407,0.7407,0.7446,0.7484,0.7484,0.7484,0.7484,0.7484,0.7484,0.7484,0.7484,0.7484,0.7599,0.8093,0.8165,0.8385,0.9679,0.9992,1.0127,1.0988,1.1406,1.1637,1.1917,1.2416,1.2911,1.3233,1.3666,1.3997,1.4088,1.4088,1.4088,1.4088,1.4088,1.4088,1.4088,1.4262,1.4536,1.4961,1.5189,1.5418,1.5792,1.5784,1.5784,1.5784,1.5981,1.6076,1.6076,1.861,2.0243,2.0691,2.3082,2.4648,2.5186,2.5088,2.5088,2.5186,2.5382,2.5489,2.5586,2.5586,2.5635,2.5693,2.5693,2.5693,2.5693,2.5693,2.5693,2.5693,2.5693,2.5459,2.5057,2.458,2.415,2.375,-0.5902,-0.5506,-0.519,-0.4763,-0.4491,-0.4219,-0.4027,-0.3988,-0.3832,-0.3365,-0.3288,-0.2976,-0.2119,-0.2235,-0.2196,-0.1687,-0.1648,-0.1372,-0.0784,0.0235,0.098,0.1332,0.1371,0.1529,0.1887,0.1963,0.2003,0.2003,0.2081,0.2199,0.2314,0.2314,0.2547,0.3015,0.3015,0.3483,0.4338,0.5118,0.5738,0.6279,0.7134,0.7484,0.7484,0.7484,0.7484,0.7484,0.7484,0.7484,0.7484,0.7484,0.7484,0.7484,0.7484,0.7446,0.7522,0.8241,0.8466,0.8732,0.9949,1.0368,1.0625,1.1111,1.1421,1.1708,1.2037,1.2615,1.3151,1.3362,1.3798,1.4088,1.4088,1.4088,1.4088,1.4088,1.4088,1.4088,1.4088,1.4335,1.4629,1.4975,1.5217,1.5511,1.5751,1.5784,1.5784,1.5784,1.6028,1.6359,1.677,1.8887,2.0506,2.1497,2.3413,2.4765,2.543,2.544,2.544,2.544,2.5635,2.5693,2.5693,2.5693,2.5693,2.5693,2.5693,2.5693,2.5693,2.5693,2.5693,2.5693,2.5693,2.5361,2.4775,2.4512,2.4043,2.3496,-0.4885,-0.496,-0.4761,-0.383,-0.3793,-0.3795,-0.3599,-0.356,-0.3287,-0.251,-0.2393,-0.2119,-0.1375,-0.1296,-0.1296,-0.1296,-0.0668,0.0,0.0628,0.1255,0.1882,0.247,0.2511,0.2315,0.1964,0.2119,0.2235,0.2235,0.2392,0.2511,0.2511,0.2588,0.3056,0.3791,0.3869,0.4338,0.5157,0.5893,0.624,0.6395,0.7173,0.7484,0.7484,0.7484,0.7484,0.7484,0.7484,0.7484,0.7522,0.7599,0.7595,0.7633,0.771,0.7599,0.7561,0.8199,0.8732,0.9301,0.9916,1.0738,1.1453,1.1478,1.1746,1.208,1.2466,1.2962,1.3402,1.3599,1.3901,1.4088,1.4088,1.4088,1.4088,1.4088,1.4088,1.4088,1.4088,1.4355,1.4663,1.4975,1.5244,1.5538,1.5758,1.5825,1.5832,1.5784,1.6163,1.6777,1.7684,1.9323,2.0989,2.2595,2.3956,2.5025,2.5684,2.5693,2.5693,2.5693,2.5693,2.5693,2.5693,2.5693,2.5693,2.5693,2.5693,2.5693,2.5693,2.5693,2.5693,2.5693,2.5693,2.5177,2.4473,2.4434,2.3851,2.3149,-0.4066,-0.356,-0.3056,-0.2821,-0.2314,-0.1883,-0.1844,-0.1844,-0.1766,-0.157,-0.1571,-0.1492,-0.1335,-0.1296,-0.1296,-0.1296,-0.0668,0.0196,0.1294,0.1528,0.1882,0.247,0.2511,0.2472,0.2354,0.2433,0.2431,0.2431,0.247,0.2511,0.2511,0.321,0.3638,0.383,0.4457,0.5196,0.597,0.6125,0.6591,0.7249,0.7442,0.7484,0.7484,0.7484,0.7484,0.7484,0.7484,0.7484,0.7599,0.8246,0.8437,0.8546,0.9183,0.9367,0.948,1.0239,1.0432,1.0588,1.1335,1.1595,1.1726,1.2151,1.2467,1.2719,1.2798,1.3186,1.3625,1.3941,1.4041,1.4088,1.4088,1.4088,1.4088,1.4088,1.4088,1.4088,1.4088,1.4543,1.4934,1.5001,1.5424,1.5758,1.5771,1.5981,1.6028,1.5832,1.7131,1.7917,1.7948,2.0127,2.1825,2.2868,2.3944,2.4847,2.5684,2.5693,2.5693,2.5693,2.5693,2.5693,2.5693,2.5693,2.5693,2.5693,2.5693,2.5693,2.5693,2.5693,2.5693,2.5693,2.5693,2.54,2.4883,2.4541,2.4092,2.3603,-0.3195,-0.28,-0.2393,-0.2002,-0.1571,-0.1296,-0.1296,-0.1296,-0.1296,-0.1296,-0.1296,-0.1178,-0.0864,-0.0825,-0.0707,-0.0432,0.0235,0.0902,0.1568,0.1882,0.2156,0.247,0.2511,0.2511,0.2511,0.2511,0.2511,0.2511,0.2511,0.2511,0.2511,0.3404,0.3986,0.4416,0.5196,0.6047,0.6822,0.6822,0.7092,0.7484,0.7484,0.7484,0.7484,0.7484,0.7484,0.7484,0.7484,0.7748,0.8131,0.8551,0.896,0.9334,0.9782,0.982,0.9895,1.0732,1.0807,1.0838,1.1626,1.1855,1.1963,1.2387,1.2759,1.3088,1.3186,1.3559,1.3901,1.4055,1.4088,1.4088,1.4088,1.4088,1.4088,1.4088,1.4088,1.4135,1.4275,1.4683,1.5062,1.5202,1.5558,1.5784,1.5784,1.6163,1.6265,1.6021,1.7505,1.8565,1.8872,2.0692,2.2287,2.3634,2.4127,2.4844,2.5674,2.5693,2.5693,2.5693,2.5693,2.5693,2.5693,2.5693,2.5693,2.5693,2.5693,2.5693,2.5693,2.5693,2.5693,2.5693,2.5693,2.5459,2.5057,2.458,2.4014,2.3447,-0.2292,-0.2217,-0.1979,-0.1365,-0.121,-0.1173,-0.1295,-0.1218,-0.1139,-0.1139,-0.1021,-0.0746,-0.0196,-0.0157,0.0118,0.0707,0.1294,0.1646,0.1763,0.2235,0.2511,0.2511,0.2511,0.2511,0.2511,0.2511,0.2511,0.2511,0.2666,0.2705,0.2743,0.3754,0.4572,0.5234,0.6047,0.6822,0.7484,0.7484,0.7484,0.7484,0.7484,0.7484,0.7484,0.7484,0.7484,0.7484,0.7484,0.8016,0.8737,0.8851,0.9448,1.0121,1.0271,1.0196,1.0196,1.0844,1.095,1.0944,1.1626,1.1929,1.2131,1.2529,1.2916,1.33,1.36,1.3908,1.4088,1.4088,1.4088,1.4088,1.4088,1.4088,1.4088,1.4088,1.4088,1.4188,1.4482,1.4776,1.5115,1.5357,1.5698,1.5879,1.5879,1.6487,1.6817,1.6541,1.801,1.9293,2.0113,2.1284,2.2711,2.4348,2.4414,2.4844,2.5674,2.5693,2.5693,2.5693,2.5693,2.5693,2.5693,2.5693,2.5693,2.5693,2.5693,2.5693,2.5693,2.5693,2.5693,2.5693,2.5693,2.5508,2.5117,2.4609,2.3881,2.3208,-0.1392,-0.0992,-0.0778,-0.1137,-0.0837,-0.069,-0.1214,-0.0825,-0.0432,-0.0432,0.0,0.0393,0.0471,0.0471,0.0746,0.1412,0.1528,0.1803,0.2353,0.247,0.2511,0.2511,0.2511,0.2511,0.2511,0.2511,0.2511,0.2511,0.3249,0.3638,0.3675,0.5151,0.5931,0.6086,0.6938,0.7407,0.7484,0.7484,0.7484,0.7484,0.7484,0.7484,0.7484,0.7484,0.7484,0.7484,0.7484,0.8016,0.8813,0.9523,1.0276,1.1068,1.1781,1.1966,1.1966,1.2077,1.2077,1.2077,1.2187,1.2224,1.2401,1.2967,1.314,1.3353,1.3901,1.4055,1.4088,1.4088,1.4088,1.4088,1.4088,1.4088,1.4088,1.4088,1.4088,1.4188,1.4482,1.4776,1.5115,1.5357,1.5846,1.617,1.617,1.7372,1.8056,1.7762,1.9914,2.123,2.1123,2.2262,2.3347,2.4394,2.4414,2.4844,2.5674,2.5693,2.5693,2.5693,2.5693,2.5693,2.5693,2.5693,2.5693,2.5693,2.5693,2.5693,2.5693,2.5693,2.5693,2.5693,2.5693,2.5654,2.5499,2.4717,2.4111,2.3701,-0.025,-0.0072,-0.0037,-0.0259,-0.0111,-0.0037,-0.0301,-0.0113,0.0075,0.0075,0.0343,0.0693,0.1078,0.1441,0.1765,0.2078,0.2117,0.2235,0.247,0.2511,0.2511,0.2511,0.2511,0.2511,0.2511,0.2978,0.321,0.321,0.3599,0.4025,0.4494,0.5661,0.6202,0.624,0.7096,0.7484,0.7484,0.7484,0.7484,0.7484,0.7484,0.7484,0.7484,0.7484,0.7484,0.7561,0.8016,0.8965,1.0094,1.0464,1.1099,1.1818,1.2194,1.2305,1.2305,1.2305,1.2305,1.2305,1.2305,1.2425,1.269,1.31,1.3293,1.352,1.3995,1.4088,1.4088,1.4088,1.4088,1.4088,1.4088,1.4088,1.4088,1.4088,1.4222,1.4429,1.473,1.5017,1.5586,1.6568,1.6551,1.6857,1.7956,1.8419,1.8742,1.9055,2.0692,2.1641,2.1543,2.2545,2.3383,2.4043,2.4297,2.4717,2.5361,2.5567,2.5693,2.5693,2.5693,2.5693,2.5693,2.5693,2.5693,2.5693,2.5693,2.5693,2.5693,2.5693,2.5693,2.5693,2.5693,2.5382,2.498,2.4834,2.4365,2.3828]},{"header":{"parameterUnit":"m.s-1","parameterCategory":1,"la1":30.6,"la2":28.766,"lo1":-90.7593,"lo2":-88.6598,"dy":0.0162,"dx":0.0183,"nx":116,"ny":114,"refTime":"2023-05-18T12:00:00:Z","depth":0,"parameterNumber":3,"parameterNumberName":"V-component_of_WINDS"},"data":[0.0,0.0,0.0,0.0,0.0,0.0,0.0,0.0,0.0,0.0,0.0,0.0,0.0,0.0,0.0,0.0,0.0,0.0,0.0,0.0,0.0,0.0,0.0,0.0,0.0,0.0,0.0,0.0,0.0,0.0,0.0,0.0,0.0,0.0,0.0,0.0,0.0,0.0,0.0,0.0,0.0,0.0,0.0,0.0,0.0,0.0,0.0,0.0,0.0,0.0,0.0,0.0,0.0,0.0,0.0,0.0,0.0,0.0,0.0,0.0,0.0,0.0,0.0,0.0,0.0,0.0,0.0,0.0,0.0,0.0,0.0,0.0,0.0,0.0,0.0,0.0,0.0,0.0,0.0,0.0,0.0,0.0,0.0,0.0,0.0,0.0,0.0,0.0,0.0,0.0,0.0,0.0,0.0,0.0,0.0,0.0,0.0,0.0,0.0,0.0,0.0,0.0,0.0,0.0,0.0,0.0,0.0,0.0,0.0,0.0,0.0,0.0,0.0,0.0,0.0,0.0,0.0,0.0,0.0,0.0,0.0,0.0,0.0,0.0,0.0,0.0,0.0,0.0,0.0,0.0,0.0,0.0,0.0,0.0,0.0,0.0,0.0,0.0,0.0,0.0,0.0,0.0,0.0,0.0,0.0,0.0,0.0,0.0,0.0,0.0,0.0,0.0,0.0,0.0,0.0,0.0,0.0,0.0,0.0,0.0,0.0,0.0,0.0,0.0,0.0,0.0,0.0,0.0,0.0,0.0,0.0,0.0,0.0,0.0,0.0,0.0,0.0,0.0,0.0,0.0,0.0,0.0,0.0,0.0,0.0,0.0,0.0,0.0,0.0,0.0,0.0,0.0,0.0,0.0,0.0,0.0,0.0,0.0,0.0,0.0,0.0,0.0,0.0,0.0,0.0,0.0,0.0,0.0,0.0,0.0,0.0,0.0,0.0,0.0,0.0,0.0,0.0,0.0,0.0,0.0,0.0,0.0,0.0,0.0,0.0,0.0,0.0,0.0,0.0,0.0,0.0,0.0,0.0,0.0,0.0,0.0,0.0,0.0,0.0,0.0,0.0,0.0,0.0,0.0,0.0,0.0,0.0,0.0,0.0,0.0,0.0,0.0,0.0,0.0,0.0,0.0,0.0,0.0,0.0,0.0,0.0,0.0,0.0,0.0,0.0,0.0,0.0,0.0,0.0,0.0,0.0,0.0,0.0,0.0,0.0,0.0,0.0,0.0,0.0,0.0,0.0,0.0,0.0,0.0,0.0,0.0,0.0,0.0,0.0,0.0,0.0,0.0,0.0,0.0,0.0,0.0,0.0,0.0,0.0,0.0,0.0,0.0,0.0,0.0,0.0,0.0,0.0,0.0,0.0,0.0,0.0,0.0,0.0,0.0,0.0,0.0,0.0,0.0,0.0,0.0,0.0,0.0,0.0,0.0,0.0,0.0,0.0,0.0,0.0,0.0,0.0,0.0,0.0,0.0,0.0,0.0,0.0,0.0,0.0,0.0,0.0,0.0,0.0,0.0,0.0,0.0,0.0,0.0,0.0,0.0,0.0,0.0,0.0,0.0,0.0,0.0,0.0,0.0,0.0,0.0,0.0,0.0,0.0,0.0,0.0,0.0,0.0,0.0,0.0,0.0,0.0,0.0,0.0,0.0,0.0,0.0,0.0,0.0,0.0,0.0,0.0,0.0,0.0,0.0,0.0,0.0,0.0,0.0,0.0,0.0,0.0,0.0,0.0,0.0,0.0,0.0,0.0,0.0,0.0,0.0,0.0,0.0,0.0,0.0,0.0,0.0,0.0,0.0,0.0,0.0,0.0,0.0,0.0,0.0,0.0,0.0,0.0,0.0,0.0,0.0,0.0,0.0,0.0,0.0,0.0,0.0,0.0,0.0,0.0,0.0,0.0,0.0,0.0,0.0,0.0,0.0,0.0,0.0,0.0,0.0,0.0,0.0,0.0,0.0,0.0,0.0,0.0,0.0,0.0,0.0,0.0,0.0,0.0,0.0,0.0,0.0,0.0,0.0,0.0,0.0,0.0,0.0,0.0,0.0,0.0,0.0,0.0,0.0,0.0,0.0,0.0,0.0,0.0,0.0,0.0,0.0,0.0,0.0,0.0,0.0,0.0,0.0,0.0,0.0,0.0,0.0,0.0,0.0,0.0,0.0,0.0,0.0,0.0,0.0,0.0,0.0,0.0,0.0,0.0,0.0,0.0,0.0,0.0,0.0,0.0,0.0,0.0,0.0,0.0,0.0,0.0,0.0,0.0,0.0,0.0,0.0,0.0,0.0,0.0,0.0,0.0,0.0,0.0,0.0,0.0,0.0,0.0,0.0,0.0,0.0,0.0,0.0,0.0,0.0,0.0,0.0,0.0,0.0,0.0,0.0,0.0,0.0,0.0,0.0,0.0,0.0,0.0,0.0,0.0,0.0,0.0,0.0,0.0,0.0,0.0,0.0,0.0,0.0,0.0,0.0,0.0,0.0,0.0,0.0,0.0,0.0,0.0,0.0,0.0,0.0,0.0,0.0,0.0,0.0,0.0,0.0,0.0,0.0,0.0,0.0,0.0,0.0,0.0,0.0,0.0,0.0,0.0,0.0,0.0,0.0,0.0,0.0,0.0,0.0,0.0,0.0,0.0,0.0,0.0,0.0,0.0,0.0,0.0,0.0,0.0,0.0,0.0,0.0,0.0,0.0,0.0,0.0,0.0,0.0,0.0,0.0,0.0,0.0,0.0,0.0,0.0,0.0,0.0,0.0,0.0,0.0,0.0,0.0,0.0,0.0,0.0,0.0,0.0,0.0,0.0,0.0,0.0,0.0,0.0,0.0,0.0,0.0,0.0,0.0,0.0,0.0,0.0,0.0,0.0,0.0,0.0,0.0,0.0,0.0,0.0,0.0,0.0,0.0,0.0,0.0,0.0,0.0,0.0,0.0,0.0,0.0,0.0,0.0,0.0,0.0,0.0,0.0,0.0,0.0,0.0,0.0,0.0,0.0,0.0,0.0,0.0,0.0,0.0,0.0,0.0,0.0,0.0,0.0,0.0,0.0,0.0,0.0,0.0,0.0,0.0,0.0,0.0,0.0,0.0,0.0,0.0,0.0,0.0,0.0,0.0,0.0,0.0,0.0,0.0,0.0,0.0,0.0,0.0,0.0,0.0,0.0,0.0,0.0,0.0,0.0,0.0,0.0,0.0,0.0,0.0,0.0,0.0,0.0,0.0,0.0,0.0,0.0,0.0,0.0,0.0,0.0,0.0,0.0,0.0,0.0,0.0,0.0,0.0,0.0,0.0,0.0,0.0,0.0,0.0,0.0,0.0,0.0,0.0,0.0,0.0,0.0,0.0,0.0,0.0,0.0,0.0,0.0,0.0,0.0,0.0,0.0,0.0,0.0,0.0,0.0,0.0,0.0,0.0,0.0,0.0,0.0,0.0,0.0,0.0,0.0,0.0,0.0,0.0,0.0,0.0,0.0,0.0,0.0,0.0,0.0,0.0,0.0,0.0,0.0,0.0,0.0,0.0,0.0,0.0,0.0,0.0,0.0,0.0,0.0,0.0,0.0,0.0,0.0,0.0,0.0,0.0,0.0,0.0,0.0,0.0,0.0,0.0,0.0,0.0,0.0,0.0,0.0,0.0,0.0,0.0,0.0,0.0,0.0,0.0,0.0,0.0,0.0,0.0,0.0,0.0,0.0,0.0,0.0,0.0,0.0,0.0,0.0,0.0,0.0,0.0,0.0,0.0,0.0,0.0,0.0,0.0,0.0,0.0,0.0,0.0,0.0,0.0,0.0,0.0,0.0,0.0,0.0,0.0,0.0,0.0,0.0,0.0,0.0,0.0,0.0,0.0,0.0,0.0,0.0,0.0,0.0,0.0,0.0,0.0,0.0,0.0,0.0,0.0,0.0,0.0,0.0,0.0,0.0,0.0,0.0,0.0,0.0,0.0,0.0,0.0,0.0,0.0,0.0,0.0,0.0,0.0,0.0,0.0,0.0,0.0,0.0,0.0,0.0,0.0,0.0,0.0,0.0,0.0,0.0,0.0,0.0,0.0,0.0,0.0,0.0,0.0,0.0,0.0,0.0,0.0,0.0,0.0,0.0,0.0,0.0,0.0,0.0,0.0,0.0,0.0,0.0,0.0,0.0,0.0,0.0,0.0,0.0,0.0,0.0,0.0,0.0,0.0,0.0,0.0,0.0,0.0,0.0,0.0,0.0,0.0,0.0,0.0,0.0,0.0,0.0,0.0,0.0,0.0,0.0,0.0,0.0,0.0,0.0,0.0,0.0,0.0,0.0,0.0,0.0,0.0,0.0,0.0,0.0,0.0,0.0,0.0,0.0,0.0,0.0,0.0,0.0,0.0,0.0,0.0,0.0,0.0,0.0,0.0,0.0,0.0,0.0,0.0,0.0,0.0,0.0,0.0,0.0,0.0,0.0,0.0,0.0,0.0,0.0,0.0,0.0,0.0,0.0,0.0,0.0,0.0,0.0,0.0,0.0,0.0,0.0,0.0,0.0,0.0,0.0,0.0,0.0,0.0,0.0,0.0,0.0,0.0,0.0,0.0,0.0,0.0,0.0,0.0,0.0,0.0,0.0,0.0,0.0,0.0,0.0,0.0,0.0,0.0,0.0,0.0,0.0,0.0,0.0,0.0,0.0,0.0,0.0,0.0,0.0,0.0,0.0,0.0,0.0,0.0,0.0,0.0,0.0,0.0,0.0,0.0,0.0,0.0,0.0,0.0,0.0,0.0,0.0,0.0,0.0,0.0,0.0,0.0,0.0,0.0,0.0,0.0,0.0,0.0,0.0,0.0,0.0,0.0,0.0,0.0,0.0,0.0,0.0,0.0,0.0,0.0,0.0,0.0,0.0,0.0,0.0,0.0,0.0,0.0,0.0,0.0,0.0,0.0,0.0,0.0,0.0,0.0,0.0,0.0,0.0,0.0,0.0,0.0,0.0,0.0,0.0,0.0,0.0,0.0,0.0,0.0,0.0,0.0,0.0,0.0,0.0,0.0,0.0,0.0,0.0,0.0,0.0,0.0,0.0,0.0,0.0,0.0,0.0,0.0,0.0,0.0,0.0,0.0,0.0,0.0,0.0,0.0,0.0,0.0,0.0,0.0,0.0,0.0,0.0,0.0,0.0,0.0,0.0,0.0,0.0,0.0,0.0,0.0,0.0,0.0,0.0,0.0,0.0,0.0,0.0,0.0,0.0,0.0,0.0,0.0,0.0,0.0,0.0,0.0,0.0,0.0,0.0,0.0,0.0,0.0,0.0,0.0,0.0,0.0,0.0,0.0,0.0,0.0,0.0,0.0,0.0,0.0,0.0,0.0,0.0,0.0,0.0,0.0,0.0,0.0,0.0,0.0,0.0,0.0,0.0,0.0,0.0,0.0,0.0,0.0,0.0,0.0,0.0,0.0,0.0,0.0,0.0,0.0,0.0,0.0,0.0,0.0,0.0,0.0,0.0,0.0,0.0,0.0,0.0,0.0,0.0,0.0,0.0,0.0,0.0,0.0,0.0,0.0,0.0,0.0,0.0,0.0,0.0,0.0,0.0,0.0,0.0,0.0,0.0,0.0,0.0,0.0,0.0,0.0,0.0,0.0,0.0,0.0,0.0,0.0,0.0,0.0,0.0,0.0,0.0,0.0,0.0,0.0,0.0,0.0,0.0,0.0,0.0,0.0,0.0,0.0,0.0,0.0,0.0,0.0,0.0,0.0,0.0,0.0,0.0,0.0,0.0,0.0,0.0,0.0,0.0,0.0,0.0,0.0,0.0,0.0,0.0,0.0,0.0,0.0,0.0,0.0,0.0,0.0,0.0,0.0,0.0,0.0,0.0,0.0,0.0,0.0,0.0,0.0,0.0,0.0,0.0,0.0,0.0,0.0,0.0,0.0,0.0,0.0,0.0,0.0,0.0,0.0,0.0,0.0,0.0,0.0,0.0,0.0,0.0,0.0,0.0,0.0,0.0,0.0,0.0,0.0,0.0,0.0,0.0,0.0,0.0,0.0,0.0,0.0,0.0,0.0,0.0,0.0,0.0,0.0,0.0,0.0,0.0,0.0,0.0,0.0,0.0,0.0,0.0,0.0,0.0,4.5918,4.59,0.0,0.0,0.0,0.0,0.0,0.0,0.0,0.0,0.0,0.0,0.0,0.0,0.0,0.0,0.0,0.0,0.0,0.0,0.0,0.0,0.0,0.0,0.0,0.0,0.0,0.0,0.0,0.0,0.0,0.0,0.0,0.0,0.0,0.0,0.0,0.0,0.0,0.0,4.0295,4.0158,4.006,4.0167,4.0158,4.006,0.0,0.0,0.0,0.0,0.0,0.0,0.0,0.0,0.0,0.0,0.0,0.0,0.0,0.0,0.0,0.0,0.0,0.0,0.0,0.0,0.0,0.0,0.0,0.0,0.0,0.0,0.0,0.0,0.0,0.0,0.0,0.0,0.0,0.0,0.0,0.0,0.0,0.0,0.0,0.0,0.0,0.0,0.0,0.0,0.0,0.0,0.0,0.0,0.0,0.0,0.0,0.0,0.0,0.0,0.0,0.0,0.0,0.0,0.0,0.0,0.0,0.0,0.0,0.0,0.0,0.0,0.0,0.0,0.0,0.0,4.5968,4.595,0.0,0.0,0.0,0.0,0.0,0.0,0.0,0.0,0.0,0.0,0.0,0.0,0.0,0.0,0.0,0.0,0.0,0.0,0.0,0.0,0.0,0.0,0.0,0.0,0.0,0.0,0.0,0.0,0.0,0.0,0.0,0.0,0.0,0.0,0.0,4.0554,4.0441,4.0408,4.0196,4.001,3.9848,3.9848,3.9848,3.9848,3.9881,0.0,0.0,0.0,0.0,0.0,0.0,0.0,0.0,0.0,0.0,0.0,0.0,0.0,0.0,0.0,0.0,0.0,0.0,0.0,0.0,0.0,0.0,0.0,0.0,0.0,0.0,0.0,0.0,0.0,0.0,0.0,0.0,0.0,0.0,0.0,0.0,0.0,0.0,0.0,0.0,0.0,0.0,0.0,0.0,0.0,0.0,0.0,0.0,0.0,0.0,0.0,0.0,0.0,0.0,0.0,0.0,0.0,0.0,0.0,0.0,0.0,0.0,0.0,4.5923,4.5923,4.5923,4.5923,4.5941,4.6003,4.6003,4.6003,4.5997,4.5997,0.0,0.0,0.0,0.0,0.0,0.0,0.0,0.0,0.0,0.0,0.0,0.0,0.0,0.0,0.0,0.0,0.0,0.0,0.0,0.0,0.0,0.0,4.079,4.0797,4.0797,4.0797,0.0,0.0,0.0,0.0,0.0,0.0,0.0,4.0339,4.0158,3.9969,3.9777,3.9674,3.9638,3.9638,3.9638,3.965,3.9815,3.9903,3.9914,0.0,0.0,0.0,0.0,0.0,0.0,0.0,0.0,0.0,0.0,0.0,0.0,0.0,0.0,0.0,0.0,0.0,0.0,0.0,0.0,0.0,0.0,0.0,0.0,0.0,0.0,0.0,0.0,0.0,0.0,0.0,0.0,0.0,0.0,0.0,0.0,0.0,0.0,0.0,0.0,0.0,4.5986,4.5997,0.0,0.0,0.0,0.0,0.0,0.0,0.0,0.0,0.0,0.0,0.0,0.0,0.0,4.5917,4.5917,4.596,4.5991,4.5991,4.5994,4.5991,4.5991,4.5991,4.5991,4.5997,4.5997,0.0,4.5997,4.5997,0.0,0.0,0.0,0.0,0.0,0.0,0.0,0.0,0.0,0.0,0.0,0.0,0.0,0.0,0.0,0.0,0.0,0.0,0.0,0.0,0.0,4.0797,4.0797,4.0797,4.0797,4.0797,4.0797,0.0,0.0,0.0,0.0,4.0583,4.0496,4.0196,3.9927,3.9738,3.965,3.9589,3.9589,3.9589,3.9589,3.9602,3.9691,3.9738,3.975,3.9834,0.0,0.0,0.0,0.0,0.0,0.0,0.0,0.0,0.0,0.0,0.0,0.0,0.0,0.0,0.0,0.0,0.0,0.0,0.0,0.0,0.0,0.0,0.0,0.0,0.0,0.0,0.0,0.0,0.0,0.0,0.0,0.0,0.0,0.0,0.0,0.0,0.0,0.0,0.0,4.5923,4.596,4.6,4.5978,4.596,0.0,0.0,0.0,0.0,0.0,0.0,0.0,0.0,0.0,4.5964,4.5964,4.5964,4.5964,4.5994,4.6,4.6,4.5997,4.6002,4.6002,4.6002,4.6002,4.6002,4.6002,4.5991,4.6,4.6,4.5983,4.5955,0.0,0.0,0.0,0.0,4.5911,4.5911,0.0,0.0,0.0,0.0,0.0,0.0,0.0,0.0,0.0,0.0,0.0,0.0,4.0797,4.0797,4.0797,4.0797,4.0797,4.0778,4.0726,0.0,0.0,0.0,0.0,4.0389,4.0347,4.0,3.9743,3.9589,3.9589,3.9589,3.9589,3.9626,3.9619,3.9619,3.9656,3.965,3.9589,3.9589,3.9589,3.9589,0.0,0.0,0.0,0.0,0.0,0.0,0.0,0.0,0.0,0.0,0.0,0.0,0.0,0.0,0.0,0.0,0.0,0.0,0.0,0.0,0.0,0.0,0.0,0.0,0.0,0.0,0.0,0.0,0.0,0.0,0.0,0.0,0.0,0.0,0.0,0.0,0.0,4.5911,4.5941,4.5986,4.5994,4.5994,0.0,0.0,0.0,0.0,0.0,0.0,4.6008,4.6011,4.6002,4.6002,4.6002,4.6002,4.6002,4.6002,4.6002,4.6002,4.6002,4.6002,4.6021,4.623,4.6327,4.6346,4.6565,4.6682,4.6623,4.6177,4.6005,4.6008,4.6008,4.5972,4.5935,4.5935,4.6071,4.6265,0.0,0.0,0.0,0.0,0.0,0.0,0.0,0.0,0.0,0.0,0.0,4.0797,4.0797,4.0797,4.0797,4.0797,4.0797,4.072,4.0539,4.0531,4.0433,4.0242,4.0223,4.0129,3.9927,3.9727,3.9602,3.9589,3.9589,3.9589,3.9589,3.9672,3.9693,3.9693,3.9834,3.9785,3.9589,3.9589,3.9589,3.9589,3.9589,0.0,0.0,0.0,0.0,0.0,0.0,0.0,0.0,0.0,0.0,0.0,0.0,0.0,0.0,0.0,0.0,0.0,0.0,0.0,0.0,0.0,0.0,0.0,0.0,0.0,0.0,0.0,0.0,0.0,0.0,0.0,0.0,0.0,0.0,0.0,0.0,0.0,0.0,4.5997,4.6,0.0,0.0,0.0,0.0,4.5997,4.6,4.5997,4.5997,4.6002,4.6002,4.6002,4.6002,4.6002,4.6002,4.6002,4.6002,4.6002,4.6002,4.6002,4.6041,4.6851,4.724,4.7279,4.8114,4.8463,4.8347,4.6682,4.6002,4.5997,4.5997,4.5997,4.5997,4.5997,4.6516,4.7234,0.0,0.0,0.0,0.0,0.0,0.0,0.0,0.0,0.0,4.0797,4.0797,4.0797,4.0797,4.0797,4.0797,4.0797,4.0797,4.072,4.0504,4.0612,4.0554,4.0214,4.0205,4.005,3.9715,3.9638,3.9589,3.9589,3.9589,3.9589,3.9589,3.9665,3.9705,3.9705,3.9837,3.9856,3.9777,3.9777,3.9777,3.9777,3.9777,3.9743,0.0,0.0,0.0,0.0,0.0,0.0,0.0,0.0,0.0,0.0,0.0,0.0,0.0,0.0,0.0,0.0,0.0,0.0,0.0,0.0,0.0,0.0,0.0,0.0,0.0,0.0,0.0,0.0,0.0,0.0,0.0,0.0,0.0,0.0,0.0,0.0,0.0,4.6,4.5997,0.0,4.6005,4.5997,4.5997,4.6005,4.5997,4.6002,4.6002,4.6002,4.6249,4.6812,4.6832,4.7104,4.7667,4.7667,4.7667,4.7667,4.7667,4.7667,4.7686,4.7997,4.8133,4.8153,4.8463,4.8599,4.8541,4.792,4.7667,4.7667,4.7667,4.7667,4.7667,4.7667,4.7861,4.8133,0.0,0.0,0.0,0.0,0.0,0.0,0.0,0.0,0.0,4.0797,4.0797,4.0797,4.0797,4.0797,4.0797,4.0797,4.0733,4.0605,4.0406,4.0465,4.0347,4.001,3.9989,3.987,3.962,3.9589,3.9589,3.9589,3.9589,3.9589,3.9589,3.9701,3.9781,3.9781,3.9954,4.0036,4.0036,4.0036,3.9975,3.99,3.99,3.9856,3.9694,0.0,0.0,0.0,0.0,0.0,0.0,0.0,0.0,0.0,0.0,0.0,0.0,0.0,0.0,0.0,0.0,0.0,0.0,0.0,0.0,0.0,0.0,0.0,0.0,0.0,0.0,0.0,0.0,0.0,0.0,0.0,0.0,0.0,0.0,4.5955,4.6119,4.6408,4.6438,4.654,4.6851,4.6876,4.6876,4.6876,4.6876,4.6876,4.6876,4.6876,4.7143,4.7725,4.7745,4.8017,4.858,4.8599,4.8599,4.8599,4.8599,4.8599,4.8599,4.8891,4.9046,4.9046,4.9357,4.9473,4.9473,4.9473,4.9473,4.9415,4.8832,4.8599,4.8599,4.8599,4.8794,4.9085,0.0,0.0,0.0,0.0,0.0,0.0,0.0,0.0,4.0797,4.0797,4.0797,4.0797,4.0797,4.0797,4.0797,4.0797,4.0612,4.0414,4.0223,4.003,3.9845,3.9626,3.9614,3.962,3.9589,3.9589,3.9589,3.9589,3.9589,3.9589,3.9602,3.9819,3.99,3.9911,4.0176,4.0301,4.0301,4.0301,4.0147,3.9911,3.9911,3.9911,3.9889,0.0,0.0,0.0,0.0,0.0,0.0,0.0,0.0,0.0,0.0,0.0,0.0,0.0,0.0,0.0,0.0,0.0,0.0,0.0,0.0,0.0,0.0,0.0,0.0,0.0,0.0,0.0,0.0,0.0,0.0,0.0,0.0,0.0,4.5956,4.5999,4.6366,4.7233,4.7334,4.7667,4.8522,4.8599,4.8599,4.8599,4.8599,4.8599,4.8599,4.8599,4.8599,4.8638,4.8638,4.8658,4.8677,4.8677,4.8677,4.8677,4.8677,4.8677,4.8702,4.9557,4.9945,4.999,5.0833,5.1202,5.1202,5.1202,5.1202,5.1027,4.9337,4.8677,4.8677,4.8677,4.9221,5.0062,0.0,0.0,0.0,0.0,0.0,0.0,0.0,4.0797,4.0797,4.0797,4.0797,4.0797,4.0797,4.0797,4.0797,4.0797,4.0739,4.0639,4.0441,4.0496,4.0408,4.005,3.9903,3.9743,3.9589,3.9589,3.9589,3.9589,3.9589,3.9589,3.9602,3.9819,3.99,3.9911,4.0176,4.0301,4.0301,4.0301,4.0253,4.0195,4.0195,4.0137,4.0036,0.0,0.0,0.0,0.0,0.0,0.0,0.0,0.0,0.0,0.0,0.0,0.0,0.0,0.0,0.0,0.0,0.0,0.0,0.0,0.0,0.0,0.0,0.0,0.0,0.0,0.0,0.0,0.0,0.0,0.0,0.0,4.6454,4.6874,4.6911,4.6934,4.7268,4.8141,4.8244,4.8347,4.858,4.8599,4.8599,4.8599,4.8599,4.8599,4.8599,4.8599,4.8891,4.9518,4.9537,4.9843,5.0484,5.0484,5.0484,5.0484,5.0484,5.0489,5.0484,5.0736,5.0839,5.0849,5.1106,5.1202,5.1202,5.1202,5.1202,5.1144,5.0678,5.0484,5.0484,5.0484,5.0639,5.0872,0.0,0.0,0.0,0.0,0.0,0.0,0.0,4.0797,4.0797,4.0797,4.0797,4.0797,4.0797,4.0797,4.0797,4.0797,4.0726,4.0612,4.0504,4.0519,4.0449,4.0214,4.0,3.9856,3.9738,3.965,3.9589,3.9589,3.9589,3.9589,3.9602,3.9819,3.99,3.9911,4.0176,4.0319,4.0335,4.0335,4.0379,4.043,4.043,4.0342,4.0234,4.0223,4.0232,4.0211,4.0156,4.0173,4.0204,4.0204,0.0,0.0,0.0,0.0,0.0,0.0,0.0,0.0,0.0,0.0,0.0,0.0,0.0,0.0,0.0,0.0,0.0,0.0,0.0,0.0,0.0,0.0,0.0,0.0,4.6868,4.7462,4.8237,4.8066,4.8172,4.9046,4.9143,4.9279,4.9648,4.9687,4.9687,4.9687,4.9687,4.9687,4.9687,4.9687,4.992,5.0425,5.0445,5.0697,5.1202,5.1202,5.1202,5.1202,5.1194,5.121,5.1203,5.1226,5.1246,5.1245,5.12,5.1196,5.119,5.12,5.1202,0.0,0.0,0.0,0.0,0.0,5.1202,5.1202,0.0,0.0,0.0,0.0,0.0,0.0,0.0,4.0803,4.0797,4.0797,4.0797,4.0797,4.0797,4.0797,4.0797,4.0797,4.0639,4.0519,4.0519,4.0364,4.026,4.0242,4.006,3.9967,3.9927,3.9754,3.9656,3.9656,3.9656,3.9668,3.9679,3.9878,3.9956,3.9967,4.0215,4.037,4.043,4.043,4.0492,4.0595,4.0628,4.0537,4.0411,4.0412,4.0435,4.0423,4.0307,4.0271,4.0279,4.0279,0.0,0.0,0.0,0.0,0.0,0.0,0.0,0.0,0.0,0.0,0.0,0.0,0.0,0.0,0.0,0.0,0.0,0.0,0.0,0.0,0.0,0.0,0.0,0.0,4.7353,4.8012,4.9588,4.9277,4.9176,4.994,5.0037,5.0348,5.1125,5.1202,5.1202,5.1202,5.1202,5.1202,5.1202,5.1202,0.0,0.0,0.0,5.1196,5.1196,5.1196,5.1208,5.12,5.12,5.1211,5.1209,5.1279,5.1299,5.1301,5.1249,5.1211,5.1195,5.1205,5.1194,5.1202,5.1202,5.1202,5.1202,5.1202,5.1202,5.1202,0.0,0.0,0.0,0.0,0.0,0.0,0.0,4.0823,4.0797,4.0797,4.0797,4.0797,4.0797,4.0797,4.0797,4.0797,4.0752,4.0739,4.0739,4.0713,4.0605,4.0449,4.0397,4.0304,4.0148,4.011,4.009,4.009,4.009,4.0081,4.0082,4.0241,4.0292,4.0315,4.0458,4.0557,4.0559,4.0559,4.0574,4.0621,4.072,4.0675,4.0559,4.0566,4.0622,4.0713,4.0694,4.0724,4.0754,4.0754,4.0784,4.0819,4.0809,4.1431,0.0,0.0,0.0,0.0,0.0,0.0,0.0,0.0,0.0,0.0,0.0,0.0,0.0,0.0,0.0,0.0,0.0,0.0,0.0,4.7171,4.832,4.9348,4.9744,5.0267,5.0681,5.0855,5.0912,5.1008,5.1183,5.1202,5.1202,5.1202,5.1202,5.1202,5.1202,5.1202,5.1202,5.1202,5.1202,5.1171,5.1127,5.1171,5.1197,5.121,0.0,0.0,5.1362,5.1327,5.1331,5.1385,5.1302,5.1258,5.1199,5.1202,5.1206,5.1202,5.1202,5.1202,5.1202,5.1202,5.1202,5.1202,0.0,0.0,0.0,0.0,0.0,0.0,0.0,4.0834,4.0797,4.0797,4.0797,4.0797,4.0797,4.0797,4.0797,4.0797,4.0797,4.0797,4.0797,4.0797,4.0765,4.0653,4.0561,4.0457,4.0347,4.0251,4.0205,4.0205,4.0204,4.0203,4.0192,4.0351,4.0396,4.0419,4.054,4.0641,4.0707,4.0707,4.0726,4.0763,4.0823,4.0818,4.0757,4.0756,4.079,4.0848,4.0848,4.0873,4.0907,4.0907,4.0907,4.0985,4.1412,4.2151,4.3015,0.0,0.0,0.0,0.0,0.0,0.0,0.0,0.0,0.0,0.0,0.0,0.0,0.0,0.0,4.6445,4.6445,0.0,4.7896,4.8375,4.9156,4.9841,5.0281,5.0783,5.1095,5.1095,5.1165,5.1202,5.1202,5.1202,5.1202,5.1202,5.1202,5.1202,5.1202,5.1202,5.1202,5.1202,5.1165,5.1133,5.1095,5.1134,5.1169,5.1191,5.1199,5.1271,5.1406,5.1367,5.1366,5.1399,5.1366,5.1333,5.1293,5.1236,5.1205,5.1202,5.1202,5.1202,5.1202,5.1202,5.1202,5.1202,0.0,0.0,0.0,0.0,0.0,0.0,0.0,0.0,0.0,4.0848,4.0848,4.0848,4.0848,4.0825,4.0802,4.0797,4.0797,4.0797,4.0797,4.0797,4.0797,4.0797,4.0646,4.0561,4.0561,4.0389,4.0321,4.033,4.0317,4.0323,4.034,4.045,4.0501,4.0489,4.061,4.0719,4.0823,4.0818,4.084,4.0902,4.0903,4.0908,4.0893,4.092,4.0915,4.0893,4.0911,4.0915,4.092,4.0917,4.1023,4.1291,4.1993,4.2917,4.3875,4.4513,4.5265,0.0,0.0,0.0,0.0,0.0,0.0,0.0,0.0,4.5923,4.6058,4.6058,4.6748,4.7347,4.7347,4.8063,4.8875,4.9591,4.9842,5.0171,5.0801,5.1005,5.1081,5.1102,5.1159,5.1202,5.1202,5.1202,5.1202,5.1202,5.1196,5.1171,5.1171,5.1184,5.1184,5.1184,5.114,5.1082,5.1076,5.1121,5.1144,5.1195,5.1238,5.1292,5.1406,5.1393,5.1396,5.1396,5.1404,5.1386,5.1365,5.1258,5.1205,5.1202,5.1202,5.1202,5.1202,5.1202,5.1202,5.1202,0.0,0.0,0.0,0.0,0.0,0.0,0.0,0.0,0.0,4.0986,4.0986,4.0986,4.0986,4.0924,4.0853,4.0803,4.0797,4.0797,4.0797,4.0797,4.0797,4.0797,4.0778,4.0771,4.0771,4.0739,4.0726,4.0726,4.0732,4.0763,4.0815,4.0846,4.0848,4.0835,4.0859,4.0869,4.0893,4.0888,4.0897,4.0907,4.09,4.0906,4.0914,4.0978,4.0945,4.0917,4.0976,4.1,4.099,4.0986,4.1507,4.2165,4.2266,4.3376,4.4663,4.4697,4.5265,4.5893,4.5827,4.5807,4.5807,4.5807,4.5807,4.5807,0.0,4.6406,4.6941,4.6941,4.7657,4.8256,4.8256,4.8972,4.9591,4.9687,5.0299,5.0801,5.0898,5.0963,5.1027,5.1081,5.116,5.1202,5.1202,5.1202,5.1202,5.1202,5.1139,5.1101,5.1101,5.1108,5.1107,5.1107,5.1107,5.1067,5.1,5.113,5.1195,5.1206,5.1318,5.1386,5.1394,5.139,5.1403,5.1396,5.1404,5.1363,5.132,5.1239,5.1205,5.1202,5.1202,5.1202,5.1202,5.1202,5.1202,5.1202,0.0,0.0,0.0,0.0,0.0,0.0,0.0,0.0,0.0,0.0,4.099,4.099,4.099,4.0963,4.0953,4.0915,4.0911,4.0911,4.0911,4.0878,4.0862,4.0862,4.0814,4.0797,4.0797,4.0797,4.0809,4.0794,4.0798,4.0826,4.0902,4.0903,4.0898,4.0907,4.0907,4.092,4.0964,4.0964,4.0957,4.0951,4.0964,4.0968,4.0951,4.0983,4.0975,4.0964,4.0981,4.0994,0.0,4.0996,4.1571,4.2391,4.2902,4.3887,4.4947,4.5398,4.576,4.6002,4.5939,4.5923,4.5905,4.5827,4.6174,4.6561,4.6561,4.7231,4.785,4.785,4.8546,4.9165,4.9165,4.9842,5.0395,5.0395,5.0685,5.0898,5.0898,5.0956,5.1012,5.1046,5.1095,5.1134,5.1133,5.1171,5.1184,5.1147,5.1114,5.1108,5.1101,5.1107,5.1101,5.1101,5.106,5.1042,5.1056,5.1117,5.118,5.1255,5.1325,5.1366,5.1395,5.1391,5.1405,5.1394,5.139,5.1386,5.1361,5.1331,5.1279,5.1257,5.1224,5.1201,5.1196,5.1206,5.1202,5.1202,0.0,0.0,0.0,0.0,0.0,0.0,0.0,0.0,0.0,0.0,0.0,0.0,0.0,4.1039,4.1011,4.0994,4.099,4.099,4.099,4.0941,4.0928,4.0928,4.0878,4.0842,4.0828,4.0828,4.0844,4.0859,4.0858,4.0876,4.0937,4.0937,4.0926,4.0926,4.0926,4.0951,4.0992,4.0997,4.1009,4.0996,4.1015,4.1035,4.1037,4.1033,4.1023,4.1028,4.1028,4.1184,4.1381,4.1388,4.2135,4.3152,4.377,4.4566,4.5377,4.5938,4.6092,4.6086,4.605,4.6202,4.6358,4.6277,4.6862,4.7494,4.7494,4.8157,4.8759,4.8759,4.9436,5.0035,5.0035,5.0511,5.0898,5.0898,5.0898,5.0898,5.0898,5.0948,5.0971,5.1005,5.1046,5.1074,5.1069,5.1134,5.1153,5.1101,5.1075,5.1075,5.1067,5.1053,5.1046,5.1046,5.1022,5.1043,5.11,5.1137,5.1207,5.1297,5.1313,5.1346,5.14,5.1394,5.1405,5.1398,5.1396,5.1394,5.1406,5.1406,5.1362,5.1293,5.1255,5.1236,5.1225,5.1211,5.1192,5.1202,0.0,0.0,0.0,0.0,0.0,0.0,0.0,0.0,0.0,0.0,0.0,0.0,0.0,4.1108,4.1072,4.1016,4.099,4.099,4.099,4.101,4.1007,4.1007,4.1007,4.0955,4.0894,4.0894,4.0928,4.099,4.0992,4.0998,4.1007,4.1008,4.1008,4.1008,4.1008,4.1003,4.0994,4.1003,4.0991,4.1003,4.1078,4.1108,4.1093,4.1093,4.1092,4.1093,4.1091,4.1634,4.2359,4.2362,4.3491,4.4919,4.4879,4.546,4.6158,4.6108,4.6096,4.6102,4.6098,4.6702,4.7368,4.7345,4.7903,4.8469,4.8469,4.9078,4.9668,4.9668,5.0299,5.0859,5.0859,5.0879,5.0898,5.0898,5.0898,5.0898,5.0898,5.0898,5.0941,5.0986,5.1005,5.1012,5.0993,5.106,5.1101,5.1101,5.1046,5.0993,5.1005,5.0948,5.0906,5.0906,5.103,5.1099,5.1105,5.1236,5.1295,5.1297,5.1363,5.1406,5.1404,5.1396,5.1409,5.1408,5.1398,5.1394,5.1406,5.1406,5.1362,5.1297,5.1295,5.1295,5.1288,5.1229,5.1201,5.1202,0.0,0.0,0.0,0.0,0.0,0.0,0.0,0.0,0.0,0.0,0.0,0.0,0.0,0.0,0.0,0.0,4.1033,4.1074,4.1074,4.1076,4.107,4.107,4.1014,4.0961,4.09,4.09,4.0933,4.0996,4.0996,4.1002,4.0992,4.0992,4.0992,4.0992,4.1005,4.1012,4.1064,4.1074,4.1078,4.107,4.1149,4.1169,4.1169,4.1172,4.1172,4.1172,0.0,4.1699,4.2402,4.24,4.3551,4.4997,4.4979,4.5566,4.6386,4.6927,4.6688,4.6488,4.7598,4.7687,4.7582,4.8068,4.8815,4.9433,4.9433,5.0082,5.0694,5.0694,5.0908,5.11,5.103,5.1037,5.1004,5.0921,5.0898,5.0898,5.0898,5.0898,5.0906,5.0921,5.0921,5.0921,5.0921,5.102,5.106,5.0963,5.0998,5.0971,5.0941,5.0906,5.0898,5.0898,5.103,5.112,5.1176,5.1261,5.1328,5.1363,5.1387,5.1405,5.1405,5.1399,5.1396,5.1395,5.1393,5.1397,5.1402,5.14,5.1383,5.1367,5.1366,5.1363,5.1362,5.1291,5.1277,5.1264,0.0,0.0,0.0,0.0,0.0,0.0,0.0,0.0,0.0,0.0,0.0,0.0,0.0,0.0,0.0,0.0,0.0,4.1068,4.1068,4.1066,4.1054,4.1054,4.1047,4.0996,4.0945,4.0959,4.0999,4.1048,4.1049,4.1031,4.1033,4.1033,4.1033,4.1033,4.1049,4.1052,4.1094,4.1092,4.1113,4.1132,4.1169,4.1169,4.1168,4.1142,4.1139,0.0,4.1451,4.2119,4.2826,4.2869,4.4023,4.5468,4.5466,4.5858,4.6406,4.6973,4.6953,4.6992,4.8078,4.8427,4.8578,4.9046,4.9784,5.041,5.041,5.0816,5.1203,5.1203,5.1203,5.1183,5.1142,5.1114,5.1075,5.0983,5.0937,5.0898,5.0898,5.0898,5.0898,5.0898,5.0898,5.0898,5.0898,5.099,5.0998,5.0906,5.0948,5.0948,5.0898,5.0898,5.0929,5.0961,5.1086,5.1176,5.1242,5.1299,5.1361,5.1406,5.1406,5.1405,5.1405,5.1403,5.1401,5.1401,5.1399,5.1398,5.1398,5.1395,5.1393,5.1394,5.1402,5.1404,5.1386,5.1342,5.1334,5.1327,0.0,0.0,0.0,0.0,0.0,0.0,0.0,0.0,0.0,0.0,0.0,0.0,0.0,0.0,0.0,0.0,0.0,0.0,4.0987,4.101,4.099,4.099,4.1064,4.1062,4.0992,4.1056,4.1082,4.1094,4.1088,4.1085,4.1085,4.1085,4.1085,4.1085,4.1093,4.1099,4.1086,4.1089,4.1131,4.1171,4.1117,4.1087,4.1083,4.1014,4.099,4.1107,4.1906,4.2807,4.3612,4.3729,4.4883,4.6308,4.6308,4.6308,4.6328,4.6406,4.6992,4.7637,4.7754,4.8965,5.0215,5.0254,5.0793,5.1318,5.1318,5.1263,5.1214,5.1214,5.1214,5.1214,5.1211,5.1152,5.1111,5.1105,5.0983,5.0898,5.0898,5.0898,5.0898,5.0898,5.0898,5.0898,5.0898,5.0898,5.0898,5.0898,5.0898,5.0898,5.0898,5.0906,5.0961,5.1099,5.1176,5.1242,5.1297,5.1363,5.1406,5.1406,5.1406,5.1406,5.1406,5.1405,5.1405,5.1405,5.1401,5.1399,5.1399,5.1399,5.1398,5.1398,5.1393,5.139,5.1393,5.1405,5.1406,5.1386,0.0,0.0,0.0,0.0,0.0,0.0,0.0,0.0,0.0,0.0,0.0,0.0,0.0,0.0,0.0,0.0,0.0,0.0,4.0924,4.0963,4.099,4.099,4.0977,4.0935,4.0935,4.0948,4.0948,4.0951,4.0958,4.0954,4.0944,4.0944,4.0944,4.0944,4.0942,4.0958,4.0956,4.1008,4.1033,4.1054,4.1022,4.1037,4.1014,4.1016,4.099,4.1107,4.1906,4.2779,4.3624,4.435,4.5347,4.6308,4.6308,4.6308,4.6562,4.7851,4.793,4.8008,4.9922,5.0312,5.0332,5.0937,5.1249,5.1365,5.1365,5.1363,5.1359,5.1359,5.1359,5.1334,5.1286,5.1225,5.1162,5.1117,5.0983,5.0898,5.0898,5.0898,5.0898,5.0898,5.0898,5.0898,5.0898,5.0898,5.0898,5.0898,5.0898,5.0898,5.0898,5.099,5.1069,5.1099,5.1218,5.1284,5.1297,5.1363,5.1406,5.1406,5.1406,5.1406,5.1406,5.1406,5.1406,5.1406,5.1406,5.1406,5.1406,5.1404,5.1404,5.1403,5.1398,5.1396,5.1396,5.1397,5.1397,5.1397,0.0,0.0,0.0,0.0,0.0,0.0,0.0,0.0,0.0,0.0,0.0,0.0,0.0,0.0,0.0,0.0,0.0,0.0,0.0,4.0893,4.0906,4.0906,4.0894,4.0898,4.0852,4.0882,4.0886,4.087,4.087,4.087,4.0909,4.0909,4.0894,4.0902,4.0902,4.0898,4.0893,4.0964,4.099,0.0,0.0,4.0964,4.0961,4.092,4.0906,4.1062,4.2262,4.3519,4.4682,4.5265,4.5831,4.6308,4.6308,4.6308,4.6562,4.793,4.8242,4.8574,5.0371,5.0801,5.084,5.1289,5.1406,5.1406,5.1406,5.1406,5.1406,5.1406,5.1406,5.1386,5.1359,5.1288,5.1239,5.1195,5.1102,5.1036,5.1036,5.1036,5.1036,5.1036,5.1036,5.1036,5.1036,5.1036,5.1036,5.1036,5.0942,5.0929,5.0983,5.1063,5.1131,5.1183,5.1266,5.1304,5.1338,5.1386,5.1406,5.1406,5.1406,5.1406,5.1406,5.1406,5.1406,5.1406,5.1406,5.1406,5.1406,5.1406,5.1406,5.1405,5.1403,5.1402,5.1401,5.1396,5.1393,5.1408,0.0,0.0,0.0,0.0,0.0,0.0,0.0,0.0,0.0,0.0,0.0,0.0,0.0,0.0,0.0,0.0,0.0,0.0,0.0,0.0,0.0,4.0797,4.0851,4.0849,4.0784,4.0834,4.0837,4.0776,4.0777,4.0811,4.0869,4.0869,4.0858,4.0857,4.0863,4.0875,4.0879,4.0956,4.0963,4.0976,4.0902,4.0888,4.0878,0.0,0.0,4.1184,4.2879,4.4555,4.6027,4.6134,4.6215,4.6289,4.6308,4.6387,4.6641,4.7519,4.8398,4.9258,5.0117,5.0879,5.1406,5.1406,5.1406,5.1406,5.1406,5.1406,5.1406,5.1406,5.1406,5.1406,5.1406,5.1357,5.1297,5.1297,5.1232,5.1203,5.1203,5.1203,5.1203,5.1203,5.1203,5.1203,5.1203,5.1203,5.1203,5.1203,5.1048,5.0984,5.1103,5.112,5.1178,5.1302,5.1304,5.1337,5.1406,5.1406,5.1406,5.1406,5.1406,5.1406,5.1406,5.1406,5.1406,5.1406,5.1406,5.1406,5.1406,5.1406,5.1406,5.1406,5.1405,5.1405,5.1405,5.1401,5.1396,5.1391,0.0,0.0,0.0,0.0,0.0,0.0,0.0,0.0,0.0,0.0,4.0808,4.0797,0.0,0.0,0.0,0.0,0.0,0.0,0.0,0.0,0.0,0.0,4.0765,4.072,4.0713,4.0732,4.0707,4.0636,4.0694,4.0701,4.0647,4.0647,4.0654,4.0661,4.0655,4.0687,4.0732,4.0806,4.0823,4.0837,4.082,4.0827,4.0827,4.0803,0.0,0.0,4.375,4.5079,4.6007,4.6022,4.6118,4.6235,4.6288,4.6797,4.7558,4.8418,4.9297,5.0156,5.0976,5.1289,5.1406,5.1406,5.1406,5.1406,5.1406,5.1406,5.1406,5.1406,5.1406,5.1406,5.1406,5.1357,5.1297,5.1297,5.1232,5.1203,5.1203,5.1203,5.1203,5.1203,5.1203,5.1203,5.1203,5.1203,5.1203,5.1203,5.1174,5.1161,5.1178,5.1242,5.1297,5.1386,5.1386,5.1386,5.1406,5.1406,5.1406,5.1406,5.1406,5.1406,5.1406,5.1406,5.1406,5.1406,5.1406,0.0,5.1406,5.1406,5.1406,5.1406,5.1406,5.1406,5.1406,5.1405,5.1402,5.1396,0.0,0.0,0.0,0.0,0.0,0.0,0.0,4.0958,4.0883,4.0854,4.0821,4.0794,4.0797,4.0797,0.0,0.0,0.0,0.0,0.0,0.0,0.0,0.0,0.0,0.0,4.07,4.07,4.0661,4.0595,0.0,4.0647,4.0646,4.0646,4.0679,4.0699,4.07,4.0713,4.0752,4.079,4.0797,4.0797,4.0797,4.0797,4.0797,0.0,0.0,0.0,4.413,4.517,4.5917,4.598,4.6046,4.6109,4.6167,4.6765,4.7627,4.8564,4.9445,5.0286,5.1152,5.1406,5.1406,5.1406,5.1406,5.1406,5.1406,5.1406,5.1406,5.1406,5.1406,5.1406,5.1406,5.1365,5.1341,5.1341,5.133,5.1299,5.1299,5.1299,5.1299,5.1299,5.1299,5.1299,5.1299,5.1299,5.1299,5.1299,5.1299,5.1288,5.1241,5.1325,5.1363,5.1406,5.1406,5.1406,5.1406,5.1406,5.1406,5.1406,5.1406,5.1406,5.1406,5.1406,5.1406,5.1406,5.1406,5.1406,5.1406,5.1406,5.1406,5.1406,5.1406,5.1406,5.1406,5.1406,5.1404,5.1398,0.0,0.0,0.0,0.0,0.0,0.0,0.0,4.1,4.0984,4.0926,4.0859,4.0826,4.082,4.0809,4.0797,0.0,0.0,0.0,0.0,0.0,0.0,0.0,0.0,0.0,4.0713,0.0,0.0,4.0621,4.0621,0.0,0.0,0.0,0.0,0.0,4.0759,4.0784,4.0784,4.079,4.0797,0.0,0.0,4.0797,4.0835,0.0,0.0,0.0,0.0,4.5258,4.5821,4.591,4.5964,4.6,4.6236,4.6906,4.7762,4.8755,4.9623,5.0412,5.1167,5.1385,5.1386,5.1406,5.1406,5.1406,5.1406,5.1406,5.1406,5.1406,5.1406,5.1406,5.1406,5.1406,5.1406,5.1406,5.1406,5.1406,5.1406,5.1406,5.1406,5.1406,5.1406,5.1406,5.1406,5.1406,5.1406,5.1406,5.1406,5.1385,5.133,5.1365,5.1406,5.1406,5.1406,5.1406,5.1406,5.1406,5.1406,5.1406,5.1406,5.1406,5.1406,5.1406,5.1406,5.1406,5.1406,5.1406,5.1406,5.1406,5.1406,5.1406,5.1406,5.1406,5.1406,5.1406,5.1405,5.1398,0.0,0.0,0.0,0.0,0.0,0.0,0.0,4.1038,4.0992,4.0988,4.093,4.0898,4.0893,4.0843,4.0797,0.0,0.0,0.0,0.0,0.0,0.0,0.0,0.0,0.0,0.0,0.0,0.0,4.0694,4.0694,0.0,0.0,0.0,0.0,0.0,0.0,4.07,4.0707,4.0759,0.0,0.0,0.0,0.0,0.0,0.0,0.0,0.0,0.0,4.5749,4.5807,4.5801,4.5827,4.5963,4.677,4.7692,4.8651,4.9531,5.0412,5.1112,5.1271,5.1302,5.133,5.1386,5.1406,5.1406,5.1406,5.1406,5.1406,5.1406,5.1406,5.1406,5.1406,5.1406,5.1406,5.1406,5.1406,5.1406,5.1406,5.1406,5.1406,5.1406,5.1406,5.1406,5.1406,5.1406,5.1406,5.1406,5.1406,5.1406,5.1386,5.1406,5.1406,5.1406,5.1406,5.1406,5.1406,5.1406,5.1406,5.1406,5.1406,5.1406,5.1406,5.1406,5.1406,5.1406,5.1406,5.1406,0.0,5.1406,5.1406,5.1406,5.1406,5.1406,5.1406,5.1406,5.1405,5.1398,0.0,0.0,0.0,0.0,0.0,0.0,4.0971,4.1078,4.1068,4.1068,4.0996,4.0967,4.0967,4.0908,4.0832,0.0,0.0,0.0,0.0,0.0,0.0,0.0,0.0,0.0,0.0,0.0,4.079,4.0752,4.0752,0.0,0.0,0.0,0.0,0.0,0.0,4.0752,4.0752,4.079,0.0,0.0,0.0,0.0,0.0,0.0,0.0,0.0,0.0,0.0,4.5807,4.5807,4.5807,4.5962,4.6825,4.7721,4.8654,4.958,5.0451,5.1152,5.1274,5.1297,5.1325,5.1386,5.1406,5.1406,5.1406,5.1406,5.1406,5.1406,5.1406,5.1406,5.1406,5.1406,5.1406,5.1406,5.1406,5.1406,5.1406,5.1406,5.1406,5.1406,5.1406,5.1406,5.1406,5.1406,5.1406,5.1406,5.1406,5.1406,5.1406,5.1406,5.1406,5.1406,5.1406,5.1406,5.1406,5.1406,5.1406,5.1406,5.1406,5.1406,5.1406,5.1406,5.1406,5.1406,5.1406,5.1406,0.0,5.1406,5.1406,5.1406,5.1406,5.1406,5.1406,5.1406,5.1405,5.1398,0.0,0.0,0.0,0.0,0.0,3.9808,4.0935,4.1107,4.1107,4.1107,4.1068,4.103,4.103,4.0975,4.0917,4.0859,0.0,0.0,0.0,0.0,0.0,0.0,0.0,0.0,0.0,0.0,4.0797,4.0797,4.0797,4.0797,0.0,0.0,4.0797,4.0797,0.0,0.0,0.0,0.0,0.0,0.0,0.0,0.0,0.0,0.0,0.0,0.0,0.0,0.0,0.0,0.0,0.0,4.5962,4.6825,4.7521,4.8239,4.9434,5.0364,5.106,5.1223,5.1274,5.1291,5.1385,5.1406,5.1406,5.1406,5.1406,5.1406,5.1406,5.1406,5.1406,5.1406,5.1406,5.1406,5.1406,5.1406,5.1406,5.1406,5.1406,5.1406,5.1406,5.1406,5.1406,5.1406,5.1406,5.1406,5.1406,5.1406,5.1406,5.1406,5.1406,5.1406,5.1406,5.1406,5.1406,5.1406,5.1406,5.1406,5.1406,5.1406,5.1406,5.1406,5.1406,5.1406,5.1406,5.1406,5.1406,0.0,5.1406,5.1406,5.1406,5.1406,5.1406,5.1406,5.1406,5.1405,5.1398,0.0,0.0,0.0,0.0,0.0,0.0,4.0838,4.1107,4.1107,4.1107,4.1107,4.1107,4.1107,4.1038,4.0996,4.0992,0.0,0.0,0.0,0.0,0.0,0.0,0.0,0.0,0.0,0.0,4.0797,4.0797,4.0797,4.0797,4.0797,4.0797,4.0797,4.0797,0.0,0.0,0.0,0.0,0.0,0.0,0.0,0.0,0.0,0.0,0.0,0.0,0.0,0.0,0.0,0.0,0.0,0.0,0.0,4.7115,4.7444,4.9184,5.0268,5.0954,5.1152,5.1203,5.1219,5.1363,5.1406,5.1406,5.1406,5.1406,5.1406,5.1406,5.1406,5.1406,5.1406,5.1406,5.1406,5.1406,5.1406,5.1406,5.1406,5.1406,5.1406,5.1406,5.1406,5.1406,5.1406,5.1406,5.1406,5.1406,5.1406,5.1406,5.1406,5.1406,5.1406,5.1406,5.1406,5.1406,5.1406,5.1406,5.1406,5.1406,5.1406,5.1406,5.1406,5.1406,5.1406,5.1406,5.1406,5.1406,0.0,5.1406,5.1406,5.1406,5.1406,5.1406,5.1406,5.1406,5.1405,5.1398,0.0,0.0,0.0,0.0,0.0,0.0,0.0,4.1107,4.1107,4.1107,4.1107,4.1107,4.1107,4.1078,4.1071,4.1071,0.0,0.0,0.0,0.0,0.0,0.0,0.0,0.0,0.0,0.0,4.0797,4.0797,4.0797,4.0797,4.0797,4.0797,4.0797,4.0797,4.0797,4.0797,0.0,0.0,0.0,0.0,0.0,0.0,4.1332,0.0,0.0,0.0,0.0,0.0,0.0,0.0,0.0,0.0,0.0,0.0,0.0,4.7753,4.8952,5.0235,5.0942,5.1171,5.1225,5.1302,5.1363,5.1406,5.1406,5.1406,5.1406,5.1406,5.1406,5.1406,5.1406,5.1406,5.1406,5.1406,5.1406,5.1406,5.1406,5.1406,5.1406,5.1406,5.1406,5.1406,5.1406,5.1406,5.1406,5.1406,5.1406,5.1406,5.1406,5.1406,5.1406,5.1406,5.1406,5.1406,5.1406,5.1406,5.1406,5.1406,5.1406,5.1406,5.1406,5.1406,5.1406,5.1406,5.1406,5.1406,5.1406,5.1406,5.1406,5.1406,5.1406,5.1406,5.1406,5.1406,5.1405,5.1398,0.0,0.0,0.0,0.0,0.0,0.0,0.0,4.1106,4.1106,4.11,4.11,4.1097,4.111,4.1107,4.1107,4.1107,0.0,0.0,0.0,0.0,0.0,0.0,0.0,0.0,0.0,4.0809,4.0797,4.0797,4.0797,4.0797,4.0797,4.0797,4.0797,4.0797,4.0797,4.0797,0.0,0.0,0.0,0.0,0.0,0.0,4.139,0.0,0.0,0.0,0.0,0.0,0.0,0.0,0.0,0.0,0.0,0.0,0.0,0.0,4.7869,4.9009,5.0273,5.0888,5.1183,5.1279,5.1333,5.1364,5.1386,5.1406,5.1406,5.1406,5.1406,5.1406,5.1406,5.1406,5.1406,5.1406,5.1406,5.1406,5.1406,5.1406,5.1406,5.1406,5.1406,5.1406,5.1406,5.1406,5.1406,5.1406,5.1406,5.1406,5.1406,5.1406,5.1406,5.1406,5.1406,5.1406,5.1406,5.1406,5.1406,5.1406,5.1406,5.1406,5.1406,5.1406,5.1406,5.1406,5.1406,5.1406,0.0,5.1406,5.1406,5.1406,5.1406,5.1406,5.1406,5.1406,5.1404,5.1398,0.0,0.0,0.0,0.0,0.0,0.0,0.0,0.0,4.1108,4.1098,4.1098,4.1092,4.1094,4.1091,4.1091,4.1091,0.0,0.0,0.0,0.0,0.0,0.0,0.0,0.0,0.0,4.0794,4.0797,4.0797,4.0797,4.0797,4.0797,4.0797,4.0797,4.0797,4.0797,4.0797,0.0,0.0,0.0,0.0,0.0,0.0,0.0,0.0,0.0,0.0,0.0,0.0,0.0,0.0,0.0,0.0,0.0,0.0,0.0,0.0,0.0,0.0,0.0,5.0342,5.1044,5.1247,5.1295,5.1325,5.1386,5.1406,0.0,5.1406,5.1406,5.1406,5.1406,5.1406,5.1406,5.1406,5.1406,5.1406,5.1406,5.1406,5.1406,5.1406,5.1406,5.1406,5.1406,5.1406,5.1406,5.1406,5.1406,5.1406,5.1406,5.1406,5.1406,5.1406,5.1406,5.1406,5.1406,5.1406,5.1406,5.1406,5.1406,5.1406,5.1406,5.1406,5.1406,5.1406,5.1406,5.1406,5.1406,5.1406,5.1406,5.1406,5.1406,5.1406,5.1406,5.1405,5.1402,5.1397,0.0,0.0,0.0,0.0,0.0,0.0,0.0,0.0,0.0,0.0,4.1108,4.1108,4.1103,4.1095,4.1109,0.0,0.0,0.0,0.0,0.0,0.0,0.0,0.0,0.0,0.0,4.0796,4.0806,4.0797,4.0797,4.0797,4.0797,4.0797,4.0797,4.0797,4.0797,4.0797,0.0,0.0,0.0,0.0,0.0,0.0,0.0,0.0,0.0,0.0,4.5258,4.5807,0.0,0.0,0.0,0.0,0.0,0.0,0.0,0.0,4.6581,4.7342,4.8442,0.0,5.0289,5.1031,5.1269,5.1325,0.0,5.1406,5.1406,5.1406,5.1406,5.1406,5.1406,5.1406,5.1406,5.1406,5.1406,5.1406,5.1406,5.1406,5.1406,5.1406,5.1406,5.1406,5.1406,5.1406,5.1406,5.1406,5.1406,5.1406,5.1406,5.1406,5.1406,5.1406,5.1406,5.1406,5.1406,5.1406,5.1406,5.1406,5.1406,5.1406,5.1406,5.1406,5.1406,5.1406,5.1406,5.1406,5.1406,5.1406,5.1406,5.1406,5.1406,5.1405,5.1405,5.1402,5.1397,5.1391,0.0,0.0,0.0,0.0,0.0,0.0,0.0,0.0,0.0,0.0,0.0,0.0,0.0,0.0,0.0,0.0,0.0,0.0,0.0,0.0,0.0,0.0,0.0,0.0,4.0883,4.0859,4.0853,4.084,4.0812,4.08,4.08,4.0809,4.0797,4.0797,4.0797,4.0797,0.0,0.0,0.0,0.0,4.0797,0.0,0.0,0.0,0.0,0.0,4.4775,4.549,0.0,4.5807,4.5807,4.5807,0.0,0.0,0.0,0.0,4.6136,4.6689,4.756,4.8766,4.9995,5.0956,5.1232,5.1282,5.1385,5.1406,5.1406,5.1406,5.1406,5.1406,5.1406,5.1406,5.1406,5.1406,5.1406,5.1406,5.1406,5.1406,5.1406,5.1406,5.1406,5.1406,5.1406,5.1406,5.1406,5.1406,5.1406,5.1406,5.1406,5.1406,5.1406,5.1406,5.1406,5.1406,5.1406,5.1406,5.1406,5.1406,5.1406,5.1406,5.1406,5.1406,5.1406,5.1406,5.1406,5.1406,5.1406,5.1406,5.1406,5.1406,5.1404,5.1402,5.1402,5.1397,5.1393,5.1387,0.0,0.0,0.0,0.0,0.0,0.0,0.0,0.0,0.0,0.0,0.0,0.0,0.0,0.0,0.0,0.0,0.0,0.0,0.0,0.0,0.0,0.0,0.0,4.1,4.0996,4.0939,4.0917,4.0907,4.0844,4.0823,4.0818,4.0831,4.0827,4.0827,4.0827,4.0827,0.0,0.0,0.0,0.0,4.079,0.0,0.0,0.0,0.0,0.0,0.0,0.0,0.0,4.5807,4.5807,4.5807,4.5807,0.0,0.0,0.0,0.0,0.0,4.6879,4.8306,4.9776,5.0757,5.1113,5.1255,5.1365,5.1406,5.1406,5.1406,5.1406,5.1406,5.1406,5.1406,5.1406,5.1406,5.1406,5.1406,5.1406,5.1406,5.1406,5.1406,5.1406,5.1406,5.1406,5.1406,5.1406,5.1406,5.1406,5.1406,5.1406,5.1406,5.1406,5.1406,5.1406,5.1406,5.1406,5.1406,5.1406,5.1406,5.1406,5.1406,5.1406,5.1406,5.1406,5.1406,5.1406,0.0,5.1406,5.1405,5.1404,5.1404,5.1399,5.1397,5.1396,5.1385,5.138,5.1353,0.0,0.0,0.0,0.0,0.0,0.0,0.0,0.0,0.0,0.0,0.0,0.0,0.0,0.0,0.0,0.0,0.0,0.0,0.0,0.0,0.0,0.0,4.1094,4.1068,4.0996,4.0988,4.0967,4.0907,4.0898,4.0878,4.0878,4.0888,4.0883,4.0883,4.0883,4.0883,4.0883,0.0,0.0,0.0,4.0796,0.0,0.0,0.0,0.0,0.0,0.0,0.0,0.0,4.5807,4.5807,4.5807,4.5807,0.0,0.0,0.0,0.0,0.0,4.696,4.7962,4.8989,4.9874,5.0706,5.1299,5.1386,5.1406,5.1406,5.1406,5.1406,5.1406,5.1406,5.1406,5.1406,5.1406,5.1406,5.1406,5.1406,5.1406,5.1406,5.1406,5.1406,5.1406,5.1406,5.1406,5.1406,5.1406,5.1406,5.1406,5.1406,5.1406,5.1406,5.1406,5.1406,5.1406,5.1406,5.1406,5.1406,5.1406,5.1406,5.1406,5.1406,5.1406,5.1406,5.1406,0.0,5.1405,5.1405,5.1402,5.1399,5.1399,5.1394,5.1391,5.1387,5.1274,5.1225,5.1214,0.0,0.0,0.0,0.0,0.0,0.0,0.0,0.0,0.0,0.0,0.0,0.0,0.0,0.0,0.0,0.0,0.0,0.0,0.0,0.0,0.0,4.1095,4.1109,4.1091,4.1045,4.1045,4.1038,4.1019,4.0975,4.0943,4.0943,4.0921,4.0907,4.0907,4.0907,4.0907,4.0907,4.0907,4.0874,4.0849,0.0,0.0,0.0,0.0,0.0,0.0,0.0,0.0,0.0,0.0,4.5807,4.5821,4.5893,0.0,0.0,0.0,0.0,0.0,4.6506,4.7625,4.8806,4.9218,5.0308,5.1325,5.1386,5.1406,5.1406,5.1406,5.1406,5.1406,5.1406,5.1406,5.1406,5.1406,5.1406,5.1406,5.1406,5.1406,5.1406,5.1406,5.1406,5.1406,5.1406,5.1406,5.1406,5.1406,5.1406,5.1406,5.1406,5.1406,5.1406,5.1406,5.1406,5.1406,5.1406,5.1406,5.1406,5.1406,5.1406,5.1406,5.1406,5.1405,5.1404,5.1404,0.0,5.1402,5.1402,5.1396,5.1394,5.1391,5.1321,5.1286,5.1277,5.1146,5.1067,5.1023,0.0,0.0,0.0,0.0,0.0,0.0,0.0,0.0,0.0,0.0,0.0,0.0,0.0,0.0,0.0,0.0,0.0,0.0,0.0,0.0,4.1093,4.11,4.1098,4.1109,4.111,4.1107,4.1107,4.1107,4.1041,4.1027,4.1027,4.0975,4.0939,4.0939,4.0939,4.0939,4.0939,4.0939,4.0935,4.0921,0.0,0.0,0.0,0.0,0.0,0.0,0.0,0.0,0.0,0.0,0.0,0.0,0.0,0.0,0.0,4.6084,4.6112,4.6125,4.6125,4.7437,4.8813,4.8813,5.008,5.1335,5.1386,5.1406,5.1406,5.1406,5.1406,5.1406,5.1406,5.1406,5.1406,5.1406,5.1406,5.1406,5.1406,5.1406,5.1406,5.1406,5.1406,5.1406,5.1406,5.1406,5.1406,5.1406,5.1406,5.1406,5.1406,5.1406,5.1406,5.1406,5.1406,5.1406,5.1406,5.1406,5.1406,5.1406,5.1405,5.1404,5.1404,5.14,5.1398,5.1398,5.1397,5.1396,5.1395,5.1361,5.1353,5.1349,5.1211,5.1137,5.1128,5.1016,5.0911,5.085,0.0,0.0,0.0,0.0,0.0,0.0,0.0,0.0,0.0,0.0,0.0,0.0,0.0,0.0,0.0,0.0,0.0,0.0,0.0,0.0,4.1107,4.1093,4.1103,4.1109,4.111,4.1107,4.1107,4.1107,4.1107,4.1085,4.1085,4.1085,4.1081,4.1081,4.1081,4.1081,4.1081,4.1081,4.1045,4.0992,4.0988,0.0,0.0,0.0,0.0,0.0,0.0,0.0,0.0,0.0,0.0,0.0,0.0,0.0,4.6091,4.6098,4.6142,4.6199,4.6199,4.751,4.8886,4.8886,5.0156,5.1386,5.1406,5.1406,5.1406,5.1406,5.1406,5.1406,5.1406,5.1406,5.1406,5.1406,5.1406,5.1406,5.1406,5.1406,5.1405,5.1406,5.1404,5.1401,5.1405,5.1402,5.1399,5.1399,5.1399,5.1399,5.1399,5.1399,5.1399,5.1399,5.1399,5.1399,5.1399,5.1399,5.1402,5.1405,5.1405,5.1403,5.1399,5.1398,5.1398,5.1398,5.1393,5.139,5.1387,5.1268,5.1214,5.1203,5.1063,5.0985,5.0925,5.0917,5.0825,5.0712,0.0,0.0,0.0,0.0,0.0,0.0,0.0,0.0,0.0,0.0,0.0,0.0,0.0,0.0,0.0,0.0,0.0,0.0,0.0,0.0,4.1095,4.1093,4.1108,4.1095,4.111,4.1107,4.1107,4.1107,4.1107,4.1107,4.1107,4.1107,4.1107,4.1107,4.1107,4.1107,4.1107,4.1107,4.1081,4.1068,4.1023,4.0939,0.0,0.0,0.0,0.0,0.0,0.0,0.0,0.0,4.5575,4.6068,4.6142,4.6158,4.6165,4.6209,4.6241,4.6265,4.6265,4.7557,4.8906,4.8906,5.0156,5.1406,5.1406,5.1406,5.1406,5.1406,5.1406,5.1406,5.1406,5.1406,5.1406,5.1406,5.1405,5.1404,5.1405,5.1404,5.1402,5.1403,5.14,5.1399,5.1401,5.1399,5.1398,5.1398,5.1398,5.1398,5.1398,5.1398,5.1398,5.1398,5.1398,5.1398,5.1398,5.1322,5.1288,5.1286,5.1349,5.1367,5.1277,5.1288,5.1223,5.1156,5.1148,5.1144,5.1139,5.1094,5.1074,5.1058,5.0979,5.0859,5.0785,5.0785,5.074,5.0712,0.0,0.0,0.0,0.0,0.0,0.0,0.0,0.0,0.0,0.0,0.0,0.0,0.0,0.0,0.0,0.0,0.0,0.0,4.1109,4.1109,4.1099,4.1093,4.1093,4.11,4.111,4.1107,4.1107,4.1107,4.1107,4.1107,4.1107,4.1107,4.1107,4.1107,4.1107,4.1107,4.1107,4.1107,4.1107,4.1085,4.103,4.0967,0.0,0.0,0.0,0.0,0.0,0.0,0.0,0.0,4.5352,4.6142,4.6209,4.6237,4.624,4.6289,4.6308,4.6308,4.6308,4.7578,4.8906,4.8906,5.0156,5.1406,5.1406,5.1406,5.1406,5.1406,5.1406,5.1406,5.1406,5.1405,5.1405,5.1405,5.1402,5.1397,5.1335,5.1348,5.1343,5.1346,5.131,5.131,5.1394,5.1366,5.1338,5.1338,5.1338,5.1338,5.1338,5.1303,5.1284,5.1338,5.1303,5.1277,5.1277,5.1174,5.1141,5.1148,5.1223,5.1239,5.1144,5.1146,5.1079,5.1002,5.1002,5.1002,5.1002,5.0979,5.094,5.0903,5.0855,5.0775,5.0712,5.0712,5.0712,5.0712,0.0,0.0,0.0,0.0,0.0,0.0,0.0,0.0,0.0,0.0,0.0,0.0,0.0,0.0,0.0,0.0,0.0,0.0,4.109,4.109,4.108,4.1093,4.1093,4.11,4.111,4.1107,4.1107,4.1107,4.1107,4.1107,4.1107,4.1107,4.1107,4.1107,4.1107,4.1107,4.1107,4.1107,4.1107,4.1085,4.103,4.0967,4.0883,0.0,0.0,0.0,0.0,0.0,0.0,0.0,4.5406,4.6209,4.6288,4.6308,4.6308,4.6308,4.6308,4.6308,4.6308,4.7578,4.8906,4.8906,5.0156,5.1406,5.1406,5.1406,5.1406,5.1406,5.1406,5.1406,5.1405,5.1405,5.1404,5.1399,5.1398,5.1349,5.1224,5.1203,5.12,5.1196,5.1089,5.1108,5.1361,5.1274,5.1199,5.1199,5.1199,5.1199,5.1199,5.1069,5.1058,5.1199,5.1063,5.1002,5.1002,5.1002,5.1002,5.1002,5.1002,5.1002,5.1002,5.1002,5.1002,5.1002,5.1002,5.1002,5.099,5.0935,5.0827,5.0712,5.0712,5.0712,5.0712,5.0712,5.0712,5.0712,0.0,0.0,0.0,0.0,0.0,0.0,0.0,0.0,0.0,0.0,0.0,0.0,0.0,0.0,0.0,0.0,0.0,0.0,3.9333,3.9878,4.0182,4.0199,4.0762,4.11,4.111,4.1107,4.1107,4.1107,4.1107,4.1107,4.1107,4.1107,4.1107,4.1107,4.1107,4.1107,4.1107,4.1107,4.1075,4.103,4.1019,4.093,4.0833,0.0,0.0,0.0,0.0,0.0,0.0,0.0,0.0,0.0,4.6094,4.6308,4.6308,4.6308,4.6308,4.6308,4.6308,4.7578,4.8906,4.8906,5.0156,5.1406,5.1406,5.1406,5.1406,5.1406,5.1405,5.1405,5.1402,5.1398,5.137,5.1267,5.1266,5.1213,5.1083,5.105,5.1054,5.1059,5.1017,5.1036,5.1113,5.1084,5.1058,5.1058,5.1058,5.1058,5.1058,5.1025,5.102,5.1058,5.1025,5.1002,5.1002,5.0952,5.0923,5.0923,5.0819,5.0847,5.0923,5.0923,5.0883,5.078,5.078,5.078,5.0799,5.0766,5.074,5.0712,5.0712,5.0712,5.0712,5.0712,5.0712,5.0712,0.0,0.0,0.0,0.0,0.0,0.0,0.0,0.0,0.0,0.0,0.0,0.0,0.0,0.0,0.0,0.0,0.0,0.0,0.0,3.906,3.946,3.9789,4.0294,4.0749,4.1091,4.1107,4.1107,4.1107,4.1107,4.1107,4.1107,4.1107,4.1107,4.1107,4.1107,4.1107,4.1107,4.1075,4.1038,4.0992,4.0939,4.0893,4.083,0.0,0.0,0.0,0.0,0.0,0.0,0.0,0.0,0.0,4.6035,4.6308,4.6308,4.6308,4.6308,4.6308,4.6308,4.7578,4.8906,4.8906,5.0156,5.1406,5.1406,5.1406,5.1406,5.1405,5.1404,5.1402,5.1396,5.1363,5.1299,5.1203,5.1152,5.1079,5.0978,5.0959,5.0966,5.0966,5.0918,5.0905,5.0996,5.0979,5.0966,5.0966,5.0966,5.0966,5.0966,5.0911,5.0903,5.0966,5.0911,5.0874,5.0874,5.0839,5.0827,5.0827,5.075,5.074,5.0827,5.0827,5.0785,5.0712,5.0712,5.0712,5.0712,5.0712,5.0712,5.0712,5.0712,5.0712,5.0712,5.0712,5.0712,5.0712,0.0,0.0,0.0,0.0,0.0,0.0,0.0,0.0,0.0,0.0,0.0,0.0,0.0,0.0,0.0,0.0,0.0,0.0,0.0,0.0,3.8818,3.9535,3.9728,4.0201,4.1071,4.1107,4.1107,4.1107,4.1107,4.1107,4.1107,4.1107,4.1107,4.1107,4.1107,4.1107,4.1081,4.1038,4.1,4.0988,4.0854,4.0854,4.0918,4.0915,0.0,0.0,0.0,0.0,0.0,0.0,0.0,0.0,4.5996,4.6308,4.6308,4.6308,4.6308,4.6308,4.6308,4.7578,4.8906,4.8906,5.0156,5.1406,5.1405,5.1404,5.1404,5.1404,5.1401,5.1395,5.1385,5.1272,5.1183,5.1183,5.1058,5.0959,5.0894,5.0871,5.0871,5.0871,5.0766,5.0773,5.0946,5.0916,5.0871,5.0871,5.0871,5.0871,5.0871,5.0767,5.0758,5.0882,5.0767,5.0712,5.0712,5.0712,5.0712,5.0712,5.0712,5.0712,5.0712,5.0712,5.0712,5.0712,5.0712,5.0712,5.0712,5.0712,5.0712,5.0712,5.0712,5.0712,5.0712,5.0712,5.0712,5.0712,0.0,0.0,0.0,0.0,0.0,0.0,0.0,0.0,0.0,0.0,0.0,0.0,0.0,0.0,0.0,0.0,0.0,0.0,0.0,0.0,3.7625,3.7758,3.9065,4.0201,4.1088,4.1107,4.1107,4.1107,4.1107,4.1107,4.1107,4.1107,4.1107,4.1107,4.1107,4.1075,4.1011,4.1058,4.1029,4.0922,4.0945,4.0971,4.0981,4.097,4.1011,0.0,0.0,0.0,0.0,0.0,0.0,0.0,4.5801,4.6308,4.6308,4.6308,4.6308,4.6308,4.6308,4.7578,4.8906,4.8906,5.0156,5.1405,5.1401,5.1397,5.1394,5.1394,5.1393,5.1361,5.1268,5.1222,5.1141,5.0992,5.0949,5.0887,5.0767,5.074,5.074,5.074,5.0721,5.0721,5.0766,5.0739,5.074,5.074,5.074,5.074,5.074,5.0712,5.0712,5.073,5.0712,5.0712,5.0712,5.0712,5.0712,5.0712,5.0712,5.0712,5.0712,5.0712,5.0712,5.0712,5.0712,5.0712,5.0712,5.0712,5.0712,5.0712,5.0712,5.0712,5.0712,5.0712,5.0712,5.0712,0.0,0.0,0.0,0.0,0.0,0.0,0.0,0.0,0.0,0.0,0.0,0.0,0.0,0.0,0.0,0.0,0.0,0.0,0.0,0.0,3.6795,3.7176,3.8864,4.0006,4.0463,4.0894,4.1092,4.1092,4.1092,4.1093,4.1107,4.1107,4.1081,4.1045,4.1045,4.1025,4.1006,4.1003,4.0974,4.0955,4.0989,4.1025,4.1054,4.1054,4.1083,4.1146,4.1146,0.0,0.0,0.0,0.0,0.0,0.0,0.0,4.6308,4.6308,4.6308,4.6308,4.6308,4.7578,4.9081,4.9902,5.074,5.1401,5.1396,5.1341,5.1301,5.1294,5.1291,5.128,5.1211,5.1128,5.1011,5.0925,5.0841,5.0775,5.0702,5.0712,5.0712,5.0712,5.0712,5.0712,5.0712,5.0712,5.0712,5.0712,5.0712,5.0712,5.0712,5.0712,5.0712,5.0712,5.0712,5.0712,5.0712,5.0712,5.0712,5.0712,5.0712,5.0712,5.0712,5.0712,5.0712,5.0712,5.0712,5.0712,5.0712,5.0712,5.0712,5.0712,5.0712,5.0712,5.0712,5.0712,5.0712,5.0712,0.0,0.0,0.0,0.0,0.0,0.0,0.0,0.0,0.0,0.0,0.0,0.0,0.0,0.0,0.0,0.0,0.0,0.0,0.0,0.0,0.0,3.7187,3.873,3.9646,3.9797,4.0657,4.1107,4.1107,4.1106,4.1109,4.1089,4.1089,4.1075,4.1025,4.1025,4.102,4.1,4.0945,4.0967,4.1025,4.103,4.107,4.1116,4.1116,4.1147,4.1191,4.1191,4.1191,4.1465,4.3125,0.0,0.0,0.0,0.0,4.6308,4.6265,4.6285,4.6286,4.6264,4.7554,4.9255,5.0775,5.1258,5.1367,5.1332,5.1252,5.1164,5.1163,5.1178,5.1155,5.1156,5.0998,5.0887,5.0874,5.0776,5.0712,5.0712,5.0712,5.0712,5.0712,5.0712,5.0712,5.0712,5.0712,5.0712,5.0712,5.0712,5.0712,5.0712,5.0712,5.0712,5.0712,5.0712,5.0712,5.0712,5.0712,5.0712,5.0712,5.0712,5.0712,5.0712,5.0712,5.0712,5.0712,5.0712,5.0712,5.0712,5.0712,5.0712,5.0712,5.0712,5.0712,5.0712,5.0712,5.0712,5.0683,0.0,0.0,0.0,0.0,0.0,0.0,0.0,0.0,0.0,0.0,0.0,0.0,0.0,0.0,0.0,0.0,0.0,0.0,0.0,0.0,0.0,3.7245,3.818,3.9037,3.9777,4.0657,4.1107,4.1107,4.1102,4.1097,4.1091,4.1091,4.1106,4.1097,4.1097,4.1048,4.0994,4.1049,4.1074,4.1088,4.1147,4.1171,4.1191,4.1191,4.1191,4.1191,4.1191,4.1191,4.1465,4.3125,4.3691,0.0,0.0,0.0,4.6285,4.6158,4.6207,4.6279,4.6154,4.7476,4.9089,4.9903,5.0667,5.119,5.1089,5.1047,5.1036,5.1031,5.1031,5.1016,5.0944,5.0925,5.0866,5.0759,5.0712,5.0712,5.0712,5.0712,5.0712,5.0712,5.0712,5.0712,5.0712,5.0712,5.0712,5.0712,5.0712,5.0712,5.0712,5.0712,5.0712,5.0712,5.0712,5.0712,5.0712,5.0712,5.0712,5.0712,5.0712,5.0712,5.0712,5.0712,5.0712,5.0712,5.0712,5.0712,5.0712,5.0712,5.0712,5.0712,5.0712,5.0712,5.0712,5.0712,5.0712,5.0663,0.0,0.0,0.0,0.0,0.0,0.0,0.0,0.0,0.0,0.0,0.0,0.0,0.0,0.0,0.0,0.0,0.0,0.0,0.0,0.0,0.0,3.6492,3.7315,3.8198,3.9119,3.9939,4.0603,4.1092,4.1093,4.1094,4.1093,4.1093,4.1086,4.1035,4.1035,4.1055,4.1058,4.1093,4.1123,4.1168,4.1191,4.1191,4.1191,4.1191,4.1191,4.1191,4.1191,4.1191,4.1465,4.3124,4.3691,4.4003,4.5758,0.0,0.0,0.0,4.6092,4.6177,4.6594,4.768,4.886,4.9655,5.047,5.1064,5.1,5.0966,5.0932,5.0932,5.0886,5.0844,5.0887,5.0833,5.0776,5.0702,5.0712,5.0712,5.0712,5.0712,5.0712,5.0712,5.0712,5.0712,5.0712,5.0712,5.0712,5.0712,5.0712,5.0712,5.0712,5.0712,5.0712,5.0712,5.0712,5.0712,5.0712,5.0712,5.0712,5.0712,5.0712,5.0712,5.0712,5.0712,5.0712,5.0712,5.0712,5.0712,5.0712,5.0712,5.0712,5.0712,5.0712,5.0594,5.0421,5.0421,5.0325,5.0166,0.0,0.0,0.0,0.0,0.0,0.0,0.0,0.0,0.0,0.0,0.0,0.0,0.0,0.0,0.0,0.0,0.0,0.0,0.0,0.0,0.0,3.5933,3.6754,3.7661,3.8572,3.939,4.0232,4.1098,4.11,4.1105,4.1092,4.1112,4.1092,4.1044,4.1044,4.107,4.1139,4.1139,4.1147,4.1191,4.1191,4.1191,4.1191,4.1172,4.1172,4.1172,4.1171,4.1171,4.1406,4.2869,4.3513,4.3961,4.5454,4.5998,0.0,0.0,0.0,4.6016,4.6688,4.7509,4.8374,4.9202,5.0046,5.0694,5.0875,5.0898,5.085,5.085,5.0776,5.074,5.0825,5.0776,5.0712,5.0712,5.0712,5.0712,5.0712,5.0712,5.0712,5.0712,5.0712,5.0712,5.0712,5.0712,5.0712,5.0712,5.0712,5.0712,5.0712,5.0712,5.0712,5.0712,5.0712,5.0712,5.0712,5.0712,5.0712,5.0712,5.0712,5.0712,5.0712,5.0712,5.0712,5.0712,5.0712,5.0712,5.0712,5.0712,5.0653,5.0565,5.0565,5.0388,5.0111,5.0111,4.9968,4.9803,0.0,0.0,0.0,0.0,0.0,0.0,0.0,0.0,0.0,0.0,0.0,0.0,0.0,3.5531,3.5543,3.5604,0.0,0.0,0.0,0.0,0.0,3.5991,3.6832,0.0,3.8572,3.939,4.0232,4.1098,4.1104,4.1108,4.1092,4.1172,4.1191,4.1191,4.1191,4.1191,4.1191,4.1191,4.1191,4.1191,4.1191,4.1191,4.1191,4.1132,4.1112,4.1111,4.1109,4.1108,4.1244,4.2162,4.3021,4.3836,4.4629,4.5445,4.6059,0.0,0.0,0.0,4.5936,4.6604,4.7451,4.8183,4.9025,4.9858,5.0556,5.0712,5.0702,5.0702,5.0693,5.0693,5.0702,5.0693,5.0712,5.0712,5.0712,5.0712,5.0712,5.0712,5.0712,5.0712,5.0712,5.0712,5.0712,5.0712,5.0712,5.0712,5.0712,5.0712,5.0712,5.0712,5.0712,5.0712,5.0712,5.0712,5.0712,5.0712,5.0712,5.0712,5.0712,5.0712,5.0712,5.0712,5.0712,5.0712,5.0712,5.0712,5.0712,5.0712,5.0504,5.0237,5.0237,5.0062,4.9811,4.9811,4.9798,4.9762,0.0,0.0,0.0,0.0,0.0,0.0,0.0,0.0,0.0,0.0,0.0,0.0,0.0,3.5501,3.5532,3.5581,3.5637,0.0,0.0,0.0,0.0,3.5801,3.6112,3.6933,3.8377,3.8722,3.9605,4.1037,4.1084,4.1111,4.1152,4.1191,4.1191,4.1191,4.1191,4.1191,4.1191,4.1191,4.1191,4.1191,4.1191,4.1172,4.1132,4.1112,4.1091,4.1109,4.1108,4.1107,4.1224,4.2119,4.2925,4.3714,4.4536,4.5311,4.5871,4.5719,4.5668,4.5684,4.57,4.6333,4.7071,4.7334,4.8435,4.9544,4.9817,5.0308,5.0712,5.0712,5.0712,5.0712,5.0712,5.0712,5.0712,5.0712,5.0712,5.0712,5.0712,5.0712,5.0712,5.0712,5.0712,5.0712,5.0712,5.0712,5.0712,5.0712,5.0712,5.0712,5.0712,5.0712,5.0712,5.0712,5.0712,5.0712,5.0712,5.0712,5.0712,5.0712,5.0712,5.0712,5.0712,5.0712,5.0575,5.0369,5.0369,5.0369,5.0358,5.019,5.005,4.993,4.993,4.9776,4.9544,4.9544,4.9423,4.922,0.0,0.0,0.0,0.0,0.0,0.0,0.0,0.0,0.0,0.0,0.0,0.0,0.0,0.0,3.5205,3.5295,3.5444,3.5535,3.5558,3.5644,3.5698,3.5698,3.5698,3.6382,3.7823,3.7923,3.882,4.0527,4.0621,4.0834,4.1169,4.1191,4.1191,4.1191,4.1191,4.1191,4.1191,4.1191,4.1191,4.1191,4.1172,4.1132,4.1092,4.1109,4.1107,4.1104,4.1103,4.1102,4.12,4.1762,4.265,4.3608,4.4156,4.4977,4.5723,4.5629,4.5594,4.5594,4.5594,4.6009,4.6528,4.6836,4.774,4.8702,4.926,4.9856,5.0346,5.0635,5.0712,5.0712,5.0712,5.0712,5.0712,5.0712,5.0712,5.0712,5.0712,5.0712,5.0712,5.0712,5.0712,5.0712,5.0712,5.0712,5.0712,5.0712,5.0712,5.0712,5.0712,5.0712,5.0712,5.0712,5.0712,5.0712,5.0712,5.0712,5.0712,5.0712,5.0712,5.0634,5.0544,5.0544,5.0358,5.0056,4.9974,4.9968,5.0043,4.9865,4.9749,4.967,4.967,4.9499,4.9241,4.9241,4.9094,4.8909,0.0,0.0,0.0,0.0,0.0,0.0,0.0,0.0,0.0,3.388,0.0,0.0,0.0,0.0,0.0,3.4684,3.4996,3.5228,3.5288,3.5542,3.5685,3.5689,0.0,0.0,3.6964,3.7086,3.7946,3.9599,3.9763,4.0264,4.1109,4.1169,4.1191,4.1191,4.1191,4.1191,4.1191,4.1191,4.1191,4.1191,4.1132,4.1092,4.1091,4.1102,4.1098,4.1098,4.1091,4.1109,4.1109,4.1108,4.2149,4.3447,4.3428,4.4407,4.5575,4.5594,4.5594,4.5594,0.0,0.0,0.0,4.6644,4.6885,4.7336,4.8952,4.9336,4.9606,5.0481,5.0654,5.0673,5.0712,5.0712,5.0712,5.0712,5.0712,5.0712,5.0712,5.0712,5.0712,5.0712,5.0712,5.0712,5.0712,5.0712,5.0712,5.0712,5.0712,5.0712,5.0712,5.0712,5.0712,5.0712,5.0712,5.0712,5.0712,5.0712,5.0702,5.0683,5.0683,5.0504,5.0195,5.0195,5.0031,4.9776,4.9514,4.9544,4.9757,4.9757,4.9627,4.9384,4.9384,4.9193,4.8909,4.8909,4.8909,4.8909,0.0,0.0,0.0,0.0,0.0,0.0,3.2616,3.2887,3.3115,0.0,0.0,0.0,3.4125,3.4386,3.4612,3.4684,3.4832,3.5005,3.5208,3.5299,3.5398,3.5553,3.5559,3.5945,3.6781,3.7505,3.8428,3.9539,4.0285,4.0823,4.1109,4.1117,4.1147,4.1191,4.1191,4.1172,4.1132,4.1132,4.1132,4.1132,4.111,4.1107,4.1102,4.11,4.1095,4.1091,4.1109,4.1109,4.1085,4.1033,4.1675,4.268,4.3722,4.4333,4.4778,4.5421,4.5594,4.5594,4.5594,0.0,0.0,0.0,0.0,0.0,4.749,4.8048,4.8702,4.9586,4.976,4.9952,5.0577,5.0712,5.0712,5.0712,5.0712,5.0712,5.0712,5.0712,5.0712,5.0712,5.0712,5.0712,5.0712,5.0712,5.0712,5.0712,5.0712,5.0712,5.0712,5.0712,5.0712,5.0712,5.0712,5.0712,5.0712,5.0712,5.0575,5.0347,5.0347,5.0202,4.9904,4.9904,4.9762,4.9499,4.9427,4.9302,4.9155,4.9155,4.9108,4.9044,4.9044,4.8976,4.8909,4.8909,4.8909,4.8909,0.0,0.0,0.0,0.0,0.0,0.0,3.1879,3.2127,3.2365,0.0,0.0,0.0,3.3483,3.3747,3.395,3.4043,3.4292,3.4542,3.4735,3.4944,3.5124,3.5242,3.525,3.5519,3.6063,3.6685,3.764,3.8955,3.957,4.0273,4.1011,4.1074,4.1117,4.1168,4.1191,4.1152,4.1092,4.1091,4.109,4.111,4.1106,4.1102,4.1098,4.1095,4.1093,4.1109,4.1109,4.108,4.1059,4.1006,4.1442,4.2238,4.3416,4.3797,4.397,4.4797,4.5056,4.5152,4.5498,4.5594,4.5594,4.5594,0.0,0.0,4.6817,4.725,4.7836,4.8682,4.8856,4.9125,4.999,5.0164,5.0289,5.0635,5.0712,5.0712,5.0712,5.0712,5.0712,5.0712,5.0712,5.0712,5.0712,5.0712,5.0712,5.0712,5.0712,5.0712,5.0712,5.0712,5.0712,5.0712,5.0712,5.0712,5.0712,5.0565,5.038,5.0195,5.0099,4.9878,4.9641,4.9641,4.9465,4.9193,4.9193,4.9077,4.8909,4.8909,4.8909,4.8909,4.8909,4.8909,4.8909,4.8909,4.8909,4.8909,0.0,0.0,0.0,2.8331,2.9039,2.9848,3.0747,3.1174,3.1591,0.0,3.2435,3.2681,3.2731,3.2894,3.3021,3.3096,3.3607,3.3956,3.4092,3.4551,3.4841,3.4908,3.4908,3.4981,3.52,3.535,3.6332,3.8189,3.8355,3.9271,4.0893,4.1022,4.1085,4.1091,4.115,4.1152,4.1091,4.1108,4.1106,4.1105,4.11,4.1098,4.1097,4.1091,4.1109,4.1108,4.1085,4.1057,4.101,4.0974,4.1301,4.1885,4.271,4.297,4.3124,4.3932,4.4162,4.4355,4.5229,4.546,4.5479,4.5575,4.5594,0.0,4.6586,4.6759,4.699,4.7798,4.7971,4.824,4.9106,4.9336,4.9644,5.0442,5.0635,5.0712,5.0712,5.0712,5.0712,5.0712,5.0712,5.0712,5.0712,5.0712,5.0712,5.0712,5.0712,5.0712,5.0712,5.0712,5.0712,5.0712,5.0663,5.0634,5.0634,5.0325,5.0147,5.0111,4.987,4.9612,4.9334,4.9334,4.9176,4.8891,4.8891,4.8891,4.8874,4.8874,4.8891,4.8891,4.8891,4.8891,4.8874,4.8874,4.8874,4.8874,0.0,0.0,2.747,2.8259,2.8545,2.8986,2.9967,3.0185,3.0373,3.0791,3.1423,3.1952,3.2281,3.2732,3.3021,3.3096,3.3262,3.357,3.4068,3.4188,3.4445,3.4879,3.4908,3.4981,3.52,3.5895,3.6904,3.8189,3.8913,3.9837,4.0893,4.0974,4.1054,4.1091,4.1113,4.1111,4.1108,4.1103,4.1098,4.1094,4.1093,4.1091,4.1091,4.1109,4.1109,4.1085,4.1047,4.1003,4.0974,4.081,4.0765,4.092,4.1785,4.2038,4.222,4.3085,4.3335,4.3508,4.4335,4.4547,4.472,4.5421,4.5594,0.0,4.5806,4.5855,4.6105,4.6971,4.7135,4.7394,4.8202,4.8933,4.9452,4.9625,5.025,5.0712,5.0712,5.0712,5.0712,5.0712,5.0712,5.0712,5.0712,5.0712,5.0712,5.0712,5.0712,5.0712,5.0712,5.0712,5.0712,5.0712,5.0432,5.0294,5.0294,5.0025,4.9762,4.9558,4.9499,4.9318,4.8993,4.8993,4.8926,4.8822,4.8822,4.8768,4.866,4.866,4.8714,4.8822,4.8822,4.875,4.866,4.866,4.866,4.866,2.5259,2.6054,2.6886,2.753,2.7784,2.82,2.9094,2.9425,2.9707,3.0133,3.0697,3.1232,3.1697,3.2021,3.2317,3.262,3.2862,3.3196,3.3675,3.3865,3.4136,3.4534,3.4545,3.4724,3.5083,3.5526,3.6331,3.7556,3.8425,3.9317,4.0211,4.0721,4.0964,4.0992,4.1047,4.1074,4.1103,4.11,4.1095,4.1109,4.1109,4.1109,4.1109,4.1109,4.1078,4.1054,4.1003,4.0945,4.0825,4.0662,4.0564,4.0573,4.1008,4.1143,4.1316,4.22,4.245,4.2624,4.347,4.3701,4.3893,4.4739,4.496,0.0,0.0,4.541,4.5486,4.5795,4.5851,4.6099,4.695,4.7458,4.7898,4.828,4.9201,4.985,4.985,5.0335,5.0712,5.0712,5.0712,5.0712,5.0712,5.0712,5.0712,5.0712,5.0712,5.0712,5.0712,5.0544,5.0442,5.0442,5.0166,4.9993,4.9993,4.9735,4.9529,4.9399,4.9241,4.9062,4.8839,4.8839,4.8786,4.8715,4.8715,4.866,4.8605,4.8605,4.8605,4.8642,4.8678,4.866,4.8605,4.8605,4.8605,4.8605,2.4893,2.5687,2.6416,2.6811,2.7115,2.7524,2.8249,2.8639,2.9034,2.9553,3.0069,3.0605,3.1103,3.1413,3.1731,3.2161,3.2521,3.286,3.3184,3.3522,3.3829,3.4111,3.4173,3.4428,3.4925,3.4971,3.5607,3.6868,3.7762,3.8644,3.9526,4.0451,4.091,4.0917,4.0989,4.1034,4.11,4.1098,4.1094,4.1109,4.1109,4.1109,4.1109,4.1109,4.1064,4.0987,4.096,4.0825,4.0642,4.0542,4.0496,4.0496,4.0496,4.0496,4.065,4.1335,4.1546,4.1739,4.2604,4.2802,4.2949,4.3784,4.4056,4.4241,0.0,0.0,0.0,4.4837,4.4788,4.5028,4.5722,4.6,4.6304,4.6961,4.7981,4.8728,4.89,4.9707,5.0371,5.0585,5.0663,5.0673,5.0614,5.0604,5.0624,5.0702,5.0634,5.0604,5.0604,5.0347,5.0183,5.0116,4.987,4.9721,4.9721,4.9439,4.9305,4.9289,4.901,4.8839,4.8769,4.8769,4.8697,4.8587,4.8587,4.8569,4.8532,4.8532,4.8495,4.8476,4.855,4.855,4.8532,4.8532,4.8532,4.8532,2.4612,2.5577,2.6404,2.6738,0.0,0.0,2.7488,2.7575,2.786,2.8583,2.9476,3.0227,3.0629,3.1545,3.2144,3.2197,3.2353,3.2574,3.2844,3.3169,3.3508,3.3829,3.4074,3.4367,3.4724,3.4907,3.557,3.6715,3.7719,3.8644,3.9526,4.0451,4.0941,4.1,4.0992,4.1035,4.1106,4.1095,4.1109,4.1109,4.1109,4.1109,4.1109,4.1109,4.1064,4.0974,4.0795,4.0642,4.0519,4.0504,4.0496,4.0496,4.0496,4.0496,4.0516,4.0631,4.065,4.0843,4.172,4.1729,4.1733,4.2642,4.3161,4.3476,4.3718,0.0,4.4782,4.4788,0.0,4.4838,4.4933,0.0,0.0,4.6228,4.6948,4.777,4.8536,4.877,4.9194,5.0142,5.0514,5.0575,5.0283,5.026,5.0369,5.0673,5.0421,5.026,5.026,5.0218,5.008,4.9838,4.9602,4.9442,4.9442,4.9127,4.8926,4.8875,4.884,4.875,4.8623,4.8623,4.8569,4.8513,4.8513,4.8438,4.8344,4.8344,4.8325,4.8343,4.8457,4.8438,4.8344,4.8344,4.8344,4.8344,2.4295,2.5007,2.5687,2.6192,0.0,0.0,0.0,2.7248,2.765,2.8391,2.9004,2.9635,3.0356,3.1106,3.1693,3.2002,3.2249,3.2506,3.2779,3.3108,3.3451,3.3793,3.4061,3.4356,3.4684,3.4898,3.5305,3.5956,3.696,3.7889,3.876,3.9669,4.0392,4.0931,4.0933,4.0992,4.1102,4.1094,4.1109,4.1109,4.1109,4.1109,4.1109,4.1109,4.1005,4.0861,4.0655,4.0549,4.0496,4.0496,4.0496,4.0496,4.0496,4.05,4.0495,4.0495,4.0366,4.0299,4.0662,4.0645,4.0727,4.1469,4.19,4.2344,4.3139,4.3551,4.388,4.4214,0.0,0.0,0.0,0.0,0.0,0.0,4.5721,4.6504,4.6862,4.7445,4.8384,4.9803,5.0087,5.0178,5.0195,5.0195,5.026,5.041,5.0142,4.9974,4.9974,4.9817,4.9684,4.9554,4.927,4.911,4.911,4.8926,4.884,4.8787,4.8715,4.8624,4.8532,4.8532,4.8476,4.8382,4.8382,4.8363,4.8306,4.8306,4.8306,4.8306,4.8363,4.8363,4.8306,4.8306,4.8306,4.8306,2.3839,2.4452,2.5133,2.5578,2.5784,2.6084,2.67,2.7119,2.7625,2.8343,2.8779,2.9361,3.0293,3.0885,3.1411,3.1858,3.2179,3.2473,3.2716,3.3157,3.3498,3.3766,3.4061,3.4356,3.4641,3.4889,3.5098,3.5316,3.6382,3.7232,3.7864,3.8978,3.9888,4.0585,4.0799,4.0966,4.1101,4.1093,4.1109,4.1109,4.1109,4.1083,4.1072,4.102,4.0928,4.074,4.0574,4.0496,4.0496,4.0496,4.0496,0.0,4.0496,4.0503,4.0502,4.0502,4.0316,4.0101,4.0022,3.9932,3.996,4.0349,4.0688,4.1173,4.2081,4.2598,4.3029,4.3468,4.3765,0.0,0.0,0.0,4.3945,4.3945,0.0,4.526,4.5466,4.6191,4.7334,4.9131,4.9528,4.9803,5.0056,5.0006,5.0012,5.0068,4.9844,4.9679,4.9679,4.9499,4.9368,4.9273,4.9027,4.8891,4.8874,4.8822,4.8769,4.8715,4.8624,4.8532,4.8438,4.8438,4.8382,4.8306,4.8306,4.8306,4.8306,4.8306,4.8306,4.8306,4.8306,4.8306,4.8306,4.8306,4.8306,4.8306,2.3138,2.4134,2.5007,2.5021,2.5508,2.6084,2.67,2.7026,2.7458,2.8207,2.8887,2.962,3.0506,3.114,3.1598,3.1876,3.2091,3.2318,3.2589,3.322,3.3615,3.3698,3.4086,3.4351,3.4506,3.4832,3.5045,3.5114,3.6312,3.6903,3.698,3.8708,3.9588,3.9772,4.0543,4.0962,4.1106,4.1095,4.1109,4.1109,4.1109,4.1066,4.0987,4.0855,4.077,4.0687,4.0557,4.0496,4.0496,4.0496,4.0496,0.0,0.0,0.0,4.0502,4.0502,4.0441,4.0325,4.0062,0.0,3.9488,3.9382,3.9647,3.9976,4.0166,4.1338,4.2449,4.2604,4.3266,4.3804,4.3804,4.3804,4.3804,4.3804,4.3839,0.0,0.0,4.5038,4.5846,4.7905,4.8904,4.9514,4.979,4.9588,4.9529,4.9784,4.9554,4.9396,4.9396,4.9396,4.9257,4.8926,4.8909,4.8874,4.8804,4.8787,4.8697,4.8513,4.8513,4.8438,4.8306,4.8306,4.8306,4.8306,4.8306,4.8306,4.8306,4.8306,4.8306,4.8306,4.8306,4.8306,4.8306,4.8306,4.8306,4.8306,2.3108,2.3442,2.3884,2.4321,2.4964,2.5797,2.6896,2.7155,2.7484,2.8319,2.8787,2.9361,3.0241,3.1123,3.1657,3.1768,3.2335,3.2705,3.2786,3.3083,3.3397,3.3684,3.3908,3.4185,3.4495,3.4832,3.5026,3.5106,3.5772,3.6381,3.6903,3.7502,3.8462,3.9714,3.9977,4.0475,4.1107,4.1095,4.1109,4.1109,4.1109,4.1005,4.0855,4.082,4.0765,4.0681,4.0557,4.0496,0.0,4.0495,4.0511,4.0489,4.0495,4.0474,4.0432,4.0432,4.0252,0.0,0.0,0.0,3.9402,3.9003,0.0,0.0,3.9936,4.0443,4.1127,4.2247,4.2738,4.3141,4.3592,4.3736,4.3804,4.3804,4.3804,4.3896,0.0,4.4672,4.5256,4.5957,4.7431,4.8459,4.8604,4.9005,4.9343,4.9529,4.9255,4.9044,4.9012,4.9062,4.8959,4.8714,4.8786,4.8786,4.866,4.8606,4.8569,4.8513,4.8401,4.8325,4.8306,4.8306,4.8306,4.8306,4.8306,4.8306,4.8306,4.8306,4.8306,4.8306,4.8306,4.8306,4.8306,4.8306,4.8306,4.8306,2.3108,2.3108,2.3258,2.3763,2.4681,2.5755,2.7011,2.7408,2.783,2.8535,2.8982,2.9572,3.0493,3.1181,3.1658,3.1932,3.2487,3.2866,3.2961,3.3217,3.3508,3.3788,3.3998,3.4245,3.4528,3.4851,3.5062,3.5106,3.5502,3.5974,3.6477,3.6767,3.7569,3.8798,3.9411,4.0065,4.0697,4.0978,4.1109,4.1109,4.1109,4.0975,4.081,4.081,4.0738,4.0609,0.0,4.0496,4.0508,4.0499,4.0507,4.0503,4.0474,4.0424,4.0362,4.0362,4.0139,3.9829,3.9556,3.9439,0.0,3.8807,3.8822,0.0,3.9455,0.0,4.0252,4.13,4.2014,4.2636,4.305,4.345,4.3686,4.3686,4.3686,4.3686,0.0,4.4128,4.4477,4.4477,4.6151,4.7332,4.7391,4.814,4.8677,4.8795,4.8844,4.8857,4.8804,4.8804,4.8732,4.8605,4.8678,4.8678,4.8587,4.8532,4.8494,4.8438,4.8343,4.8306,4.8306,4.8306,4.8306,4.8306,4.8306,4.8306,4.8306,4.8306,4.8306,4.8306,4.8306,4.8306,4.8306,4.8306,4.8306,4.8287,2.3138,2.3155,2.3258,2.348,2.4681,2.6014,2.7063,2.783,2.8448,2.8858,2.9438,3.0166,3.1198,3.1315,3.1638,3.2351,3.262,3.2864,3.3117,3.3611,3.3921,3.4011,3.4305,3.4517,3.4602,3.4925,3.5106,3.5106,3.5502,3.5704,3.5723,3.6477,3.6929,3.7164,3.8887,3.9733,3.9954,4.0763,4.1109,4.1109,4.1109,4.0975,4.081,4.081,4.0692,4.0496,4.0496,4.0496,4.0508,4.0499,4.0502,4.0493,4.0424,4.0362,4.0307,4.0307,4.0119,3.9829,3.9556,3.9311,3.905,3.8765,0.0,0.0,0.0,0.0,3.9845,0.0,4.1111,4.2213,4.2286,4.2928,4.346,4.3496,4.3515,4.3515,4.3515,4.3515,4.3515,4.3515,4.5014,4.6111,4.6232,4.7027,4.758,4.7684,4.8339,4.875,4.8787,4.866,4.8587,4.8587,4.8587,4.855,4.8494,4.8494,4.8438,4.8306,4.8306,4.8306,4.8306,4.8306,4.8306,4.8306,4.8306,4.8306,4.8306,4.8306,4.8287,4.8267,4.8267,4.8267,4.8248,4.8287,4.8267,4.8172,2.3467,2.3914,2.4452,2.4951,2.5728,2.6563,2.7357,2.7953,2.8472,2.8982,2.9483,3.0166,3.1198,3.162,3.2039,3.2587,3.299,3.3298,3.353,3.3536,3.3738,3.4209,3.4209,3.4328,3.4583,3.4925,3.5106,3.5106,3.5502,3.5704,3.5704,3.5916,3.6405,3.7144,3.8246,3.9169,3.9954,4.0763,4.1109,4.1109,4.1109,4.0975,4.081,0.0,4.0692,4.0496,4.0496,4.0496,4.0481,4.0438,4.0449,4.0485,4.037,4.0316,4.0307,4.0307,4.0119,3.9829,3.9556,3.9311,3.905,3.8765,3.8707,3.8707,0.0,0.0,0.0,0.0,0.0,0.0,0.0,0.0,4.28,4.3387,4.3515,4.3515,4.3515,4.3515,4.3515,4.3515,4.3916,4.4482,4.5194,4.6057,4.6864,4.7562,4.7804,4.8139,4.8623,4.8605,4.8532,4.8382,4.8476,4.8457,4.8363,4.8363,4.8325,4.8306,4.8306,4.8306,4.8306,4.8306,4.8306,4.8306,4.8306,4.8306,4.8306,4.8306,4.8075,4.7795,4.7795,4.7588,4.7335,4.8035,4.7875,4.7291,2.3599,2.4408,2.5287,2.5892,2.6549,2.7111,2.7549,2.8198,2.8756,2.9051,2.9683,3.0497,3.1507,3.1841,3.2283,3.2943,3.3241,3.3495,3.3684,3.3694,3.3845,3.4281,3.4305,3.4443,3.473,3.4961,3.5146,3.5224,3.5553,3.5704,3.5704,3.5704,3.5997,3.6576,3.7446,3.8388,3.9407,4.0607,4.1109,4.1109,4.1109,4.1008,0.0,4.0824,4.0701,4.0586,4.0519,4.0496,4.0481,4.0422,4.0424,4.0432,4.0326,4.029,4.029,4.029,4.0029,3.9693,3.9551,3.9219,3.8896,3.8753,3.8707,3.8707,3.8707,3.8707,3.8836,0.0,3.9662,4.0175,0.0,0.0,4.2561,4.3369,4.3515,4.3515,4.3515,4.3515,4.3515,4.3515,4.3515,4.3716,4.4245,4.5139,4.589,4.6403,4.7123,4.7662,4.7997,4.8311,4.842,4.8306,4.8382,4.8382,4.8306,4.8306,4.8306,4.8306,4.8306,4.8306,4.8306,4.8306,4.8306,4.8306,4.8306,4.8306,4.8287,4.8093,4.7836,4.7591,4.7378,4.7004,4.6678,4.7421,4.7335,4.6908,2.3776,2.4851,2.5906,2.6431,2.7188,2.771,2.771,2.8511,2.912,2.9212,2.9984,3.0905,3.1896,3.2003,3.2385,3.3319,3.3393,3.3509,3.3726,3.3895,3.4099,3.4328,3.4506,3.4689,3.4908,3.5032,3.5193,3.5398,3.5608,3.5704,3.5704,3.5704,3.5741,3.5836,3.6703,3.7725,3.8859,4.0313,4.0992,4.1109,4.1109,4.1064,4.0984,4.0846,4.0765,4.0681,4.0549,4.0489,4.0481,4.0422,4.0407,4.0389,4.0319,4.0301,4.0301,4.0301,3.9933,3.9514,3.9514,3.9115,3.8707,3.8707,3.8707,3.8707,3.8707,3.8707,3.8707,3.8707,3.9258,3.9772,0.0,0.0,4.2415,4.3221,4.3332,4.3386,4.3496,4.3515,4.3515,4.3515,4.3515,0.0,4.3515,4.4295,4.4858,4.4987,4.6372,4.7241,4.7297,0.0,4.8306,4.8306,4.8306,4.8306,4.8306,4.8306,4.8306,4.8306,4.8306,4.8267,4.821,4.821,4.8172,4.8113,4.8113,4.8113,4.8075,4.7692,4.7485,4.7378,4.689,4.6442,4.6137,4.6537,4.6701,4.6654,2.4664,2.5701,2.6537,2.6642,2.7605,2.8343,2.8343,2.8772,2.928,2.9772,3.0305,3.1024,3.1986,3.2092,3.2452,3.3334,3.3393,3.3549,3.3921,3.3985,3.4161,3.4528,3.4572,3.4689,3.4908,3.5032,3.5193,3.5398,3.5608,3.5704,3.5704,3.5704,3.573,3.5848,3.6707,3.8021,3.9608,3.9899,4.0444,4.1109,4.1109,4.1064,4.0984,4.0846,4.0765,4.0675,4.055,4.0503,4.0481,4.0422,4.0407,4.0389,4.0319,4.0301,4.0301,4.0301,3.9933,3.9514,3.9514,3.9115,3.8707,3.8707,3.8707,3.8707,3.8707,3.8707,3.8707,3.8707,3.8817,3.9111,3.9772,0.0,0.0,4.2378,4.2506,4.2745,4.3423,4.3515,4.3515,4.3515,4.3515,4.3515,4.3515,4.3712,4.4148,4.4848,4.5786,4.6598,4.7279,0.0,4.8306,0.0,4.8306,0.0,0.0,0.0,4.8306,4.8306,4.8306,4.8113,4.7715,4.7715,4.7506,4.7156,4.7156,4.7156,4.7156,4.7066,4.6776,4.6387,4.5862,4.5615,4.5537,4.5624,4.5649,4.5727,2.5987,2.6522,2.7008,2.7321,2.8067,2.8701,2.8943,2.9355,2.9711,2.9995,3.0645,3.1321,3.2022,3.2282,3.2684,3.3349,3.3393,3.3577,3.3972,3.3998,3.4185,3.4572,3.4699,3.4841,3.4997,3.5181,3.5338,3.5559,3.5656,3.5704,3.5704,3.5704,3.5735,3.5834,3.6786,3.7694,3.8551,3.9429,0.0,4.0464,4.0914,4.1078,4.103,4.0863,4.0776,4.0726,4.0554,4.0495,4.0481,4.0377,4.037,4.0389,4.0319,4.0301,4.0263,4.0128,3.9815,3.9477,3.9337,3.8989,3.8707,3.8707,3.8707,3.8707,3.8707,3.8707,3.8707,3.8707,3.8707,3.8946,3.9753,4.0212,0.0,0.0,0.0,4.1974,4.2763,4.2873,4.302,4.346,4.3515,4.3515,4.3515,4.3513,4.3731,4.4136,4.496,4.577,4.6526,0.0,4.7865,0.0,0.0,0.0,4.8306,0.0,4.8306,4.8287,4.8055,4.7816,4.7591,4.7356,4.7115,4.6908,4.6908,4.6908,4.6886,4.6631,4.6242,4.5752,4.5502,4.5397,4.5397,4.5397,4.5397,4.545,2.7004,2.7199,2.7469,2.8063,2.8574,2.9042,2.9518,3.0016,3.033,3.0309,3.0971,3.1623,3.2092,3.2485,3.2925,3.3422,3.3466,3.3629,3.4036,3.4061,3.4245,3.4647,3.4821,3.4981,3.5162,3.5316,3.5502,3.5704,3.5704,3.5704,3.5709,3.5697,3.5733,3.5857,3.666,3.7131,0.0,0.0,3.9468,3.9858,4.0542,4.0934,4.1081,4.0879,4.081,4.0776,4.0569,4.0499,4.0476,4.0342,4.0344,4.0389,4.0319,4.0253,4.0176,3.9956,3.967,3.9376,3.917,3.8892,3.8707,3.8707,3.8707,3.8707,3.8707,3.8707,3.8707,3.8707,3.8707,3.8891,3.9533,3.9643,0.0,0.0,0.0,4.113,4.1937,4.2194,4.2543,4.3167,4.3387,4.3515,4.3515,4.3515,4.3515,4.3515,4.4301,4.511,4.5847,0.0,0.0,0.0,0.0,4.8306,4.8306,0.0,4.8267,4.8152,4.7775,4.7506,4.7273,4.6913,4.6701,4.6584,4.6584,4.6584,4.656,4.6168,4.5778,4.5397,4.5397,4.5397,4.5397,4.5397,4.5397,4.5397,2.7097,2.7534,2.8063,2.8559,2.9111,2.9673,3.0145,3.072,3.1055,3.0935,3.1298,3.1769,3.2214,3.2584,3.3032,3.3629,3.3671,3.3842,3.4245,3.4269,3.4446,3.4841,3.4898,3.5043,3.5371,3.5391,3.5502,3.5704,3.5704,3.5704,3.5709,3.5696,3.5775,3.5896,0.0,0.0,0.0,3.7477,3.8414,3.9819,3.9897,4.0385,4.1081,4.0879,4.081,4.0776,4.0492,4.0449,4.0485,4.0346,4.0336,4.0389,4.0319,4.0128,3.9924,3.9914,3.9551,3.9142,3.9115,3.8892,3.8707,3.8707,3.8707,3.8707,3.8707,3.8707,3.8707,3.8707,3.8707,3.8726,3.8799,3.8817,3.9074,0.0,0.0,4.0286,4.1095,4.1846,4.2323,4.2396,4.3057,4.3515,4.3515,4.3515,4.3515,4.3515,4.425,4.5057,4.5865,0.0,0.0,4.8269,4.8306,4.8306,4.8306,4.8306,4.8093,4.7653,4.7611,4.7142,4.6339,4.6284,4.5988,4.5537,4.5537,4.5537,4.5537,4.5485,4.545,4.5397,4.5397,4.5397,4.5397,4.5397,4.5397,4.5397,2.7875,2.8301,2.8716,2.8912,2.9607,3.0208,3.0377,3.1044,3.1487,3.143,3.1769,3.2162,3.2551,3.3029,3.3437,3.3684,3.382,3.3998,3.4281,3.4293,3.4487,3.487,3.4981,3.5141,3.5391,3.5515,3.5631,3.5692,3.5692,3.5702,3.5698,3.5729,3.5812,0.0,0.0,3.6187,3.6558,3.7087,3.7692,3.8394,3.939,4.0015,4.0361,4.0773,4.0878,4.0786,4.0584,4.0516,4.0485,4.0354,4.0317,4.0335,4.031,4.0234,4.0077,3.9751,3.9514,3.9272,3.895,3.878,3.8707,3.8707,3.8707,3.8707,3.8707,3.8707,3.8707,3.8707,3.8707,3.8707,3.8707,3.8707,3.8817,3.9129,0.0,0.0,4.0267,4.1075,4.1772,4.2249,4.3002,4.3515,4.3515,4.3515,4.3515,4.3515,4.3791,4.4544,4.5828,0.0,0.0,4.8269,0.0,4.8172,4.7877,4.7877,4.7632,4.7182,4.689,4.656,4.6186,4.5879,4.5589,4.5397,4.5397,4.5397,4.5397,4.5397,4.5397,4.5397,4.5397,4.5397,4.5397,4.5397,4.5397,4.5397,2.8573,2.8897,2.9234,2.9489,3.0197,3.0771,3.0888,3.1473,3.1932,3.2003,3.2265,3.2535,3.2763,3.335,3.3726,3.3793,3.3972,3.4173,3.4393,3.4393,3.4556,3.4935,3.5075,3.5231,3.5489,3.5629,3.5702,3.5698,3.5698,3.5708,3.5708,3.5794,0.0,0.0,3.5983,3.5992,3.6031,3.6657,3.7067,3.7399,3.859,3.9351,3.9854,4.041,4.0692,4.0772,4.0642,4.0537,4.0449,4.0334,4.0298,4.0299,4.0301,4.0244,4.0087,3.9635,3.9433,3.9285,3.8822,3.8707,3.8707,3.8707,3.8707,3.8707,3.8707,3.8707,3.8707,3.8707,3.8707,3.8707,3.8707,3.8707,3.8707,3.8707,0.0,0.0,3.946,4.0249,4.0965,4.1534,4.2506,4.3149,4.3149,4.3368,4.3515,4.3515,4.3515,4.4085,0.0,0.0,0.0,0.0,0.0,0.0,4.7611,4.7611,4.7291,4.6678,4.6363,4.6112,4.5955,4.5563,4.5397,4.5397,4.5397,4.5397,4.5397,4.5397,4.5397,4.5397,4.5397,4.5397,4.5397,4.5397,4.5397,4.5397,2.8997,2.915,2.9496,3.0423,3.096,3.1422,3.1822,3.2179,3.2503,3.2747,3.2795,3.2795,3.2795,3.335,3.378,3.3985,3.4185,3.4374,3.4572,3.4602,3.4743,3.5089,3.5165,3.5357,3.5683,3.5694,3.5704,3.5704,3.5704,0.0,3.5694,0.0,3.5933,3.5992,3.5992,3.5992,3.5992,3.6012,3.65,3.7301,3.7321,3.8316,3.9795,3.975,4.0167,4.0772,4.0642,4.0515,4.0379,4.0325,4.029,4.0301,4.0301,4.0118,3.984,3.9587,3.9311,3.9045,3.878,3.8707,3.8707,3.8707,3.8707,3.8707,3.8707,3.8707,3.8707,3.8707,3.8707,3.8707,3.8707,3.8707,3.8707,3.8707,0.0,0.0,3.8707,3.9405,3.9918,3.9918,4.1332,4.2304,4.2304,4.302,4.3515,4.3515,4.3515,4.3864,0.0,0.0,0.0,4.7094,4.7902,0.0,4.7611,4.7611,4.712,4.6211,4.6211,4.593,4.5397,4.5397,4.5397,4.5397,4.5397,4.5397,4.5397,4.5397,4.5397,4.5397,4.5397,4.5397,4.5397,4.5397,4.5397,4.5397,2.9287,2.9848,3.0381,3.0686,3.1304,3.1807,3.195,3.2503,3.2908,3.2986,3.3202,3.3408,3.3602,3.3876,3.4086,3.4197,3.4513,3.4742,3.4811,3.4889,3.5024,3.5239,3.5352,3.5495,3.5694,3.5704,3.5713,3.577,0.0,0.0,0.0,3.5883,3.5937,3.5992,3.5992,3.5992,3.5992,3.5992,3.6168,3.6461,3.7067,3.7614,3.8217,3.9337,3.9821,3.9985,4.0548,4.059,4.0407,4.037,4.0336,4.0301,4.0301,4.0244,4.0087,3.9635,3.9452,3.9272,3.8822,3.8707,3.8707,3.8707,3.8707,3.8707,3.8707,3.8707,3.8707,3.8707,3.8707,3.8707,3.8707,3.8707,3.8707,3.8707,3.8707,0.0,3.8707,3.9386,4.0102,4.0653,4.1662,4.2525,4.3057,4.3349,4.3515,4.3515,4.3515,0.0,0.0,0.0,0.0,0.0,4.7865,0.0,4.7138,4.7115,4.6613,4.5667,4.5667,4.5563,4.5397,4.5397,4.5397,4.5397,4.5397,4.5397,4.5397,4.5397,4.5397,4.5397,4.5397,4.5397,4.5397,4.5397,4.5397,4.5397,2.9629,3.0302,3.0931,3.1281,3.1878,3.2334,3.2435,3.2954,3.3324,3.3294,3.3555,3.3815,3.4023,3.4274,0.0,3.4413,3.4703,3.4908,3.4908,3.5027,3.5168,3.5297,3.5438,3.5571,3.5737,3.5747,0.0,3.5793,3.583,3.5852,3.5895,3.5896,3.5934,3.5992,3.5992,3.5992,3.5992,3.5992,3.5992,3.6051,3.6597,3.7009,3.7419,3.8453,3.8943,3.9159,4.0009,4.0159,4.001,4.03,4.0354,4.0291,4.0291,4.0301,4.0206,3.9792,3.9587,3.9395,3.8964,3.878,3.8707,3.8707,3.8707,3.8707,3.8707,3.8707,3.8707,3.8707,3.8707,3.8707,3.8707,3.8707,3.8707,3.8707,3.8707,3.8707,3.8707,3.9129,3.9643,4.0141,4.1185,0.0,0.0,4.3149,4.3515,4.3515,4.3515,0.0,0.0,0.0,0.0,4.6617,4.7719,0.0,4.6908,4.6908,4.6394,4.5397,4.5397,4.5397,4.5397,4.5397,4.5397,4.5397,4.5397,4.5397,4.5397,4.5397,4.5397,4.5397,4.5397,4.5397,4.5397,4.5397,4.5397,4.5397,3.0064,3.0592,3.1227,0.0,3.2536,0.0,3.3175,3.3484,3.3684,3.3615,3.386,3.4049,3.4124,3.4526,3.4763,3.4663,0.0,0.0,3.4926,3.5062,3.5192,3.5318,3.5456,3.5609,3.5803,3.5806,3.5799,3.5803,3.5866,3.5901,3.5899,3.5897,3.5934,3.5992,3.5992,3.5992,3.5992,3.5992,3.5992,3.5992,3.5992,3.648,3.7201,3.7282,3.7673,3.8315,3.9116,3.9282,3.9218,4.004,4.0266,4.0221,4.0281,4.0301,4.0244,3.9986,3.9717,3.9433,3.9165,3.8892,3.8707,3.8707,3.8707,3.8707,3.8707,3.8707,3.8707,3.8707,3.8707,3.8707,3.8707,3.8707,3.8707,3.8707,3.8707,3.8707,3.8707,3.8707,3.8726,3.8781,0.0,0.0,4.1168,4.2598,4.3515,0.0,4.3515,0.0,0.0,0.0,4.5847,4.5902,4.7369,4.7761,4.6908,4.6863,4.637,4.5397,4.5397,4.5397,4.5397,4.5397,4.5397,4.5397,4.5397,4.5397,4.5397,4.5397,4.5397,4.5397,4.5397,4.5397,4.5397,4.5397,4.5397,4.5397,0.0,0.0,3.173,3.2197,3.2569,3.2923,3.3232,3.3569,3.378,3.3753,3.3985,3.4215,3.4375,3.4693,3.4926,3.5044,3.5107,3.5166,3.5262,3.5369,3.5464,3.5604,3.5674,3.5745,3.5806,3.5791,3.5827,3.5885,3.5882,3.59,3.5897,3.5952,3.5979,3.5992,3.5992,3.5992,3.5992,3.5992,3.5992,3.5992,3.5992,3.6095,3.6304,3.7038,3.7277,3.7345,3.8258,3.8411,3.8335,3.9139,3.9404,3.9485,4.0109,4.0301,4.0244,3.9986,3.9717,3.9433,3.9165,3.8892,3.8707,3.8707,3.8707,3.8707,3.8707,3.8707,3.8707,3.8707,3.8707,3.8707,3.8707,3.8707,3.8707,3.8707,3.8707,3.8707,3.8707,3.8707,3.8927,0.0,4.0506,4.1334,4.1974,4.291,4.3515,0.0,0.0,4.3515,4.3515,4.4433,4.5278,4.5883,4.6533,4.6868,4.6908,4.6537,4.6038,4.5397,4.5397,4.5397,4.5397,4.5397,4.5397,4.5397,4.5397,4.5397,4.5397,4.5397,4.5397,4.5397,4.5397,4.5397,4.5397,4.5397,4.5397,4.5397,3.1304,3.1714,3.2179,3.2668,3.2908,3.3139,3.348,3.368,3.3842,3.3972,3.4191,3.4428,3.4653,3.4889,3.5081,3.5201,3.5209,3.5258,3.5398,3.5457,3.5562,3.5683,3.576,3.5795,3.5795,3.5795,3.5838,3.5908,3.5895,3.5895,3.5898,3.5965,3.5992,3.5992,3.5992,3.5992,3.5992,3.5992,3.5992,3.5992,3.5992,3.5953,3.5953,3.6467,3.6521,3.6425,3.7327,3.7525,3.7475,3.8284,3.855,3.8689,3.9469,3.9718,3.9767,4.0003,3.9892,3.9616,3.9351,3.9082,3.8851,3.8719,3.8707,3.8707,3.8707,3.8707,3.8707,3.8707,3.8707,3.8707,3.8707,3.8707,3.8707,3.8707,3.8707,3.8707,3.8707,3.8707,3.8854,3.9294,4.0396,4.126,4.1717,4.28,4.3515,4.3515,4.3515,0.0,4.3515,4.3901,4.469,4.5865,4.6215,4.6563,4.6908,4.6193,4.5693,4.5397,4.5397,4.5397,4.5397,4.5397,4.5397,4.5397,4.5397,4.5397,4.5397,4.5397,4.5397,4.5397,4.5397,4.5397,4.5397,4.5397,4.5397,4.5397,3.1646,3.2074,3.257,3.3184,3.3306,3.3408,3.3748,3.3829,3.3947,3.4173,3.4416,3.4653,3.4889,3.5081,3.5218,3.5234,3.5234,3.5289,3.5407,3.5483,3.5599,3.5703,3.5765,3.5795,3.5795,3.5807,3.5836,3.5902,3.5891,3.5918,3.5917,3.5964,3.5992,3.5992,3.5992,3.5992,3.5992,3.5992,3.5992,3.5992,3.5988,3.5942,3.5875,3.5875,3.5745,3.5676,3.6433,3.6626,3.6647,3.7448,3.7704,3.783,3.856,3.8801,3.8973,3.9861,3.9947,3.9732,3.9564,3.93,3.9021,3.8795,3.8719,3.8738,3.8723,3.8723,3.8704,3.8707,3.8707,3.8707,3.8707,3.8707,3.8707,3.8707,3.8707,3.8707,3.8707,0.0,3.8707,3.8707,4.0104,4.1095,4.1095,4.2561,4.3515,4.3515,4.3515,4.3515,4.3515,4.3515,4.4214,4.5755,4.5989,4.6288,4.666,4.5811,4.5397,4.5397,4.5397,4.5397,4.5397,4.5397,4.5397,4.5397,4.5397,4.5397,4.5397,4.5397,4.5397,4.5371,4.5371,4.5371,4.5344,4.5344,4.5344,4.5344,3.2179,3.2486,3.2842,3.3229,3.3306,3.3408,3.3748,3.3998,3.4161,3.4197,3.4577,3.4851,3.4908,3.5081,3.525,3.535,3.5376,3.5395,3.5489,3.5604,3.5703,3.5778,3.5791,3.5795,3.5795,3.5862,3.5883,3.5907,3.5895,3.5935,3.5979,3.5995,3.5992,3.5992,3.5992,3.5992,3.5992,3.5992,3.5992,3.6009,3.5938,3.5846,3.5737,3.5737,3.5635,3.5534,3.5722,3.5758,3.5794,3.6546,3.6792,3.6929,3.767,3.7903,3.8084,3.9007,3.922,3.9194,3.9497,3.9272,3.8921,3.8881,3.8866,3.8851,3.8792,3.8777,3.878,3.8704,3.8707,3.8707,3.8707,3.8707,3.8707,3.8707,3.8707,3.8707,3.8707,0.0,3.8707,3.8707,4.0104,4.1095,4.1095,4.2561,4.3515,4.3515,4.3515,4.3515,4.3515,4.3515,4.4053,4.526,4.4977,4.5062,4.5624,4.5476,4.5397,4.5397,4.5397,4.5397,4.5397,4.5397,4.5397,4.5397,4.5397,4.5397,4.5397,4.5397,4.5327,4.523,4.523,4.5167,4.5059,4.5059,4.5059,4.5059,3.2797,3.297,3.3184,3.3508,3.3564,3.3662,3.3972,3.4124,3.4305,3.4545,3.4772,3.4982,3.5149,3.5239,3.5357,3.545,3.5515,3.5564,3.561,3.5667,3.5723,3.5791,3.5795,3.5819,3.5843,3.5885,3.5908,3.5894,3.5936,3.5965,3.5992,3.5992,3.5992,3.5992,3.5992,3.5992,3.5992,3.6007,3.6007,3.5989,3.5883,3.5781,3.5693,3.566,3.5599,3.5507,3.5541,3.5509,3.5484,3.5791,3.5895,3.6024,3.6807,3.7048,3.7247,3.8189,3.8972,3.9546,3.958,3.9363,3.9073,3.8935,3.891,3.8877,3.8866,3.8837,3.8792,3.8765,3.8738,3.8707,3.8707,3.8707,3.8707,3.8707,3.8707,0.0,0.0,3.8707,3.8707,3.8707,4.0104,4.1095,4.1095,4.2561,4.3515,4.3515,4.3515,4.3515,4.3515,4.3515,4.4017,4.516,4.5347,4.5418,4.5397,4.5397,4.5397,4.5397,4.5397,4.5397,4.5397,4.5397,4.5397,4.5397,4.5327,4.53,4.5274,4.5194,4.514,4.5086,4.5086,4.5059,4.4954,4.4561,4.4663,4.4954,3.3328,3.3514,3.368,3.391,3.3979,3.4055,3.4239,3.4321,3.4491,3.4851,3.4955,3.5107,3.5367,3.5407,3.5443,3.5543,3.5637,3.5718,3.5713,3.5713,3.5742,3.5795,3.5815,3.5856,3.5908,3.5905,3.5892,3.5898,3.5966,3.5992,3.5992,3.5992,3.5992,3.5992,3.5991,3.6009,3.6009,3.6002,3.598,3.5935,3.5819,3.5729,3.565,3.5577,3.5502,3.5453,3.5453,3.542,3.5364,3.5327,3.5297,3.5399,3.6012,3.6203,3.6375,3.7308,3.8494,3.9441,3.9146,3.9051,3.8973,3.8725,3.882,3.8935,3.8939,3.8877,3.8837,3.8807,3.8765,3.8723,3.8707,3.8707,3.8707,3.8707,0.0,0.0,0.0,3.8707,3.8781,3.8964,4.0215,4.1168,4.1352,4.2671,4.3515,4.3515,4.3515,4.3515,4.3515,4.3515,4.3962,4.5001,4.581,4.5955,4.5397,4.5397,4.5397,4.5397,4.5397,4.5397,4.5371,4.5371,4.5344,4.5318,4.5194,4.515,4.5167,4.5032,4.4978,4.4951,4.4951,4.4923,4.4828,4.4061,4.4146,4.4555,3.3675,3.4116,3.4497,3.4445,3.4497,3.4518,3.4486,3.4703,3.4851,3.4908,3.5117,3.5293,3.5386,3.5392,3.5483,3.5674,3.5694,3.5737,3.5782,3.5786,3.5791,3.5795,3.5869,3.5886,3.5908,3.5906,3.5898,3.5898,3.5966,3.5992,3.5992,3.5992,3.5992,3.5992,3.6004,3.6001,3.6001,3.5999,3.5938,3.5813,3.5733,3.564,3.551,3.5443,3.5379,3.5315,3.5315,3.5315,3.5308,3.5308,3.5293,3.5304,3.5302,3.5305,3.5477,3.6356,3.7285,3.7974,3.7574,3.7868,3.8228,3.804,3.853,3.9059,3.9007,3.8979,3.8935,3.8837,3.8792,3.8762,3.8704,3.8707,3.8707,3.8707,0.0,0.0,3.8707,3.8707,3.8982,3.9717,4.0579,4.1389,4.2139,4.2983,4.3515,4.3515,4.3515,4.3515,4.3515,4.3515,4.3815,4.4517,4.5623,4.5955,4.5397,4.5397,4.5397,4.5397,4.5397,4.5327,4.5203,4.5203,4.5167,4.5032,4.5005,4.5005,4.5005,4.5005,4.494,4.4803,4.4803,4.4737,4.4541,4.3735,4.3481,4.3515,3.4288,3.4456,3.4582,3.4561,3.4551,3.4593,3.4735,3.4823,3.4972,3.513,3.5239,3.5355,3.5504,3.5525,3.5621,3.5815,3.5786,3.5782,3.5853,3.5811,3.5819,3.5869,3.5897,3.5901,3.5905,3.5897,3.5917,3.5967,3.5998,3.6009,3.6004,3.6004,3.6001,3.5995,3.5992,3.5992,3.599,3.5914,3.5846,3.5785,3.5631,3.5548,3.5482,3.5376,3.5323,3.5308,3.5308,3.5293,3.5308,3.5293,3.5269,3.5234,3.5261,3.5269,3.5326,3.5656,3.6048,3.6262,3.5856,3.6673,3.7551,3.7249,3.7392,3.7596,3.7575,3.79,3.8167,3.8124,3.846,3.8719,3.8707,3.8707,3.8707,3.8707,0.0,3.8707,3.8707,3.8707,3.9001,3.979,4.0616,4.1407,4.2213,4.302,4.3515,4.3515,4.3515,4.3515,4.3515,4.3883,4.424,4.4488,4.5264,4.5615,4.5397,4.53,4.5274,4.5274,4.5194,4.5113,4.5086,4.5086,4.5059,4.5005,4.4913,4.4886,4.4886,4.4793,4.4737,4.4682,4.4682,4.4654,4.4462,4.3183,4.3014,4.3257,3.4754,3.4813,3.4813,3.4813,3.4784,3.4804,3.5006,3.5032,3.5108,3.5321,3.5357,3.5445,3.5645,3.5665,3.5721,3.5885,3.5859,3.5849,3.5895,3.5869,3.5856,3.5908,3.5901,3.5899,3.5898,3.5917,3.5948,3.6009,3.6006,3.6001,3.5995,3.5995,3.5992,3.6005,3.5981,3.596,3.5958,3.585,3.5788,3.5725,3.556,3.5464,3.5424,3.5338,3.5285,3.527,3.527,3.5273,3.5269,3.5269,3.5234,3.5209,3.5242,3.5269,3.5277,3.5297,3.5285,3.5195,3.4879,3.5615,3.6427,3.6348,3.6513,3.6686,3.6673,3.7229,3.7724,3.7681,3.8239,3.8719,3.8707,3.8707,3.8707,3.8707,3.8707,3.8707,3.8707,3.8707,3.9093,4.0157,4.0763,4.1517,4.2561,4.3167,4.3515,4.3515,4.3515,4.3515,4.3515,4.4149,4.4466,4.4405,4.5018,4.5318,4.5264,4.522,4.5177,4.514,4.5032,4.4978,4.494,4.494,4.4896,4.4886,4.4793,4.4737,4.4737,4.4626,4.4615,4.4615,4.4615,4.4462,4.4062,4.276,4.2472,4.2547,3.4997,3.516,3.5289,3.5289,3.5289,3.5296,3.5296,3.5296,3.5355,3.5483,3.5506,3.5577,3.5775,3.5795,3.583,3.5884,3.5904,3.5908,3.5908,3.5906,3.591,3.5894,3.5907,3.5898,3.5898,3.5961,3.5999,3.5999,3.6009,3.6005,3.6005,3.6005,3.6005,3.6003,3.5934,3.5909,3.5885,3.5827,3.5724,3.5581,3.5512,3.543,3.5304,3.5304,3.5261,3.5209,3.5209,3.5209,3.5209,3.5209,3.5209,3.5209,3.5209,3.5209,3.5218,3.5277,3.5157,3.4962,3.4832,3.4691,3.4734,3.5349,3.6086,3.6655,3.6589,3.7211,3.7748,3.7624,3.8236,3.8777,3.8704,3.8707,3.8707,3.8707,3.8707,3.8707,3.8707,3.8707,3.9297,4.0912,4.1113,4.1754,4.3332,4.3515,4.3515,4.3515,4.3515,4.3515,4.3515,4.4131,4.4405,4.4219,4.4833,4.5123,4.5005,4.514,4.514,4.5005,4.5005,4.494,4.4803,4.4803,4.4737,4.4615,4.4615,4.4615,4.4615,4.4615,4.4615,4.4615,4.4615,4.4096,4.3291,4.2574,4.183,4.1204,3.5312,3.5404,3.5432,3.5432,3.5486,3.5532,3.5574,3.5579,3.5595,3.565,3.564,3.5693,3.5855,3.582,3.583,3.5884,3.5904,3.5902,3.5908,3.5947,3.5956,3.5897,3.5898,3.5911,3.5971,3.5997,3.6009,3.6009,3.6005,3.5981,3.5934,3.5934,3.5929,3.5921,3.5916,3.5852,3.576,3.5693,3.5588,3.5445,3.534,3.5262,3.5226,3.5226,3.5218,3.5209,3.5209,3.5209,3.5209,3.5209,3.5209,3.5209,3.5209,3.5209,3.5185,3.5054,3.5018,3.4925,3.4609,3.4561,3.4603,3.4586,3.4717,3.5032,3.5618,3.6315,3.6971,3.7499,3.8195,3.8719,3.8707,3.8707,3.8707,3.8707,3.8707,3.8707,3.8707,3.9184,3.9937,4.0967,4.159,4.2359,4.3387,4.3515,4.3515,4.3515,4.3464,4.3429,4.3429,4.3447,4.366,4.412,4.4221,4.4465,4.4858,4.4913,4.4913,4.4858,4.4748,4.4709,4.4654,4.4654,4.4626,4.4615,4.4615,4.4615,4.4615,4.4615,4.4615,4.4615,4.4615,4.4096,4.3291,4.2574,4.183,4.1136,3.5509,3.5513,3.5521,3.5581,3.5616,3.565,3.5691,3.5696,3.5713,3.576,3.5787,3.5814,3.5934,3.5907,3.5909,3.5937,3.5939,3.5931,3.5948,3.5956,3.5944,3.5893,3.5892,3.5924,3.6005,3.5962,3.596,3.596,3.5955,3.5948,3.5902,3.5902,3.5867,3.5811,3.5811,3.5768,3.5655,3.5571,3.5476,3.5385,3.5262,3.5209,3.5209,3.5209,3.5209,3.5209,3.5209,3.5209,3.5209,3.5209,3.5209,3.5209,3.5209,3.5218,3.5201,3.5,3.4926,3.486,3.4553,3.445,3.4351,3.4197,3.4383,3.474,3.5206,3.6122,3.701,3.7474,3.8168,3.8707,3.8707,3.8707,3.8707,3.8707,3.8707,3.8707,3.8707,3.9386,4.0194,4.1003,4.1809,4.2616,4.3423,4.3515,4.3515,4.3515,4.3446,4.3323,4.3123,4.3051,4.3235,4.3711,4.3803,4.4109,4.472,4.4737,4.4737,4.4737,4.4626,4.4615,4.4615,4.4615,4.4615,4.4615,4.4615,4.4615,4.4615,4.4615,4.4615,4.4615,4.4615,4.3927,4.2912,4.2455,4.1644,4.0696,3.5604,3.5574,3.5562,3.5693,3.5717,3.5736,3.5737,3.5741,3.5767,3.5889,3.5916,3.5934,3.5989,3.5992,3.5992,3.5992,3.6009,3.5996,3.5991,3.5935,3.5908,3.5892,3.5908,3.5921,3.5981,3.5934,3.5907,3.5907,3.5897,3.5908,3.5908,3.5883,3.5827,3.5698,3.5689,3.5655,3.5566,3.5451,3.5391,3.5364,3.5254,3.5209,3.5209,3.5209,3.5209,3.5209,3.5209,3.5209,3.5201,3.5185,3.5166,3.5157,3.5141,3.5185,3.5193,3.499,3.486,3.4713,3.4583,3.4316,3.4105,3.4179,3.4851,3.546,3.5326,3.6476,3.7584,3.7617,3.8193,3.8707,3.8707,3.8707,3.8707,3.8707,3.8707,3.8707,3.8707,3.9441,4.0286,4.1003,4.1882,4.269,4.3441,4.3479,4.3497,4.3515,4.3375,4.3142,4.2693,4.2771,4.2916,4.3175,4.3442,4.3895,4.4598,4.4615,4.4615,4.4615,4.4615,4.4615,4.4615,4.4615,4.4615,4.4615,4.4615,4.4615,4.4615,4.4615,4.4615,4.4615,4.4615,4.3718,4.2388,4.232,4.1416,4.0197,3.5687,3.5741,3.5827,3.5846,3.5902,3.5927,3.5929,3.5929,3.5953,3.5962,3.5981,3.5985,3.5991,3.5992,3.5992,3.5992,3.6009,3.5976,3.5934,3.5905,3.5908,3.5892,3.5908,3.5911,3.5919,3.5914,3.5894,3.5894,3.5892,3.5908,3.5908,3.5794,3.5733,3.5693,3.566,3.556,3.5438,3.5412,3.5348,3.5239,3.5198,3.5209,3.5209,3.5209,3.5209,3.5209,3.5209,3.5209,3.5185,3.5019,3.4973,3.4926,3.4724,3.4655,3.4624,3.4428,3.439,3.4363,3.4124,3.4036,3.4177,3.4795,3.5574,3.6168,3.6141,3.6853,3.7691,3.8303,3.8579,3.8707,3.8707,3.8707,3.8707,3.8707,3.8707,3.8707,3.8707,3.9955,4.0893,4.1077,4.2378,4.3296,4.3478,4.3464,4.3446,4.3497,4.2939,4.2596,4.2541,4.1728,4.1815,4.3009,4.2756,4.3254,4.4598,4.4615,4.4615,4.4615,4.4615,4.4615,4.4615,4.4615,4.4615,4.4615,4.4615,4.4615,4.4615,4.4615,4.4615,4.4615,4.4615,4.3995,4.3098,4.2506,4.1728,4.0882,3.5187,3.5574,3.5916,3.594,3.5981,3.5992,3.5992,3.5992,3.5992,3.5992,3.5992,3.5996,3.6005,3.6006,3.6009,3.5993,3.5976,3.5946,3.5903,3.5908,3.5892,3.5892,3.5908,3.5908,3.5908,3.5908,3.5908,3.5908,3.5908,3.5908,3.5908,3.5756,3.5676,3.5645,3.556,3.5425,3.5304,3.5304,3.5251,3.5209,3.5209,3.5209,3.5209,3.5209,3.5209,3.5209,3.5209,3.5132,3.5046,3.4945,3.4803,3.4684,3.454,3.4529,3.4508,3.4298,3.4274,3.4244,3.4005,3.3947,3.4136,3.4981,3.5781,3.6452,3.6853,3.7507,3.8193,3.8615,3.8707,3.8707,3.8707,3.8707,3.8707,3.8707,3.8707,3.8836,3.9221,4.0341,4.1242,4.1627,4.2745,4.3515,4.3515,4.3375,4.3358,4.3428,4.2788,4.2318,4.2139,4.1276,4.1371,4.2638,4.2428,4.3031,4.4581,4.4615,4.4615,4.4615,4.4615,4.4615,4.4615,4.4615,4.4615,4.4615,4.4615,4.4615,4.4615,4.4615,4.4615,4.4615,4.4615,4.4096,4.3291,4.2574,4.1593,4.0612,3.4396,3.4988,3.5531,3.5736,3.578,3.5821,3.5973,3.5995,3.5998,3.5998,3.6001,3.6008,3.5995,3.5996,3.5996,3.5989,3.5934,3.59,3.5894,3.5907,3.5908,3.5908,3.5908,3.5908,3.5908,3.5908,3.5908,3.5908,3.5878,3.5875,3.5852,3.5721,3.5626,3.5554,3.5425,3.5304,3.5209,3.5209,3.5209,3.5209,3.5209,3.5209,3.5209,3.5209,3.5209,3.5209,3.5209,3.5072,3.4879,3.4851,3.4653,3.4442,3.4398,3.442,3.442,3.4262,3.4208,3.4189,3.4005,3.3921,3.4139,3.5138,3.585,3.6541,3.7492,3.8212,3.8707,3.8707,3.8707,3.8707,3.8707,3.8707,3.8707,3.8707,3.8707,3.8982,3.979,4.0598,4.1389,4.2194,4.2985,4.348,4.348,4.3232,4.3105,4.3233,4.2557,4.1969,4.1583,4.0995,4.1184,4.2279,4.2286,4.3031,4.4581,4.4615,4.4615,4.4615,4.4615,4.4615,4.4615,4.4615,4.4615,4.4615,4.4615,4.4615,4.4615,4.4615,4.4615,4.4615,4.4615,4.4181,4.3504,4.2625,4.1467,4.0299,3.3565,3.3657,3.3975,3.4747,3.4873,3.513,3.5878,3.6006,3.5993,3.5993,3.5996,3.5994,3.5993,3.5993,3.5988,3.5929,3.5905,3.5892,3.5899,3.5892,3.5908,3.5908,3.5908,3.5908,3.5908,3.5908,3.5908,3.5908,3.579,3.5733,3.571,3.5527,3.5445,3.5418,3.5281,3.5226,3.5209,3.5209,3.5209,3.5209,3.5209,3.5209,3.5209,3.5209,3.5209,3.5209,3.5209,3.5072,3.486,3.4632,3.4416,3.4191,3.3972,3.3908,3.3908,3.3868,3.3868,3.3868,3.3829,3.3815,3.4187,3.5748,3.6225,3.6688,3.8193,3.8615,3.8707,3.8707,3.8707,3.8707,3.8707,3.8707,3.8707,3.8707,3.8707,3.8982,3.979,4.0598,4.1389,4.2194,4.2951,4.3394,4.3394,4.2863,4.2537,4.2619,4.1635,4.1001,4.1013,4.0473,4.0849,4.2252,4.2286,4.3031,4.4581,4.4615,4.4615,4.4615,4.4615,4.4615,4.4615,4.4615,4.4615,4.4615,4.4615,4.4615,4.4615,4.4615,4.4615,4.4615,4.4615,4.4547,4.4276,4.2811,4.1762,4.1052,3.2675,3.3066,3.3516,3.3905,3.3965,3.4101,3.4491,3.4551,3.4551,3.4551,3.4979,3.5267,3.5276,3.5674,3.5933,3.5897,3.5895,3.5907,3.5892,3.5908,3.5908,3.5908,3.5908,3.5908,3.5908,3.5833,3.5794,3.5794,3.5737,3.5672,3.5636,3.5489,3.5398,3.5391,3.527,3.5209,3.5209,3.5209,3.5209,3.5209,3.5209,3.5209,3.5209,3.5209,3.5209,3.5193,3.5072,3.4821,3.4491,3.436,3.416,3.3959,3.3847,3.3807,3.3807,3.3807,3.3807,3.3807,3.3807,3.4137,3.4747,3.5991,3.6648,3.7272,3.845,3.8707,3.8707,3.8707,3.8707,3.8707,3.8707,3.8707,3.8707,3.8707,3.9074,3.9643,4.0469,4.1258,4.1965,4.2468,4.2978,4.3069,4.2559,4.236,4.2218,4.2056,4.1276,4.0808,4.0838,4.036,4.0603,4.1644,4.2083,4.2811,4.3927,4.4395,4.4615,4.4615,4.4615,4.4615,4.4615,4.4615,4.4615,4.4615,4.4615,4.4615,4.4615,4.4615,4.4615,4.4615,4.4615,4.4073,4.3267,4.3014,4.2202,4.1271]}]]